<?xml version="1.0"?>
<gpx xmlns:xsi="http://www.w3.org/2001/XMLSchema-instance" xmlns:xsd="http://www.w3.org/2001/XMLSchema" version="1.1" creator="Ski Blackbox" xmlns="http://www.topografix.com/GPX/1/1">
  <trk>
    <trkseg>
      <trkpt lat="43.06308550764" lon="-5.39350019955">
        <ele>1495.22</ele>
        <time>2012-12-18T12:01:28+01:00</time>
      </trkpt>
      <trkpt lat="43.06308057908" lon="-5.3934743967">
        <ele>1495.19</ele>
        <time>2012-12-18T12:01:32+01:00</time>
      </trkpt>
      <trkpt lat="43.06308029745" lon="-5.39344147526">
        <ele>1495.12</ele>
        <time>2012-12-18T12:01:37+01:00</time>
      </trkpt>
      <trkpt lat="43.06308345978" lon="-5.39340880649">
        <ele>1494.56</ele>
        <time>2012-12-18T12:01:40+01:00</time>
      </trkpt>
      <trkpt lat="43.06310343767" lon="-5.39339147685">
        <ele>1493.99</ele>
        <time>2012-12-18T12:01:49+01:00</time>
      </trkpt>
      <trkpt lat="43.0631292262" lon="-5.39337922668">
        <ele>1493.94</ele>
        <time>2012-12-18T12:01:54+01:00</time>
      </trkpt>
      <trkpt lat="43.06311775421" lon="-5.39339280285">
        <ele>1494.08</ele>
        <time>2012-12-18T12:02:03+01:00</time>
      </trkpt>
      <trkpt lat="43.06313544227" lon="-5.39340322943">
        <ele>1493.85</ele>
        <time>2012-12-18T12:02:19+01:00</time>
      </trkpt>
      <trkpt lat="43.06315866059" lon="-5.39340122438">
        <ele>1494.13</ele>
        <time>2012-12-18T12:02:22+01:00</time>
      </trkpt>
      <trkpt lat="43.0631851957" lon="-5.39340145218">
        <ele>1494.54</ele>
        <time>2012-12-18T12:02:33+01:00</time>
      </trkpt>
      <trkpt lat="43.06316981827" lon="-5.39339899139">
        <ele>1493.76</ele>
        <time>2012-12-18T12:02:41+01:00</time>
      </trkpt>
      <trkpt lat="43.06314843671" lon="-5.39339903567">
        <ele>1493.59</ele>
        <time>2012-12-18T12:03:01+01:00</time>
      </trkpt>
      <trkpt lat="43.06316223178" lon="-5.39338898624">
        <ele>1493.9</ele>
        <time>2012-12-18T12:03:06+01:00</time>
      </trkpt>
      <trkpt lat="43.06318336392" lon="-5.39338818335">
        <ele>1494.01</ele>
        <time>2012-12-18T12:03:10+01:00</time>
      </trkpt>
      <trkpt lat="43.0631701269" lon="-5.39340150595">
        <ele>1493.52</ele>
        <time>2012-12-18T12:03:42+01:00</time>
      </trkpt>
      <trkpt lat="43.06314970543" lon="-5.393392766">
        <ele>1493.64</ele>
        <time>2012-12-18T12:04:03+01:00</time>
      </trkpt>
      <trkpt lat="43.06312406288" lon="-5.39339336495">
        <ele>1493.53</ele>
        <time>2012-12-18T12:04:11+01:00</time>
      </trkpt>
      <trkpt lat="43.06310750145" lon="-5.39341346719">
        <ele>1493.54</ele>
        <time>2012-12-18T12:04:16+01:00</time>
      </trkpt>
      <trkpt lat="43.06309574108" lon="-5.39344469494">
        <ele>1493.06</ele>
        <time>2012-12-18T12:04:21+01:00</time>
      </trkpt>
      <trkpt lat="43.06310401639" lon="-5.39342661657">
        <ele>1492.28</ele>
        <time>2012-12-18T12:04:27+01:00</time>
      </trkpt>
      <trkpt lat="43.0631252851" lon="-5.39341093095">
        <ele>1491.96</ele>
        <time>2012-12-18T12:04:28+01:00</time>
      </trkpt>
      <trkpt lat="43.06315468455" lon="-5.39340470929">
        <ele>1491.79</ele>
        <time>2012-12-18T12:04:30+01:00</time>
      </trkpt>
      <trkpt lat="43.06317990988" lon="-5.39340608011">
        <ele>1491.48</ele>
        <time>2012-12-18T12:04:33+01:00</time>
      </trkpt>
      <trkpt lat="43.06319521439" lon="-5.39338617065">
        <ele>1491.13</ele>
        <time>2012-12-18T12:04:35+01:00</time>
      </trkpt>
      <trkpt lat="43.06319834235" lon="-5.39335603722">
        <ele>1491.35</ele>
        <time>2012-12-18T12:04:39+01:00</time>
      </trkpt>
      <trkpt lat="43.06320879153" lon="-5.39337240698">
        <ele>1490.98</ele>
        <time>2012-12-18T12:04:57+01:00</time>
      </trkpt>
      <trkpt lat="43.06319455342" lon="-5.39339733977">
        <ele>1490.55</ele>
        <time>2012-12-18T12:05:00+01:00</time>
      </trkpt>
      <trkpt lat="43.0631625703" lon="-5.39339763246">
        <ele>1490.54</ele>
        <time>2012-12-18T12:05:02+01:00</time>
      </trkpt>
      <trkpt lat="43.06312975392" lon="-5.39339326536">
        <ele>1489.92</ele>
        <time>2012-12-18T12:05:04+01:00</time>
      </trkpt>
      <trkpt lat="43.06310293997" lon="-5.393411905">
        <ele>1489.14</ele>
        <time>2012-12-18T12:05:17+01:00</time>
      </trkpt>
      <trkpt lat="43.06308007576" lon="-5.39340597698">
        <ele>1489.4</ele>
        <time>2012-12-18T12:05:28+01:00</time>
      </trkpt>
      <trkpt lat="43.06310145329" lon="-5.39340163978">
        <ele>1489.32</ele>
        <time>2012-12-18T12:05:34+01:00</time>
      </trkpt>
      <trkpt lat="43.06312832641" lon="-5.39338548375">
        <ele>1489.27</ele>
        <time>2012-12-18T12:05:36+01:00</time>
      </trkpt>
      <trkpt lat="43.06314620683" lon="-5.39336300769">
        <ele>1489.25</ele>
        <time>2012-12-18T12:05:41+01:00</time>
      </trkpt>
      <trkpt lat="43.06316155111" lon="-5.39334047463">
        <ele>1489.52</ele>
        <time>2012-12-18T12:05:46+01:00</time>
      </trkpt>
      <trkpt lat="43.06313752965" lon="-5.3933389855">
        <ele>1489.57</ele>
        <time>2012-12-18T12:05:50+01:00</time>
      </trkpt>
      <trkpt lat="43.06311153591" lon="-5.39334022994">
        <ele>1489.64</ele>
        <time>2012-12-18T12:05:51+01:00</time>
      </trkpt>
      <trkpt lat="43.06308709231" lon="-5.39334275871">
        <ele>1489.44</ele>
        <time>2012-12-18T12:05:54+01:00</time>
      </trkpt>
      <trkpt lat="43.06306285816" lon="-5.39335707784">
        <ele>1489.4</ele>
        <time>2012-12-18T12:05:56+01:00</time>
      </trkpt>
      <trkpt lat="43.06304416443" lon="-5.39337878418">
        <ele>1489.23</ele>
        <time>2012-12-18T12:05:59+01:00</time>
      </trkpt>
      <trkpt lat="43.0630185992" lon="-5.39339935282">
        <ele>1489.25</ele>
        <time>2012-12-18T12:06:01+01:00</time>
      </trkpt>
      <trkpt lat="43.06299950515" lon="-5.39342110207">
        <ele>1489.14</ele>
        <time>2012-12-18T12:06:03+01:00</time>
      </trkpt>
      <trkpt lat="43.06298090066" lon="-5.39344650726">
        <ele>1489.04</ele>
        <time>2012-12-18T12:06:05+01:00</time>
      </trkpt>
      <trkpt lat="43.06296225997" lon="-5.39347908094">
        <ele>1488.81</ele>
        <time>2012-12-18T12:06:07+01:00</time>
      </trkpt>
      <trkpt lat="43.06293215316" lon="-5.39351658487">
        <ele>1488.75</ele>
        <time>2012-12-18T12:06:09+01:00</time>
      </trkpt>
      <trkpt lat="43.06290503537" lon="-5.39354043745">
        <ele>1488.5</ele>
        <time>2012-12-18T12:06:11+01:00</time>
      </trkpt>
      <trkpt lat="43.06287812061" lon="-5.39357089012">
        <ele>1488.06</ele>
        <time>2012-12-18T12:06:13+01:00</time>
      </trkpt>
      <trkpt lat="43.06285697969" lon="-5.39359703016">
        <ele>1487.71</ele>
        <time>2012-12-18T12:06:16+01:00</time>
      </trkpt>
      <trkpt lat="43.06283583402" lon="-5.39358994602">
        <ele>1487.48</ele>
        <time>2012-12-18T12:06:20+01:00</time>
      </trkpt>
      <trkpt lat="43.06280155018" lon="-5.39357468981">
        <ele>1487.11</ele>
        <time>2012-12-18T12:06:21+01:00</time>
      </trkpt>
      <trkpt lat="43.06276713372" lon="-5.39356238494">
        <ele>1486.81</ele>
        <time>2012-12-18T12:06:22+01:00</time>
      </trkpt>
      <trkpt lat="43.0627378875" lon="-5.39356133213">
        <ele>1486.12</ele>
        <time>2012-12-18T12:06:24+01:00</time>
      </trkpt>
      <trkpt lat="43.06270836777" lon="-5.39356568132">
        <ele>1485.48</ele>
        <time>2012-12-18T12:06:28+01:00</time>
      </trkpt>
      <trkpt lat="43.06267943035" lon="-5.39355843748">
        <ele>1485.27</ele>
        <time>2012-12-18T12:06:31+01:00</time>
      </trkpt>
      <trkpt lat="43.06266414137" lon="-5.3935601723">
        <ele>1485.3</ele>
        <time>2012-12-18T12:06:41+01:00</time>
      </trkpt>
      <trkpt lat="43.06263159246" lon="-5.39356900328">
        <ele>1484.9</ele>
        <time>2012-12-18T12:06:47+01:00</time>
      </trkpt>
      <trkpt lat="43.06263480568" lon="-5.39354964708">
        <ele>1483.99</ele>
        <time>2012-12-18T12:07:09+01:00</time>
      </trkpt>
      <trkpt lat="43.06262954955" lon="-5.39356348845">
        <ele>1484.02</ele>
        <time>2012-12-18T12:07:45+01:00</time>
      </trkpt>
      <trkpt lat="43.06261082719" lon="-5.39361338652">
        <ele>1484.11</ele>
        <time>2012-12-18T12:07:52+01:00</time>
      </trkpt>
      <trkpt lat="43.06259900256" lon="-5.39364924945">
        <ele>1483.6</ele>
        <time>2012-12-18T12:08:03+01:00</time>
      </trkpt>
      <trkpt lat="43.06259740877" lon="-5.39368471934">
        <ele>1482.48</ele>
        <time>2012-12-18T12:08:08+01:00</time>
      </trkpt>
      <trkpt lat="43.06259762864" lon="-5.39366874315">
        <ele>1481.99</ele>
        <time>2012-12-18T12:08:22+01:00</time>
      </trkpt>
      <trkpt lat="43.06259542524" lon="-5.3936664163">
        <ele>1482.76</ele>
        <time>2012-12-18T12:08:26+01:00</time>
      </trkpt>
      <trkpt lat="43.06259269236" lon="-5.39366556619">
        <ele>1482.62</ele>
        <time>2012-12-18T12:08:28+01:00</time>
      </trkpt>
      <trkpt lat="43.06255401052" lon="-5.39364290568">
        <ele>1482.37</ele>
        <time>2012-12-18T12:08:59+01:00</time>
      </trkpt>
      <trkpt lat="43.06254422097" lon="-5.39362075395">
        <ele>1482.3</ele>
        <time>2012-12-18T12:09:02+01:00</time>
      </trkpt>
      <trkpt lat="43.06256382132" lon="-5.3936149825">
        <ele>1482.4</ele>
        <time>2012-12-18T12:09:04+01:00</time>
      </trkpt>
      <trkpt lat="43.0625774612" lon="-5.39360663354">
        <ele>1481.94</ele>
        <time>2012-12-18T12:09:34+01:00</time>
      </trkpt>
      <trkpt lat="43.0626120436" lon="-5.39361524296">
        <ele>1481.76</ele>
        <time>2012-12-18T12:09:36+01:00</time>
      </trkpt>
      <trkpt lat="43.0626311306" lon="-5.39359235558">
        <ele>1480.68</ele>
        <time>2012-12-18T12:09:57+01:00</time>
      </trkpt>
      <trkpt lat="43.06262356297" lon="-5.39358094511">
        <ele>1480</ele>
        <time>2012-12-18T12:10:06+01:00</time>
      </trkpt>
      <trkpt lat="43.06261039142" lon="-5.39356585215">
        <ele>1480.09</ele>
        <time>2012-12-18T12:10:19+01:00</time>
      </trkpt>
      <trkpt lat="43.06260749009" lon="-5.39356098171">
        <ele>1480.1</ele>
        <time>2012-12-18T12:10:23+01:00</time>
      </trkpt>
      <trkpt lat="43.0626057591" lon="-5.39355700886">
        <ele>1479.77</ele>
        <time>2012-12-18T12:10:27+01:00</time>
      </trkpt>
      <trkpt lat="43.06258359413" lon="-5.39350426316">
        <ele>1479.5</ele>
        <time>2012-12-18T12:10:32+01:00</time>
      </trkpt>
      <trkpt lat="43.06255057355" lon="-5.39344785089">
        <ele>1478.88</ele>
        <time>2012-12-18T12:10:39+01:00</time>
      </trkpt>
      <trkpt lat="43.0625711268" lon="-5.39347183948">
        <ele>1477.63</ele>
        <time>2012-12-18T12:11:05+01:00</time>
      </trkpt>
      <trkpt lat="43.06258163781" lon="-5.39348623744">
        <ele>1477.14</ele>
        <time>2012-12-18T12:11:10+01:00</time>
      </trkpt>
      <trkpt lat="43.06259732211" lon="-5.39352135925">
        <ele>1476.61</ele>
        <time>2012-12-18T12:11:17+01:00</time>
      </trkpt>
      <trkpt lat="43.06259345202" lon="-5.3935191779">
        <ele>1476.7</ele>
        <time>2012-12-18T12:12:24+01:00</time>
      </trkpt>
      <trkpt lat="43.06258778545" lon="-5.39351506054">
        <ele>1476.27</ele>
        <time>2012-12-18T12:12:25+01:00</time>
      </trkpt>
      <trkpt lat="43.06258076609" lon="-5.39350998866">
        <ele>1475.93</ele>
        <time>2012-12-18T12:12:26+01:00</time>
      </trkpt>
      <trkpt lat="43.06257168263" lon="-5.39350477018">
        <ele>1475.64</ele>
        <time>2012-12-18T12:12:28+01:00</time>
      </trkpt>
      <trkpt lat="43.06256064929" lon="-5.39349887494">
        <ele>1475.4</ele>
        <time>2012-12-18T12:12:31+01:00</time>
      </trkpt>
      <trkpt lat="43.06252357211" lon="-5.39348315901">
        <ele>1475.07</ele>
        <time>2012-12-18T12:13:05+01:00</time>
      </trkpt>
      <trkpt lat="43.062506215" lon="-5.39345134141">
        <ele>1473.35</ele>
        <time>2012-12-18T12:13:27+01:00</time>
      </trkpt>
      <trkpt lat="43.06251533998" lon="-5.39347519213">
        <ele>1473.11</ele>
        <time>2012-12-18T12:14:46+01:00</time>
      </trkpt>
      <trkpt lat="43.06251281637" lon="-5.39351948546">
        <ele>1473.78</ele>
        <time>2012-12-18T12:14:55+01:00</time>
      </trkpt>
      <trkpt lat="43.06249772691" lon="-5.39355442116">
        <ele>1473.79</ele>
        <time>2012-12-18T12:14:58+01:00</time>
      </trkpt>
      <trkpt lat="43.06248589148" lon="-5.3935863603">
        <ele>1473.54</ele>
        <time>2012-12-18T12:15:02+01:00</time>
      </trkpt>
      <trkpt lat="43.0624734594" lon="-5.39362492845">
        <ele>1473.65</ele>
        <time>2012-12-18T12:15:05+01:00</time>
      </trkpt>
      <trkpt lat="43.06246052344" lon="-5.3936672582">
        <ele>1473.92</ele>
        <time>2012-12-18T12:15:10+01:00</time>
      </trkpt>
      <trkpt lat="43.06243886182" lon="-5.39369276445">
        <ele>1473.92</ele>
        <time>2012-12-18T12:15:14+01:00</time>
      </trkpt>
      <trkpt lat="43.06242428625" lon="-5.39372232156">
        <ele>1473.82</ele>
        <time>2012-12-18T12:15:18+01:00</time>
      </trkpt>
      <trkpt lat="43.06240608165" lon="-5.39374277869">
        <ele>1473.77</ele>
        <time>2012-12-18T12:15:23+01:00</time>
      </trkpt>
      <trkpt lat="43.06239846202" lon="-5.39377249207">
        <ele>1474.03</ele>
        <time>2012-12-18T12:15:27+01:00</time>
      </trkpt>
      <trkpt lat="43.06238590751" lon="-5.39379875248">
        <ele>1474.34</ele>
        <time>2012-12-18T12:15:31+01:00</time>
      </trkpt>
      <trkpt lat="43.06237243308" lon="-5.3938249258">
        <ele>1475.17</ele>
        <time>2012-12-18T12:15:40+01:00</time>
      </trkpt>
      <trkpt lat="43.06235291832" lon="-5.3938509565">
        <ele>1476.09</ele>
        <time>2012-12-18T12:15:46+01:00</time>
      </trkpt>
      <trkpt lat="43.06233942496" lon="-5.39388026432">
        <ele>1477.03</ele>
        <time>2012-12-18T12:15:53+01:00</time>
      </trkpt>
      <trkpt lat="43.06232943807" lon="-5.39391442607">
        <ele>1477.87</ele>
        <time>2012-12-18T12:15:55+01:00</time>
      </trkpt>
      <trkpt lat="43.06232131058" lon="-5.39394409437">
        <ele>1478.57</ele>
        <time>2012-12-18T12:15:57+01:00</time>
      </trkpt>
      <trkpt lat="43.06232566527" lon="-5.3939810079">
        <ele>1479.71</ele>
        <time>2012-12-18T12:16:06+01:00</time>
      </trkpt>
      <trkpt lat="43.06234541264" lon="-5.39401593023">
        <ele>1480.63</ele>
        <time>2012-12-18T12:16:08+01:00</time>
      </trkpt>
      <trkpt lat="43.06236579404" lon="-5.39405925327">
        <ele>1481.68</ele>
        <time>2012-12-18T12:16:10+01:00</time>
      </trkpt>
      <trkpt lat="43.06237243384" lon="-5.39410349181">
        <ele>1482.5</ele>
        <time>2012-12-18T12:16:12+01:00</time>
      </trkpt>
      <trkpt lat="43.06235657709" lon="-5.39412541708">
        <ele>1483.78</ele>
        <time>2012-12-18T12:16:53+01:00</time>
      </trkpt>
      <trkpt lat="43.06233024804" lon="-5.39412481843">
        <ele>1484.76</ele>
        <time>2012-12-18T12:17:08+01:00</time>
      </trkpt>
      <trkpt lat="43.06230189107" lon="-5.39411495174">
        <ele>1485.34</ele>
        <time>2012-12-18T12:17:23+01:00</time>
      </trkpt>
      <trkpt lat="43.06226001666" lon="-5.39412958056">
        <ele>1485.74</ele>
        <time>2012-12-18T12:17:26+01:00</time>
      </trkpt>
      <trkpt lat="43.06221049151" lon="-5.39414854485">
        <ele>1486.54</ele>
        <time>2012-12-18T12:17:28+01:00</time>
      </trkpt>
      <trkpt lat="43.06217362909" lon="-5.39416303928">
        <ele>1487.16</ele>
        <time>2012-12-18T12:17:29+01:00</time>
      </trkpt>
      <trkpt lat="43.06214278548" lon="-5.39417037282">
        <ele>1487.69</ele>
        <time>2012-12-18T12:17:30+01:00</time>
      </trkpt>
      <trkpt lat="43.06211054467" lon="-5.39417849901">
        <ele>1488.46</ele>
        <time>2012-12-18T12:17:31+01:00</time>
      </trkpt>
      <trkpt lat="43.06207895623" lon="-5.39418542204">
        <ele>1489.45</ele>
        <time>2012-12-18T12:17:32+01:00</time>
      </trkpt>
      <trkpt lat="43.06204505675" lon="-5.39419871234">
        <ele>1490.47</ele>
        <time>2012-12-18T12:17:33+01:00</time>
      </trkpt>
      <trkpt lat="43.06201424541" lon="-5.39420275711">
        <ele>1491.6</ele>
        <time>2012-12-18T12:17:34+01:00</time>
      </trkpt>
      <trkpt lat="43.06198325254" lon="-5.39421296841">
        <ele>1492.8</ele>
        <time>2012-12-18T12:17:35+01:00</time>
      </trkpt>
      <trkpt lat="43.06195325991" lon="-5.39422447531">
        <ele>1494.18</ele>
        <time>2012-12-18T12:17:36+01:00</time>
      </trkpt>
      <trkpt lat="43.06192117964" lon="-5.39423490476">
        <ele>1495.47</ele>
        <time>2012-12-18T12:17:37+01:00</time>
      </trkpt>
      <trkpt lat="43.06188896603" lon="-5.39424379317">
        <ele>1496.79</ele>
        <time>2012-12-18T12:17:38+01:00</time>
      </trkpt>
      <trkpt lat="43.06185873818" lon="-5.39425448884">
        <ele>1498.21</ele>
        <time>2012-12-18T12:17:39+01:00</time>
      </trkpt>
      <trkpt lat="43.06182874662" lon="-5.39426438455">
        <ele>1499.73</ele>
        <time>2012-12-18T12:17:40+01:00</time>
      </trkpt>
      <trkpt lat="43.06179783573" lon="-5.39427155996">
        <ele>1501.26</ele>
        <time>2012-12-18T12:17:41+01:00</time>
      </trkpt>
      <trkpt lat="43.06176792674" lon="-5.39427951947">
        <ele>1502.76</ele>
        <time>2012-12-18T12:17:42+01:00</time>
      </trkpt>
      <trkpt lat="43.06173909863" lon="-5.39429034856">
        <ele>1504.41</ele>
        <time>2012-12-18T12:17:43+01:00</time>
      </trkpt>
      <trkpt lat="43.06171090666" lon="-5.39429920149">
        <ele>1505.89</ele>
        <time>2012-12-18T12:17:44+01:00</time>
      </trkpt>
      <trkpt lat="43.06168630601" lon="-5.39430568811">
        <ele>1507.26</ele>
        <time>2012-12-18T12:17:45+01:00</time>
      </trkpt>
      <trkpt lat="43.06165425471" lon="-5.39431620006">
        <ele>1508.38</ele>
        <time>2012-12-18T12:17:46+01:00</time>
      </trkpt>
      <trkpt lat="43.06162400537" lon="-5.39432758614">
        <ele>1509.83</ele>
        <time>2012-12-18T12:17:47+01:00</time>
      </trkpt>
      <trkpt lat="43.06159616162" lon="-5.39433800351">
        <ele>1511.03</ele>
        <time>2012-12-18T12:17:48+01:00</time>
      </trkpt>
      <trkpt lat="43.06156674794" lon="-5.39434530653">
        <ele>1512.38</ele>
        <time>2012-12-18T12:17:49+01:00</time>
      </trkpt>
      <trkpt lat="43.06153672464" lon="-5.39435727697">
        <ele>1513.69</ele>
        <time>2012-12-18T12:17:50+01:00</time>
      </trkpt>
      <trkpt lat="43.06150615004" lon="-5.39436730015">
        <ele>1514.99</ele>
        <time>2012-12-18T12:17:51+01:00</time>
      </trkpt>
      <trkpt lat="43.06147661415" lon="-5.39437373395">
        <ele>1516.3</ele>
        <time>2012-12-18T12:17:52+01:00</time>
      </trkpt>
      <trkpt lat="43.06144552251" lon="-5.39438214735">
        <ele>1517.67</ele>
        <time>2012-12-18T12:17:53+01:00</time>
      </trkpt>
      <trkpt lat="43.06141495423" lon="-5.39438970259">
        <ele>1518.95</ele>
        <time>2012-12-18T12:17:54+01:00</time>
      </trkpt>
      <trkpt lat="43.06138489091" lon="-5.39439800183">
        <ele>1520.26</ele>
        <time>2012-12-18T12:17:55+01:00</time>
      </trkpt>
      <trkpt lat="43.06135423688" lon="-5.39440381061">
        <ele>1521.68</ele>
        <time>2012-12-18T12:17:56+01:00</time>
      </trkpt>
      <trkpt lat="43.06132310886" lon="-5.39441216151">
        <ele>1523.27</ele>
        <time>2012-12-18T12:17:57+01:00</time>
      </trkpt>
      <trkpt lat="43.06129242379" lon="-5.3944217473">
        <ele>1524.97</ele>
        <time>2012-12-18T12:17:58+01:00</time>
      </trkpt>
      <trkpt lat="43.06126276369" lon="-5.39442926891">
        <ele>1526.58</ele>
        <time>2012-12-18T12:17:59+01:00</time>
      </trkpt>
      <trkpt lat="43.06123248944" lon="-5.39443688585">
        <ele>1528.2</ele>
        <time>2012-12-18T12:18:00+01:00</time>
      </trkpt>
      <trkpt lat="43.06120204062" lon="-5.39444624738">
        <ele>1530.06</ele>
        <time>2012-12-18T12:18:01+01:00</time>
      </trkpt>
      <trkpt lat="43.06117327168" lon="-5.39445608511">
        <ele>1531.8</ele>
        <time>2012-12-18T12:18:02+01:00</time>
      </trkpt>
      <trkpt lat="43.06114357688" lon="-5.39446355648">
        <ele>1533.47</ele>
        <time>2012-12-18T12:18:03+01:00</time>
      </trkpt>
      <trkpt lat="43.06111326145" lon="-5.39447147014">
        <ele>1535.19</ele>
        <time>2012-12-18T12:18:04+01:00</time>
      </trkpt>
      <trkpt lat="43.06108216729" lon="-5.39448025785">
        <ele>1536.86</ele>
        <time>2012-12-18T12:18:05+01:00</time>
      </trkpt>
      <trkpt lat="43.06105265488" lon="-5.39449124519">
        <ele>1538.66</ele>
        <time>2012-12-18T12:18:06+01:00</time>
      </trkpt>
      <trkpt lat="43.06102224452" lon="-5.39449905783">
        <ele>1540.32</ele>
        <time>2012-12-18T12:18:07+01:00</time>
      </trkpt>
      <trkpt lat="43.06099295137" lon="-5.39450647756">
        <ele>1541.89</ele>
        <time>2012-12-18T12:18:08+01:00</time>
      </trkpt>
      <trkpt lat="43.06096161997" lon="-5.39451808248">
        <ele>1543.91</ele>
        <time>2012-12-18T12:18:09+01:00</time>
      </trkpt>
      <trkpt lat="43.06093389433" lon="-5.39452731475">
        <ele>1545.67</ele>
        <time>2012-12-18T12:18:10+01:00</time>
      </trkpt>
      <trkpt lat="43.06090188988" lon="-5.3945412886">
        <ele>1547.22</ele>
        <time>2012-12-18T12:18:11+01:00</time>
      </trkpt>
      <trkpt lat="43.06087172066" lon="-5.39454955076">
        <ele>1548.78</ele>
        <time>2012-12-18T12:18:12+01:00</time>
      </trkpt>
      <trkpt lat="43.06084045253" lon="-5.39456033468">
        <ele>1550.31</ele>
        <time>2012-12-18T12:18:13+01:00</time>
      </trkpt>
      <trkpt lat="43.06081013064" lon="-5.39457008834">
        <ele>1551.8</ele>
        <time>2012-12-18T12:18:14+01:00</time>
      </trkpt>
      <trkpt lat="43.06077956389" lon="-5.39457762673">
        <ele>1552.94</ele>
        <time>2012-12-18T12:18:15+01:00</time>
      </trkpt>
      <trkpt lat="43.06074953845" lon="-5.3945855471">
        <ele>1554.39</ele>
        <time>2012-12-18T12:18:16+01:00</time>
      </trkpt>
      <trkpt lat="43.06071937854" lon="-5.39459380741">
        <ele>1555.73</ele>
        <time>2012-12-18T12:18:17+01:00</time>
      </trkpt>
      <trkpt lat="43.06068909202" lon="-5.39460029123">
        <ele>1557.01</ele>
        <time>2012-12-18T12:18:18+01:00</time>
      </trkpt>
      <trkpt lat="43.060658906" lon="-5.39460787983">
        <ele>1558.31</ele>
        <time>2012-12-18T12:18:19+01:00</time>
      </trkpt>
      <trkpt lat="43.06062929582" lon="-5.39461535259">
        <ele>1559.61</ele>
        <time>2012-12-18T12:18:20+01:00</time>
      </trkpt>
      <trkpt lat="43.06059940374" lon="-5.3946240962">
        <ele>1560.91</ele>
        <time>2012-12-18T12:18:21+01:00</time>
      </trkpt>
      <trkpt lat="43.06056974751" lon="-5.3946303266">
        <ele>1562.21</ele>
        <time>2012-12-18T12:18:22+01:00</time>
      </trkpt>
      <trkpt lat="43.06054083151" lon="-5.39463706005">
        <ele>1563.51</ele>
        <time>2012-12-18T12:18:23+01:00</time>
      </trkpt>
      <trkpt lat="43.06051221585" lon="-5.39464550342">
        <ele>1564.77</ele>
        <time>2012-12-18T12:18:24+01:00</time>
      </trkpt>
      <trkpt lat="43.06048302673" lon="-5.39465426865">
        <ele>1566.04</ele>
        <time>2012-12-18T12:18:25+01:00</time>
      </trkpt>
      <trkpt lat="43.06045411973" lon="-5.39466178364">
        <ele>1567.26</ele>
        <time>2012-12-18T12:18:26+01:00</time>
      </trkpt>
      <trkpt lat="43.06042584443" lon="-5.39467083323">
        <ele>1568.52</ele>
        <time>2012-12-18T12:18:27+01:00</time>
      </trkpt>
      <trkpt lat="43.06039763231" lon="-5.3946807152">
        <ele>1569.78</ele>
        <time>2012-12-18T12:18:28+01:00</time>
      </trkpt>
      <trkpt lat="43.06036969053" lon="-5.39469083129">
        <ele>1571</ele>
        <time>2012-12-18T12:18:29+01:00</time>
      </trkpt>
      <trkpt lat="43.06034071967" lon="-5.39469908487">
        <ele>1572.27</ele>
        <time>2012-12-18T12:18:30+01:00</time>
      </trkpt>
      <trkpt lat="43.06031258887" lon="-5.39470851006">
        <ele>1573.51</ele>
        <time>2012-12-18T12:18:31+01:00</time>
      </trkpt>
      <trkpt lat="43.06028442891" lon="-5.39471842959">
        <ele>1574.75</ele>
        <time>2012-12-18T12:18:32+01:00</time>
      </trkpt>
      <trkpt lat="43.06025615288" lon="-5.39472734245">
        <ele>1575.93</ele>
        <time>2012-12-18T12:18:33+01:00</time>
      </trkpt>
      <trkpt lat="43.06022775209" lon="-5.3947363055">
        <ele>1577.17</ele>
        <time>2012-12-18T12:18:34+01:00</time>
      </trkpt>
      <trkpt lat="43.06020024407" lon="-5.39474534902">
        <ele>1578.29</ele>
        <time>2012-12-18T12:18:35+01:00</time>
      </trkpt>
      <trkpt lat="43.06017286305" lon="-5.39475500408">
        <ele>1579.57</ele>
        <time>2012-12-18T12:18:36+01:00</time>
      </trkpt>
      <trkpt lat="43.06014443861" lon="-5.3947635133">
        <ele>1580.77</ele>
        <time>2012-12-18T12:18:37+01:00</time>
      </trkpt>
      <trkpt lat="43.06011655103" lon="-5.394771229">
        <ele>1582.02</ele>
        <time>2012-12-18T12:18:38+01:00</time>
      </trkpt>
      <trkpt lat="43.0600916592" lon="-5.39477780923">
        <ele>1583.13</ele>
        <time>2012-12-18T12:18:39+01:00</time>
      </trkpt>
      <trkpt lat="43.06006808534" lon="-5.39478276717">
        <ele>1584.24</ele>
        <time>2012-12-18T12:18:40+01:00</time>
      </trkpt>
      <trkpt lat="43.06003630747" lon="-5.39479088211">
        <ele>1585.17</ele>
        <time>2012-12-18T12:18:41+01:00</time>
      </trkpt>
      <trkpt lat="43.06000751878" lon="-5.3947975777">
        <ele>1586.15</ele>
        <time>2012-12-18T12:18:42+01:00</time>
      </trkpt>
      <trkpt lat="43.05997933075" lon="-5.39480624359">
        <ele>1587.08</ele>
        <time>2012-12-18T12:18:43+01:00</time>
      </trkpt>
      <trkpt lat="43.0599483739" lon="-5.39481623808">
        <ele>1587.93</ele>
        <time>2012-12-18T12:18:44+01:00</time>
      </trkpt>
      <trkpt lat="43.0599151788" lon="-5.39482606367">
        <ele>1588.71</ele>
        <time>2012-12-18T12:18:45+01:00</time>
      </trkpt>
      <trkpt lat="43.05988368353" lon="-5.39483723024">
        <ele>1589.55</ele>
        <time>2012-12-18T12:18:46+01:00</time>
      </trkpt>
      <trkpt lat="43.05985183017" lon="-5.39484739935">
        <ele>1590.39</ele>
        <time>2012-12-18T12:18:47+01:00</time>
      </trkpt>
      <trkpt lat="43.05981933751" lon="-5.39485656347">
        <ele>1591.36</ele>
        <time>2012-12-18T12:18:48+01:00</time>
      </trkpt>
      <trkpt lat="43.05978753529" lon="-5.39486547622">
        <ele>1592.06</ele>
        <time>2012-12-18T12:18:49+01:00</time>
      </trkpt>
      <trkpt lat="43.05975538721" lon="-5.39487557083">
        <ele>1592.87</ele>
        <time>2012-12-18T12:18:50+01:00</time>
      </trkpt>
      <trkpt lat="43.05972422295" lon="-5.39488487837">
        <ele>1593.64</ele>
        <time>2012-12-18T12:18:51+01:00</time>
      </trkpt>
      <trkpt lat="43.05969330794" lon="-5.39489342828">
        <ele>1594.35</ele>
        <time>2012-12-18T12:18:52+01:00</time>
      </trkpt>
      <trkpt lat="43.05966132402" lon="-5.39490310941">
        <ele>1595.12</ele>
        <time>2012-12-18T12:18:53+01:00</time>
      </trkpt>
      <trkpt lat="43.05963066651" lon="-5.39491350716">
        <ele>1595.8</ele>
        <time>2012-12-18T12:18:54+01:00</time>
      </trkpt>
      <trkpt lat="43.05959953815" lon="-5.39492292046">
        <ele>1596.46</ele>
        <time>2012-12-18T12:18:55+01:00</time>
      </trkpt>
      <trkpt lat="43.05956904163" lon="-5.39493102832">
        <ele>1597.17</ele>
        <time>2012-12-18T12:18:56+01:00</time>
      </trkpt>
      <trkpt lat="43.05953883462" lon="-5.39494021262">
        <ele>1597.83</ele>
        <time>2012-12-18T12:18:57+01:00</time>
      </trkpt>
      <trkpt lat="43.05950926005" lon="-5.39494988176">
        <ele>1598.45</ele>
        <time>2012-12-18T12:18:58+01:00</time>
      </trkpt>
      <trkpt lat="43.05947933382" lon="-5.39495846783">
        <ele>1599.08</ele>
        <time>2012-12-18T12:18:59+01:00</time>
      </trkpt>
      <trkpt lat="43.05943058857" lon="-5.39496958588">
        <ele>1599.63</ele>
        <time>2012-12-18T12:19:01+01:00</time>
      </trkpt>
      <trkpt lat="43.05939833037" lon="-5.39497809053">
        <ele>1600.08</ele>
        <time>2012-12-18T12:19:02+01:00</time>
      </trkpt>
      <trkpt lat="43.05937107783" lon="-5.3949844479">
        <ele>1600.45</ele>
        <time>2012-12-18T12:19:03+01:00</time>
      </trkpt>
      <trkpt lat="43.0593428171" lon="-5.39499126948">
        <ele>1600.67</ele>
        <time>2012-12-18T12:19:04+01:00</time>
      </trkpt>
      <trkpt lat="43.05931102317" lon="-5.39500070235">
        <ele>1600.96</ele>
        <time>2012-12-18T12:19:05+01:00</time>
      </trkpt>
      <trkpt lat="43.05927947942" lon="-5.39500979284">
        <ele>1601.21</ele>
        <time>2012-12-18T12:19:06+01:00</time>
      </trkpt>
      <trkpt lat="43.05924811156" lon="-5.39501877367">
        <ele>1601.34</ele>
        <time>2012-12-18T12:19:07+01:00</time>
      </trkpt>
      <trkpt lat="43.05921702532" lon="-5.3950278944">
        <ele>1601.52</ele>
        <time>2012-12-18T12:19:08+01:00</time>
      </trkpt>
      <trkpt lat="43.05918592952" lon="-5.39503687824">
        <ele>1601.69</ele>
        <time>2012-12-18T12:19:09+01:00</time>
      </trkpt>
      <trkpt lat="43.0591538898" lon="-5.39504667821">
        <ele>1601.85</ele>
        <time>2012-12-18T12:19:10+01:00</time>
      </trkpt>
      <trkpt lat="43.059121982" lon="-5.39505550367">
        <ele>1601.98</ele>
        <time>2012-12-18T12:19:11+01:00</time>
      </trkpt>
      <trkpt lat="43.05909370838" lon="-5.39506196856">
        <ele>1602.05</ele>
        <time>2012-12-18T12:19:12+01:00</time>
      </trkpt>
      <trkpt lat="43.05906289384" lon="-5.39507340256">
        <ele>1602.25</ele>
        <time>2012-12-18T12:19:13+01:00</time>
      </trkpt>
      <trkpt lat="43.05903374886" lon="-5.39508088268">
        <ele>1602.52</ele>
        <time>2012-12-18T12:19:14+01:00</time>
      </trkpt>
      <trkpt lat="43.05900311121" lon="-5.39509023052">
        <ele>1602.62</ele>
        <time>2012-12-18T12:19:15+01:00</time>
      </trkpt>
      <trkpt lat="43.05897360674" lon="-5.39509938795">
        <ele>1602.75</ele>
        <time>2012-12-18T12:19:16+01:00</time>
      </trkpt>
      <trkpt lat="43.05894293314" lon="-5.39510935615">
        <ele>1602.79</ele>
        <time>2012-12-18T12:19:17+01:00</time>
      </trkpt>
      <trkpt lat="43.05891161458" lon="-5.39511865105">
        <ele>1602.84</ele>
        <time>2012-12-18T12:19:18+01:00</time>
      </trkpt>
      <trkpt lat="43.0588806087" lon="-5.39512833125">
        <ele>1602.9</ele>
        <time>2012-12-18T12:19:19+01:00</time>
      </trkpt>
      <trkpt lat="43.0588494455" lon="-5.39513835173">
        <ele>1602.87</ele>
        <time>2012-12-18T12:19:20+01:00</time>
      </trkpt>
      <trkpt lat="43.05881770079" lon="-5.39514667118">
        <ele>1602.84</ele>
        <time>2012-12-18T12:19:21+01:00</time>
      </trkpt>
      <trkpt lat="43.0587862374" lon="-5.39515549946">
        <ele>1602.81</ele>
        <time>2012-12-18T12:19:22+01:00</time>
      </trkpt>
      <trkpt lat="43.05875457583" lon="-5.39516573649">
        <ele>1602.68</ele>
        <time>2012-12-18T12:19:23+01:00</time>
      </trkpt>
      <trkpt lat="43.058722819" lon="-5.39517460565">
        <ele>1602.62</ele>
        <time>2012-12-18T12:19:24+01:00</time>
      </trkpt>
      <trkpt lat="43.05869007196" lon="-5.39518341347">
        <ele>1602.49</ele>
        <time>2012-12-18T12:19:25+01:00</time>
      </trkpt>
      <trkpt lat="43.05865847061" lon="-5.3951939502">
        <ele>1602.4</ele>
        <time>2012-12-18T12:19:26+01:00</time>
      </trkpt>
      <trkpt lat="43.05862694612" lon="-5.39520488614">
        <ele>1602.36</ele>
        <time>2012-12-18T12:19:27+01:00</time>
      </trkpt>
      <trkpt lat="43.0585962214" lon="-5.39521593743">
        <ele>1602.35</ele>
        <time>2012-12-18T12:19:28+01:00</time>
      </trkpt>
      <trkpt lat="43.0585664819" lon="-5.39522586871">
        <ele>1602.36</ele>
        <time>2012-12-18T12:19:29+01:00</time>
      </trkpt>
      <trkpt lat="43.05854281658" lon="-5.395234664">
        <ele>1602.32</ele>
        <time>2012-12-18T12:19:30+01:00</time>
      </trkpt>
      <trkpt lat="43.05851486074" lon="-5.39523988674">
        <ele>1602.58</ele>
        <time>2012-12-18T12:19:31+01:00</time>
      </trkpt>
      <trkpt lat="43.05849124451" lon="-5.39524636855">
        <ele>1602.64</ele>
        <time>2012-12-18T12:19:32+01:00</time>
      </trkpt>
      <trkpt lat="43.05846263077" lon="-5.39525712531">
        <ele>1603.32</ele>
        <time>2012-12-18T12:19:33+01:00</time>
      </trkpt>
      <trkpt lat="43.05843698738" lon="-5.39526491489">
        <ele>1603.81</ele>
        <time>2012-12-18T12:19:34+01:00</time>
      </trkpt>
      <trkpt lat="43.05841032088" lon="-5.39527286037">
        <ele>1604.39</ele>
        <time>2012-12-18T12:19:35+01:00</time>
      </trkpt>
      <trkpt lat="43.05838185473" lon="-5.39528316">
        <ele>1605.03</ele>
        <time>2012-12-18T12:19:36+01:00</time>
      </trkpt>
      <trkpt lat="43.05835320862" lon="-5.39529437397">
        <ele>1605.89</ele>
        <time>2012-12-18T12:19:37+01:00</time>
      </trkpt>
      <trkpt lat="43.05832409189" lon="-5.39530598113">
        <ele>1606.72</ele>
        <time>2012-12-18T12:19:38+01:00</time>
      </trkpt>
      <trkpt lat="43.05829564474" lon="-5.39531657149">
        <ele>1607.57</ele>
        <time>2012-12-18T12:19:39+01:00</time>
      </trkpt>
      <trkpt lat="43.05826718913" lon="-5.39532788997">
        <ele>1608.46</ele>
        <time>2012-12-18T12:19:40+01:00</time>
      </trkpt>
      <trkpt lat="43.05823782741" lon="-5.39534079001">
        <ele>1609.49</ele>
        <time>2012-12-18T12:19:41+01:00</time>
      </trkpt>
      <trkpt lat="43.0582098084" lon="-5.39535203772">
        <ele>1610.55</ele>
        <time>2012-12-18T12:19:42+01:00</time>
      </trkpt>
      <trkpt lat="43.058181207" lon="-5.39536485524">
        <ele>1611.69</ele>
        <time>2012-12-18T12:19:43+01:00</time>
      </trkpt>
      <trkpt lat="43.05815273595" lon="-5.39537541576">
        <ele>1612.82</ele>
        <time>2012-12-18T12:19:44+01:00</time>
      </trkpt>
      <trkpt lat="43.05812401391" lon="-5.39538748564">
        <ele>1614.01</ele>
        <time>2012-12-18T12:19:45+01:00</time>
      </trkpt>
      <trkpt lat="43.05809492731" lon="-5.39539978188">
        <ele>1615.23</ele>
        <time>2012-12-18T12:19:46+01:00</time>
      </trkpt>
      <trkpt lat="43.05806610599" lon="-5.39541149727">
        <ele>1616.53</ele>
        <time>2012-12-18T12:19:47+01:00</time>
      </trkpt>
      <trkpt lat="43.05803802786" lon="-5.39542368263">
        <ele>1617.84</ele>
        <time>2012-12-18T12:19:48+01:00</time>
      </trkpt>
      <trkpt lat="43.05800945827" lon="-5.39543402905">
        <ele>1619.16</ele>
        <time>2012-12-18T12:19:49+01:00</time>
      </trkpt>
      <trkpt lat="43.05798166934" lon="-5.3954450214">
        <ele>1620.49</ele>
        <time>2012-12-18T12:19:50+01:00</time>
      </trkpt>
      <trkpt lat="43.05795433566" lon="-5.39545389066">
        <ele>1621.85</ele>
        <time>2012-12-18T12:19:51+01:00</time>
      </trkpt>
      <trkpt lat="43.05792734925" lon="-5.39546450897">
        <ele>1623.23</ele>
        <time>2012-12-18T12:19:52+01:00</time>
      </trkpt>
      <trkpt lat="43.05789937917" lon="-5.39547424607">
        <ele>1624.55</ele>
        <time>2012-12-18T12:19:53+01:00</time>
      </trkpt>
      <trkpt lat="43.05787108442" lon="-5.39548366874">
        <ele>1625.82</ele>
        <time>2012-12-18T12:19:54+01:00</time>
      </trkpt>
      <trkpt lat="43.05784351156" lon="-5.39549253191">
        <ele>1627.25</ele>
        <time>2012-12-18T12:19:55+01:00</time>
      </trkpt>
      <trkpt lat="43.05781525653" lon="-5.39550141456">
        <ele>1628.69</ele>
        <time>2012-12-18T12:19:56+01:00</time>
      </trkpt>
      <trkpt lat="43.05778666925" lon="-5.39551112897">
        <ele>1630.06</ele>
        <time>2012-12-18T12:19:57+01:00</time>
      </trkpt>
      <trkpt lat="43.05775910486" lon="-5.39551987043">
        <ele>1631.46</ele>
        <time>2012-12-18T12:19:58+01:00</time>
      </trkpt>
      <trkpt lat="43.0577315296" lon="-5.39552896723">
        <ele>1632.91</ele>
        <time>2012-12-18T12:19:59+01:00</time>
      </trkpt>
      <trkpt lat="43.05770395326" lon="-5.39553719431">
        <ele>1634.39</ele>
        <time>2012-12-18T12:20:00+01:00</time>
      </trkpt>
      <trkpt lat="43.05767648997" lon="-5.39554548529">
        <ele>1635.88</ele>
        <time>2012-12-18T12:20:01+01:00</time>
      </trkpt>
      <trkpt lat="43.05764915114" lon="-5.3955538581">
        <ele>1637.39</ele>
        <time>2012-12-18T12:20:02+01:00</time>
      </trkpt>
      <trkpt lat="43.0576221265" lon="-5.39556193735">
        <ele>1638.97</ele>
        <time>2012-12-18T12:20:03+01:00</time>
      </trkpt>
      <trkpt lat="43.05759577449" lon="-5.39556908199">
        <ele>1640.57</ele>
        <time>2012-12-18T12:20:04+01:00</time>
      </trkpt>
      <trkpt lat="43.0575687731" lon="-5.39557749104">
        <ele>1642.18</ele>
        <time>2012-12-18T12:20:05+01:00</time>
      </trkpt>
      <trkpt lat="43.0575425743" lon="-5.3955833108">
        <ele>1643.94</ele>
        <time>2012-12-18T12:20:06+01:00</time>
      </trkpt>
      <trkpt lat="43.05751687065" lon="-5.39558939969">
        <ele>1645.61</ele>
        <time>2012-12-18T12:20:07+01:00</time>
      </trkpt>
      <trkpt lat="43.0574967492" lon="-5.39559456773">
        <ele>1647.1</ele>
        <time>2012-12-18T12:20:08+01:00</time>
      </trkpt>
      <trkpt lat="43.05747344653" lon="-5.39560123398">
        <ele>1648.49</ele>
        <time>2012-12-18T12:20:09+01:00</time>
      </trkpt>
      <trkpt lat="43.05744610035" lon="-5.39560401631">
        <ele>1649.65</ele>
        <time>2012-12-18T12:20:10+01:00</time>
      </trkpt>
      <trkpt lat="43.05740672215" lon="-5.39561110327">
        <ele>1650.63</ele>
        <time>2012-12-18T12:20:12+01:00</time>
      </trkpt>
      <trkpt lat="43.05736896963" lon="-5.39561775212">
        <ele>1651.75</ele>
        <time>2012-12-18T12:20:13+01:00</time>
      </trkpt>
      <trkpt lat="43.05734097906" lon="-5.39562294323">
        <ele>1652.82</ele>
        <time>2012-12-18T12:20:14+01:00</time>
      </trkpt>
      <trkpt lat="43.05730970249" lon="-5.39562949731">
        <ele>1653.63</ele>
        <time>2012-12-18T12:20:15+01:00</time>
      </trkpt>
      <trkpt lat="43.05727677717" lon="-5.39563777187">
        <ele>1654.49</ele>
        <time>2012-12-18T12:20:16+01:00</time>
      </trkpt>
      <trkpt lat="43.05724425275" lon="-5.39564538867">
        <ele>1655.26</ele>
        <time>2012-12-18T12:20:17+01:00</time>
      </trkpt>
      <trkpt lat="43.05721150439" lon="-5.39565354319">
        <ele>1656.04</ele>
        <time>2012-12-18T12:20:18+01:00</time>
      </trkpt>
      <trkpt lat="43.05717809242" lon="-5.3956622041">
        <ele>1656.76</ele>
        <time>2012-12-18T12:20:19+01:00</time>
      </trkpt>
      <trkpt lat="43.05714699036" lon="-5.39567016128">
        <ele>1657.39</ele>
        <time>2012-12-18T12:20:20+01:00</time>
      </trkpt>
      <trkpt lat="43.05711623244" lon="-5.39567895334">
        <ele>1657.97</ele>
        <time>2012-12-18T12:20:21+01:00</time>
      </trkpt>
      <trkpt lat="43.05708422651" lon="-5.39568737625">
        <ele>1658.61</ele>
        <time>2012-12-18T12:20:22+01:00</time>
      </trkpt>
      <trkpt lat="43.05705258612" lon="-5.39569636576">
        <ele>1659.31</ele>
        <time>2012-12-18T12:20:23+01:00</time>
      </trkpt>
      <trkpt lat="43.05702188753" lon="-5.39570390317">
        <ele>1659.86</ele>
        <time>2012-12-18T12:20:24+01:00</time>
      </trkpt>
      <trkpt lat="43.05698988754" lon="-5.39571333218">
        <ele>1660.45</ele>
        <time>2012-12-18T12:20:25+01:00</time>
      </trkpt>
      <trkpt lat="43.05695783283" lon="-5.39572189424">
        <ele>1660.97</ele>
        <time>2012-12-18T12:20:26+01:00</time>
      </trkpt>
      <trkpt lat="43.05692633844" lon="-5.39573135027">
        <ele>1661.46</ele>
        <time>2012-12-18T12:20:27+01:00</time>
      </trkpt>
      <trkpt lat="43.05689554129" lon="-5.39573983959">
        <ele>1661.87</ele>
        <time>2012-12-18T12:20:28+01:00</time>
      </trkpt>
      <trkpt lat="43.0568640595" lon="-5.39575004273">
        <ele>1662.41</ele>
        <time>2012-12-18T12:20:29+01:00</time>
      </trkpt>
      <trkpt lat="43.05683258468" lon="-5.39576177511">
        <ele>1662.92</ele>
        <time>2012-12-18T12:20:30+01:00</time>
      </trkpt>
      <trkpt lat="43.05680171405" lon="-5.39577003944">
        <ele>1663.25</ele>
        <time>2012-12-18T12:20:31+01:00</time>
      </trkpt>
      <trkpt lat="43.05677022491" lon="-5.39577939027">
        <ele>1663.73</ele>
        <time>2012-12-18T12:20:32+01:00</time>
      </trkpt>
      <trkpt lat="43.05673765552" lon="-5.39579005674">
        <ele>1664.16</ele>
        <time>2012-12-18T12:20:33+01:00</time>
      </trkpt>
      <trkpt lat="43.05670622281" lon="-5.39579964778">
        <ele>1664.51</ele>
        <time>2012-12-18T12:20:34+01:00</time>
      </trkpt>
      <trkpt lat="43.05667479062" lon="-5.39580807516">
        <ele>1664.97</ele>
        <time>2012-12-18T12:20:35+01:00</time>
      </trkpt>
      <trkpt lat="43.05664407513" lon="-5.39581676336">
        <ele>1665.47</ele>
        <time>2012-12-18T12:20:36+01:00</time>
      </trkpt>
      <trkpt lat="43.05661252606" lon="-5.39582668464">
        <ele>1665.96</ele>
        <time>2012-12-18T12:20:37+01:00</time>
      </trkpt>
      <trkpt lat="43.05658130854" lon="-5.39583733272">
        <ele>1666.4</ele>
        <time>2012-12-18T12:20:38+01:00</time>
      </trkpt>
      <trkpt lat="43.05655001102" lon="-5.39584563949">
        <ele>1666.86</ele>
        <time>2012-12-18T12:20:39+01:00</time>
      </trkpt>
      <trkpt lat="43.05651927128" lon="-5.39585642787">
        <ele>1667.4</ele>
        <time>2012-12-18T12:20:40+01:00</time>
      </trkpt>
      <trkpt lat="43.05648964344" lon="-5.39586505042">
        <ele>1667.93</ele>
        <time>2012-12-18T12:20:41+01:00</time>
      </trkpt>
      <trkpt lat="43.05645858032" lon="-5.39587685106">
        <ele>1668.42</ele>
        <time>2012-12-18T12:20:42+01:00</time>
      </trkpt>
      <trkpt lat="43.05642929733" lon="-5.39588625377">
        <ele>1668.9</ele>
        <time>2012-12-18T12:20:43+01:00</time>
      </trkpt>
      <trkpt lat="43.05640060725" lon="-5.39589285182">
        <ele>1669.49</ele>
        <time>2012-12-18T12:20:44+01:00</time>
      </trkpt>
      <trkpt lat="43.05637095806" lon="-5.39590233777">
        <ele>1670.05</ele>
        <time>2012-12-18T12:20:45+01:00</time>
      </trkpt>
      <trkpt lat="43.05633951563" lon="-5.3959078126">
        <ele>1670.59</ele>
        <time>2012-12-18T12:20:46+01:00</time>
      </trkpt>
      <trkpt lat="43.0563134385" lon="-5.39591243368">
        <ele>1671.11</ele>
        <time>2012-12-18T12:20:47+01:00</time>
      </trkpt>
      <trkpt lat="43.056267379" lon="-5.39592360787">
        <ele>1671.53</ele>
        <time>2012-12-18T12:20:49+01:00</time>
      </trkpt>
      <trkpt lat="43.05623569112" lon="-5.39593317424">
        <ele>1672.11</ele>
        <time>2012-12-18T12:20:50+01:00</time>
      </trkpt>
      <trkpt lat="43.05621064556" lon="-5.39593865711">
        <ele>1672.51</ele>
        <time>2012-12-18T12:20:51+01:00</time>
      </trkpt>
      <trkpt lat="43.05618351078" lon="-5.3959485596">
        <ele>1672.91</ele>
        <time>2012-12-18T12:20:52+01:00</time>
      </trkpt>
      <trkpt lat="43.0561519426" lon="-5.39596011104">
        <ele>1673.29</ele>
        <time>2012-12-18T12:20:53+01:00</time>
      </trkpt>
      <trkpt lat="43.05612094949" lon="-5.39596971515">
        <ele>1673.68</ele>
        <time>2012-12-18T12:20:54+01:00</time>
      </trkpt>
      <trkpt lat="43.05608956125" lon="-5.39597882277">
        <ele>1674.04</ele>
        <time>2012-12-18T12:20:55+01:00</time>
      </trkpt>
      <trkpt lat="43.05605900103" lon="-5.39598848424">
        <ele>1674.43</ele>
        <time>2012-12-18T12:20:56+01:00</time>
      </trkpt>
      <trkpt lat="43.05602874992" lon="-5.39599691866">
        <ele>1674.75</ele>
        <time>2012-12-18T12:20:57+01:00</time>
      </trkpt>
      <trkpt lat="43.05599792623" lon="-5.39600658825">
        <ele>1675.04</ele>
        <time>2012-12-18T12:20:58+01:00</time>
      </trkpt>
      <trkpt lat="43.05596776193" lon="-5.39601577785">
        <ele>1675.35</ele>
        <time>2012-12-18T12:20:59+01:00</time>
      </trkpt>
      <trkpt lat="43.05593785217" lon="-5.39602537208">
        <ele>1675.59</ele>
        <time>2012-12-18T12:21:00+01:00</time>
      </trkpt>
      <trkpt lat="43.05590796785" lon="-5.39603395065">
        <ele>1675.85</ele>
        <time>2012-12-18T12:21:01+01:00</time>
      </trkpt>
      <trkpt lat="43.05587801065" lon="-5.39604280485">
        <ele>1676.07</ele>
        <time>2012-12-18T12:21:02+01:00</time>
      </trkpt>
      <trkpt lat="43.0558475181" lon="-5.39605379884">
        <ele>1676.31</ele>
        <time>2012-12-18T12:21:03+01:00</time>
      </trkpt>
      <trkpt lat="43.05581734919" lon="-5.39606372439">
        <ele>1676.54</ele>
        <time>2012-12-18T12:21:04+01:00</time>
      </trkpt>
      <trkpt lat="43.0557875144" lon="-5.39607331677">
        <ele>1676.71</ele>
        <time>2012-12-18T12:21:05+01:00</time>
      </trkpt>
      <trkpt lat="43.05575650603" lon="-5.39608166885">
        <ele>1676.81</ele>
        <time>2012-12-18T12:21:06+01:00</time>
      </trkpt>
      <trkpt lat="43.05572530486" lon="-5.39609095302">
        <ele>1676.77</ele>
        <time>2012-12-18T12:21:07+01:00</time>
      </trkpt>
      <trkpt lat="43.05569782158" lon="-5.39609767913">
        <ele>1676.81</ele>
        <time>2012-12-18T12:21:08+01:00</time>
      </trkpt>
      <trkpt lat="43.05566304716" lon="-5.39610635904">
        <ele>1677</ele>
        <time>2012-12-18T12:21:09+01:00</time>
      </trkpt>
      <trkpt lat="43.05563063958" lon="-5.3961138655">
        <ele>1677.1</ele>
        <time>2012-12-18T12:21:10+01:00</time>
      </trkpt>
      <trkpt lat="43.05559877044" lon="-5.39612223529">
        <ele>1677.18</ele>
        <time>2012-12-18T12:21:11+01:00</time>
      </trkpt>
      <trkpt lat="43.05556842616" lon="-5.39613069142">
        <ele>1677.16</ele>
        <time>2012-12-18T12:21:12+01:00</time>
      </trkpt>
      <trkpt lat="43.05553706509" lon="-5.39613855269">
        <ele>1677.27</ele>
        <time>2012-12-18T12:21:13+01:00</time>
      </trkpt>
      <trkpt lat="43.05550575321" lon="-5.39614786321">
        <ele>1677.3</ele>
        <time>2012-12-18T12:21:14+01:00</time>
      </trkpt>
      <trkpt lat="43.0554749366" lon="-5.39615739409">
        <ele>1677.4</ele>
        <time>2012-12-18T12:21:15+01:00</time>
      </trkpt>
      <trkpt lat="43.05544401864" lon="-5.39616626808">
        <ele>1677.44</ele>
        <time>2012-12-18T12:21:16+01:00</time>
      </trkpt>
      <trkpt lat="43.05541343001" lon="-5.39617469919">
        <ele>1677.66</ele>
        <time>2012-12-18T12:21:17+01:00</time>
      </trkpt>
      <trkpt lat="43.05538291203" lon="-5.39618429301">
        <ele>1677.76</ele>
        <time>2012-12-18T12:21:18+01:00</time>
      </trkpt>
      <trkpt lat="43.05535194849" lon="-5.39619377679">
        <ele>1677.83</ele>
        <time>2012-12-18T12:21:19+01:00</time>
      </trkpt>
      <trkpt lat="43.05532199652" lon="-5.39620309869">
        <ele>1678.04</ele>
        <time>2012-12-18T12:21:20+01:00</time>
      </trkpt>
      <trkpt lat="43.05529210799" lon="-5.39621210265">
        <ele>1678.28</ele>
        <time>2012-12-18T12:21:21+01:00</time>
      </trkpt>
      <trkpt lat="43.05526150915" lon="-5.39622145201">
        <ele>1678.38</ele>
        <time>2012-12-18T12:21:22+01:00</time>
      </trkpt>
      <trkpt lat="43.05523019806" lon="-5.39623091134">
        <ele>1678.51</ele>
        <time>2012-12-18T12:21:23+01:00</time>
      </trkpt>
      <trkpt lat="43.05519979643" lon="-5.39623947642">
        <ele>1678.68</ele>
        <time>2012-12-18T12:21:24+01:00</time>
      </trkpt>
      <trkpt lat="43.0551685805" lon="-5.39624749945">
        <ele>1678.93</ele>
        <time>2012-12-18T12:21:25+01:00</time>
      </trkpt>
      <trkpt lat="43.05513615158" lon="-5.39625659984">
        <ele>1679.1</ele>
        <time>2012-12-18T12:21:26+01:00</time>
      </trkpt>
      <trkpt lat="43.05510446889" lon="-5.39626535534">
        <ele>1679.26</ele>
        <time>2012-12-18T12:21:27+01:00</time>
      </trkpt>
      <trkpt lat="43.05507255907" lon="-5.39627467985">
        <ele>1679.48</ele>
        <time>2012-12-18T12:21:28+01:00</time>
      </trkpt>
      <trkpt lat="43.05503983446" lon="-5.39628564544">
        <ele>1679.57</ele>
        <time>2012-12-18T12:21:29+01:00</time>
      </trkpt>
      <trkpt lat="43.05501100876" lon="-5.39629352685">
        <ele>1679.7</ele>
        <time>2012-12-18T12:21:30+01:00</time>
      </trkpt>
      <trkpt lat="43.05497370691" lon="-5.39630465437">
        <ele>1679.74</ele>
        <time>2012-12-18T12:21:31+01:00</time>
      </trkpt>
      <trkpt lat="43.0549416878" lon="-5.39631255646">
        <ele>1679.78</ele>
        <time>2012-12-18T12:21:32+01:00</time>
      </trkpt>
      <trkpt lat="43.05491470178" lon="-5.39631835507">
        <ele>1679.8</ele>
        <time>2012-12-18T12:21:33+01:00</time>
      </trkpt>
      <trkpt lat="43.05488700871" lon="-5.39632192878">
        <ele>1679.78</ele>
        <time>2012-12-18T12:21:34+01:00</time>
      </trkpt>
      <trkpt lat="43.05485971067" lon="-5.39632204002">
        <ele>1679.69</ele>
        <time>2012-12-18T12:21:35+01:00</time>
      </trkpt>
      <trkpt lat="43.05482719428" lon="-5.39632347043">
        <ele>1679.4</ele>
        <time>2012-12-18T12:21:37+01:00</time>
      </trkpt>
      <trkpt lat="43.05480258609" lon="-5.3963300597">
        <ele>1679.2</ele>
        <time>2012-12-18T12:21:39+01:00</time>
      </trkpt>
      <trkpt lat="43.05478029715" lon="-5.39635196351">
        <ele>1678.8</ele>
        <time>2012-12-18T12:21:42+01:00</time>
      </trkpt>
      <trkpt lat="43.05475476324" lon="-5.39637861776">
        <ele>1678.91</ele>
        <time>2012-12-18T12:21:53+01:00</time>
      </trkpt>
      <trkpt lat="43.05473176639" lon="-5.39639523905">
        <ele>1678.6</ele>
        <time>2012-12-18T12:21:54+01:00</time>
      </trkpt>
      <trkpt lat="43.05471000393" lon="-5.39640836763">
        <ele>1678.26</ele>
        <time>2012-12-18T12:21:55+01:00</time>
      </trkpt>
      <trkpt lat="43.05468802543" lon="-5.39642235392">
        <ele>1677.95</ele>
        <time>2012-12-18T12:21:56+01:00</time>
      </trkpt>
      <trkpt lat="43.05466647796" lon="-5.39643838736">
        <ele>1677.75</ele>
        <time>2012-12-18T12:21:57+01:00</time>
      </trkpt>
      <trkpt lat="43.05463660007" lon="-5.39646601651">
        <ele>1677.57</ele>
        <time>2012-12-18T12:21:59+01:00</time>
      </trkpt>
      <trkpt lat="43.05461607315" lon="-5.39648545103">
        <ele>1677.37</ele>
        <time>2012-12-18T12:22:02+01:00</time>
      </trkpt>
      <trkpt lat="43.05459104985" lon="-5.39651274136">
        <ele>1677.15</ele>
        <time>2012-12-18T12:22:06+01:00</time>
      </trkpt>
      <trkpt lat="43.05457421446" lon="-5.39654428737">
        <ele>1677.09</ele>
        <time>2012-12-18T12:22:08+01:00</time>
      </trkpt>
      <trkpt lat="43.05455812243" lon="-5.396566603">
        <ele>1676.97</ele>
        <time>2012-12-18T12:22:10+01:00</time>
      </trkpt>
      <trkpt lat="43.05454187843" lon="-5.39659033415">
        <ele>1676.9</ele>
        <time>2012-12-18T12:22:12+01:00</time>
      </trkpt>
      <trkpt lat="43.05452294121" lon="-5.39661669627">
        <ele>1676.96</ele>
        <time>2012-12-18T12:22:15+01:00</time>
      </trkpt>
      <trkpt lat="43.05450546639" lon="-5.39663734565">
        <ele>1676.9</ele>
        <time>2012-12-18T12:22:18+01:00</time>
      </trkpt>
      <trkpt lat="43.05448082707" lon="-5.39666130366">
        <ele>1676.87</ele>
        <time>2012-12-18T12:22:20+01:00</time>
      </trkpt>
      <trkpt lat="43.05444826372" lon="-5.39669779704">
        <ele>1676.79</ele>
        <time>2012-12-18T12:22:22+01:00</time>
      </trkpt>
      <trkpt lat="43.0544287884" lon="-5.39671864605">
        <ele>1676.72</ele>
        <time>2012-12-18T12:22:23+01:00</time>
      </trkpt>
      <trkpt lat="43.05439821248" lon="-5.39675844951">
        <ele>1676.54</ele>
        <time>2012-12-18T12:22:25+01:00</time>
      </trkpt>
      <trkpt lat="43.05437320269" lon="-5.39679139772">
        <ele>1676.52</ele>
        <time>2012-12-18T12:22:27+01:00</time>
      </trkpt>
      <trkpt lat="43.05435512394" lon="-5.39682222709">
        <ele>1676.61</ele>
        <time>2012-12-18T12:22:30+01:00</time>
      </trkpt>
      <trkpt lat="43.05434184962" lon="-5.39685193933">
        <ele>1676.6</ele>
        <time>2012-12-18T12:22:32+01:00</time>
      </trkpt>
      <trkpt lat="43.05432852769" lon="-5.39688546259">
        <ele>1676.51</ele>
        <time>2012-12-18T12:22:34+01:00</time>
      </trkpt>
      <trkpt lat="43.05431327734" lon="-5.39692472299">
        <ele>1676.63</ele>
        <time>2012-12-18T12:22:36+01:00</time>
      </trkpt>
      <trkpt lat="43.05429560876" lon="-5.39696267118">
        <ele>1676.61</ele>
        <time>2012-12-18T12:22:38+01:00</time>
      </trkpt>
      <trkpt lat="43.05427728345" lon="-5.3969943023">
        <ele>1676.53</ele>
        <time>2012-12-18T12:22:40+01:00</time>
      </trkpt>
      <trkpt lat="43.05425598814" lon="-5.39703088406">
        <ele>1676.54</ele>
        <time>2012-12-18T12:22:42+01:00</time>
      </trkpt>
      <trkpt lat="43.05423699841" lon="-5.39707527828">
        <ele>1676.46</ele>
        <time>2012-12-18T12:22:44+01:00</time>
      </trkpt>
      <trkpt lat="43.05422065887" lon="-5.39712032929">
        <ele>1676.43</ele>
        <time>2012-12-18T12:22:46+01:00</time>
      </trkpt>
      <trkpt lat="43.05420487482" lon="-5.3971610178">
        <ele>1676.29</ele>
        <time>2012-12-18T12:22:48+01:00</time>
      </trkpt>
      <trkpt lat="43.05417764779" lon="-5.39718507749">
        <ele>1676.18</ele>
        <time>2012-12-18T12:23:10+01:00</time>
      </trkpt>
      <trkpt lat="43.05415361409" lon="-5.39722180736">
        <ele>1676.09</ele>
        <time>2012-12-18T12:23:12+01:00</time>
      </trkpt>
      <trkpt lat="43.05412944711" lon="-5.39725331664">
        <ele>1675.9</ele>
        <time>2012-12-18T12:23:14+01:00</time>
      </trkpt>
      <trkpt lat="43.0541042484" lon="-5.39728332319">
        <ele>1675.81</ele>
        <time>2012-12-18T12:23:16+01:00</time>
      </trkpt>
      <trkpt lat="43.05408426484" lon="-5.39730706905">
        <ele>1675.68</ele>
        <time>2012-12-18T12:23:18+01:00</time>
      </trkpt>
      <trkpt lat="43.0540648405" lon="-5.39732966079">
        <ele>1675.6</ele>
        <time>2012-12-18T12:23:21+01:00</time>
      </trkpt>
      <trkpt lat="43.05403660823" lon="-5.39735213711">
        <ele>1675.36</ele>
        <time>2012-12-18T12:23:24+01:00</time>
      </trkpt>
      <trkpt lat="43.05400704254" lon="-5.39737641239">
        <ele>1675.23</ele>
        <time>2012-12-18T12:23:26+01:00</time>
      </trkpt>
      <trkpt lat="43.05397666458" lon="-5.39741014632">
        <ele>1675.05</ele>
        <time>2012-12-18T12:23:28+01:00</time>
      </trkpt>
      <trkpt lat="43.05394790272" lon="-5.39744150689">
        <ele>1674.95</ele>
        <time>2012-12-18T12:23:30+01:00</time>
      </trkpt>
      <trkpt lat="43.05392514885" lon="-5.39747941947">
        <ele>1674.78</ele>
        <time>2012-12-18T12:23:32+01:00</time>
      </trkpt>
      <trkpt lat="43.05390748429" lon="-5.39751979773">
        <ele>1674.64</ele>
        <time>2012-12-18T12:23:34+01:00</time>
      </trkpt>
      <trkpt lat="43.05389591101" lon="-5.39755091749">
        <ele>1674.58</ele>
        <time>2012-12-18T12:23:36+01:00</time>
      </trkpt>
      <trkpt lat="43.05387261288" lon="-5.39757485011">
        <ele>1674.63</ele>
        <time>2012-12-18T12:24:08+01:00</time>
      </trkpt>
      <trkpt lat="43.05385587458" lon="-5.39759821489">
        <ele>1674.43</ele>
        <time>2012-12-18T12:24:10+01:00</time>
      </trkpt>
      <trkpt lat="43.05383964138" lon="-5.3976243895">
        <ele>1674.42</ele>
        <time>2012-12-18T12:24:12+01:00</time>
      </trkpt>
      <trkpt lat="43.05382629613" lon="-5.39765166068">
        <ele>1674.33</ele>
        <time>2012-12-18T12:24:14+01:00</time>
      </trkpt>
      <trkpt lat="43.053811827" lon="-5.39768804698">
        <ele>1674.24</ele>
        <time>2012-12-18T12:24:17+01:00</time>
      </trkpt>
      <trkpt lat="43.05381656593" lon="-5.39772110609">
        <ele>1674.14</ele>
        <time>2012-12-18T12:24:24+01:00</time>
      </trkpt>
      <trkpt lat="43.05384325423" lon="-5.39773580301">
        <ele>1674.03</ele>
        <time>2012-12-18T12:24:28+01:00</time>
      </trkpt>
      <trkpt lat="43.05386881823" lon="-5.39774074281">
        <ele>1673.89</ele>
        <time>2012-12-18T12:24:32+01:00</time>
      </trkpt>
      <trkpt lat="43.05389415664" lon="-5.3977414631">
        <ele>1673.86</ele>
        <time>2012-12-18T12:24:38+01:00</time>
      </trkpt>
      <trkpt lat="43.05391932162" lon="-5.39773753696">
        <ele>1673.76</ele>
        <time>2012-12-18T12:24:41+01:00</time>
      </trkpt>
      <trkpt lat="43.05394028249" lon="-5.39774830904">
        <ele>1673.65</ele>
        <time>2012-12-18T12:24:43+01:00</time>
      </trkpt>
      <trkpt lat="43.05395626081" lon="-5.39776918196">
        <ele>1673.57</ele>
        <time>2012-12-18T12:24:45+01:00</time>
      </trkpt>
      <trkpt lat="43.05396155326" lon="-5.3978068444">
        <ele>1673.59</ele>
        <time>2012-12-18T12:24:49+01:00</time>
      </trkpt>
      <trkpt lat="43.05394329867" lon="-5.39782351039">
        <ele>1673.39</ele>
        <time>2012-12-18T12:24:56+01:00</time>
      </trkpt>
      <trkpt lat="43.05393253391" lon="-5.39785512553">
        <ele>1673.32</ele>
        <time>2012-12-18T12:25:00+01:00</time>
      </trkpt>
      <trkpt lat="43.0539143332" lon="-5.39788642509">
        <ele>1673.01</ele>
        <time>2012-12-18T12:25:04+01:00</time>
      </trkpt>
      <trkpt lat="43.05390014144" lon="-5.39791844747">
        <ele>1673.02</ele>
        <time>2012-12-18T12:25:08+01:00</time>
      </trkpt>
      <trkpt lat="43.05389207385" lon="-5.39794778072">
        <ele>1673.09</ele>
        <time>2012-12-18T12:25:10+01:00</time>
      </trkpt>
      <trkpt lat="43.05388160904" lon="-5.39798764436">
        <ele>1673.07</ele>
        <time>2012-12-18T12:25:12+01:00</time>
      </trkpt>
      <trkpt lat="43.05387140899" lon="-5.39802226231">
        <ele>1673.08</ele>
        <time>2012-12-18T12:25:13+01:00</time>
      </trkpt>
      <trkpt lat="43.05385601822" lon="-5.39806600753">
        <ele>1673.11</ele>
        <time>2012-12-18T12:25:15+01:00</time>
      </trkpt>
      <trkpt lat="43.05383697773" lon="-5.39811888813">
        <ele>1673.23</ele>
        <time>2012-12-18T12:25:17+01:00</time>
      </trkpt>
      <trkpt lat="43.05382247568" lon="-5.39816053688">
        <ele>1673.44</ele>
        <time>2012-12-18T12:25:19+01:00</time>
      </trkpt>
      <trkpt lat="43.0538117467" lon="-5.39819231175">
        <ele>1673.69</ele>
        <time>2012-12-18T12:25:20+01:00</time>
      </trkpt>
      <trkpt lat="43.05379600734" lon="-5.39823610692">
        <ele>1673.89</ele>
        <time>2012-12-18T12:25:22+01:00</time>
      </trkpt>
      <trkpt lat="43.05377596155" lon="-5.3982852332">
        <ele>1674.07</ele>
        <time>2012-12-18T12:25:24+01:00</time>
      </trkpt>
      <trkpt lat="43.05375756905" lon="-5.39833140239">
        <ele>1674.56</ele>
        <time>2012-12-18T12:25:26+01:00</time>
      </trkpt>
      <trkpt lat="43.05374111653" lon="-5.39837651077">
        <ele>1674.9</ele>
        <time>2012-12-18T12:25:28+01:00</time>
      </trkpt>
      <trkpt lat="43.05372619194" lon="-5.39842147405">
        <ele>1675.17</ele>
        <time>2012-12-18T12:25:30+01:00</time>
      </trkpt>
      <trkpt lat="43.05370597383" lon="-5.39846714591">
        <ele>1675.46</ele>
        <time>2012-12-18T12:25:32+01:00</time>
      </trkpt>
      <trkpt lat="43.05368268536" lon="-5.39851349594">
        <ele>1675.73</ele>
        <time>2012-12-18T12:25:34+01:00</time>
      </trkpt>
      <trkpt lat="43.0536668033" lon="-5.39854229801">
        <ele>1676.13</ele>
        <time>2012-12-18T12:25:36+01:00</time>
      </trkpt>
      <trkpt lat="43.05364622656" lon="-5.39857631271">
        <ele>1676.13</ele>
        <time>2012-12-18T12:25:38+01:00</time>
      </trkpt>
      <trkpt lat="43.053622892" lon="-5.39863215704">
        <ele>1677.04</ele>
        <time>2012-12-18T12:25:40+01:00</time>
      </trkpt>
      <trkpt lat="43.05361503997" lon="-5.39867819462">
        <ele>1677.65</ele>
        <time>2012-12-18T12:25:43+01:00</time>
      </trkpt>
      <trkpt lat="43.05360803809" lon="-5.39872703178">
        <ele>1678.26</ele>
        <time>2012-12-18T12:25:46+01:00</time>
      </trkpt>
      <trkpt lat="43.05359952986" lon="-5.39877039388">
        <ele>1678.92</ele>
        <time>2012-12-18T12:25:48+01:00</time>
      </trkpt>
      <trkpt lat="43.05358817226" lon="-5.39881621489">
        <ele>1679.63</ele>
        <time>2012-12-18T12:25:50+01:00</time>
      </trkpt>
      <trkpt lat="43.05357440077" lon="-5.39885897376">
        <ele>1680.22</ele>
        <time>2012-12-18T12:25:52+01:00</time>
      </trkpt>
      <trkpt lat="43.05356074999" lon="-5.39890152254">
        <ele>1680.98</ele>
        <time>2012-12-18T12:25:54+01:00</time>
      </trkpt>
      <trkpt lat="43.05354846447" lon="-5.39894376107">
        <ele>1680.93</ele>
        <time>2012-12-18T12:25:56+01:00</time>
      </trkpt>
      <trkpt lat="43.05354114527" lon="-5.39897313886">
        <ele>1681.35</ele>
        <time>2012-12-18T12:25:58+01:00</time>
      </trkpt>
      <trkpt lat="43.05352446049" lon="-5.39903365557">
        <ele>1681.74</ele>
        <time>2012-12-18T12:26:00+01:00</time>
      </trkpt>
      <trkpt lat="43.05351129994" lon="-5.39908317573">
        <ele>1682.76</ele>
        <time>2012-12-18T12:26:02+01:00</time>
      </trkpt>
      <trkpt lat="43.0534980731" lon="-5.39912861903">
        <ele>1683.16</ele>
        <time>2012-12-18T12:26:04+01:00</time>
      </trkpt>
      <trkpt lat="43.05348369307" lon="-5.39917344813">
        <ele>1683.63</ele>
        <time>2012-12-18T12:26:06+01:00</time>
      </trkpt>
      <trkpt lat="43.05346888124" lon="-5.39921714856">
        <ele>1684.06</ele>
        <time>2012-12-18T12:26:08+01:00</time>
      </trkpt>
      <trkpt lat="43.0534534466" lon="-5.39926115969">
        <ele>1684.64</ele>
        <time>2012-12-18T12:26:10+01:00</time>
      </trkpt>
      <trkpt lat="43.05344254863" lon="-5.39928996277">
        <ele>1685.01</ele>
        <time>2012-12-18T12:26:12+01:00</time>
      </trkpt>
      <trkpt lat="43.0534144513" lon="-5.39935357365">
        <ele>1684.9</ele>
        <time>2012-12-18T12:26:14+01:00</time>
      </trkpt>
      <trkpt lat="43.05340398215" lon="-5.39937388832">
        <ele>1685.11</ele>
        <time>2012-12-18T12:26:15+01:00</time>
      </trkpt>
      <trkpt lat="43.05338145818" lon="-5.39942829447">
        <ele>1685.41</ele>
        <time>2012-12-18T12:26:17+01:00</time>
      </trkpt>
      <trkpt lat="43.05336803504" lon="-5.39947551964">
        <ele>1685.69</ele>
        <time>2012-12-18T12:26:19+01:00</time>
      </trkpt>
      <trkpt lat="43.05335301225" lon="-5.39952137566">
        <ele>1686.12</ele>
        <time>2012-12-18T12:26:21+01:00</time>
      </trkpt>
      <trkpt lat="43.05333585904" lon="-5.39956648846">
        <ele>1686.48</ele>
        <time>2012-12-18T12:26:23+01:00</time>
      </trkpt>
      <trkpt lat="43.05332076079" lon="-5.39960917274">
        <ele>1686.85</ele>
        <time>2012-12-18T12:26:25+01:00</time>
      </trkpt>
      <trkpt lat="43.05330536945" lon="-5.39965331593">
        <ele>1687.32</ele>
        <time>2012-12-18T12:26:27+01:00</time>
      </trkpt>
      <trkpt lat="43.05329095885" lon="-5.39969808616">
        <ele>1687.88</ele>
        <time>2012-12-18T12:26:29+01:00</time>
      </trkpt>
      <trkpt lat="43.05327892369" lon="-5.39974291476">
        <ele>1688.53</ele>
        <time>2012-12-18T12:26:31+01:00</time>
      </trkpt>
      <trkpt lat="43.05326826887" lon="-5.3997880903">
        <ele>1689.18</ele>
        <time>2012-12-18T12:26:33+01:00</time>
      </trkpt>
      <trkpt lat="43.0532552079" lon="-5.39983346934">
        <ele>1689.77</ele>
        <time>2012-12-18T12:26:35+01:00</time>
      </trkpt>
      <trkpt lat="43.05324357678" lon="-5.39987754797">
        <ele>1690.43</ele>
        <time>2012-12-18T12:26:37+01:00</time>
      </trkpt>
      <trkpt lat="43.05322985117" lon="-5.39991942193">
        <ele>1690.94</ele>
        <time>2012-12-18T12:26:39+01:00</time>
      </trkpt>
      <trkpt lat="43.05322098989" lon="-5.39994435364">
        <ele>1691.4</ele>
        <time>2012-12-18T12:26:41+01:00</time>
      </trkpt>
      <trkpt lat="43.05320112685" lon="-5.40000071">
        <ele>1692.28</ele>
        <time>2012-12-18T12:26:43+01:00</time>
      </trkpt>
      <trkpt lat="43.0531892772" lon="-5.40003118197">
        <ele>1693.07</ele>
        <time>2012-12-18T12:26:45+01:00</time>
      </trkpt>
      <trkpt lat="43.05316464299" lon="-5.40009250697">
        <ele>1693.85</ele>
        <time>2012-12-18T12:26:47+01:00</time>
      </trkpt>
      <trkpt lat="43.05315049606" lon="-5.40012602847">
        <ele>1694.56</ele>
        <time>2012-12-18T12:26:48+01:00</time>
      </trkpt>
      <trkpt lat="43.05313314921" lon="-5.40016954609">
        <ele>1695.38</ele>
        <time>2012-12-18T12:26:50+01:00</time>
      </trkpt>
      <trkpt lat="43.05311610116" lon="-5.40021519705">
        <ele>1696.37</ele>
        <time>2012-12-18T12:26:52+01:00</time>
      </trkpt>
      <trkpt lat="43.05310045397" lon="-5.40026342044">
        <ele>1697.27</ele>
        <time>2012-12-18T12:26:54+01:00</time>
      </trkpt>
      <trkpt lat="43.05308619337" lon="-5.40031189009">
        <ele>1698</ele>
        <time>2012-12-18T12:26:56+01:00</time>
      </trkpt>
      <trkpt lat="43.05306929318" lon="-5.40035497752">
        <ele>1698.88</ele>
        <time>2012-12-18T12:26:58+01:00</time>
      </trkpt>
      <trkpt lat="43.05304979971" lon="-5.40040261707">
        <ele>1700.2</ele>
        <time>2012-12-18T12:27:00+01:00</time>
      </trkpt>
      <trkpt lat="43.05303793038" lon="-5.40044464697">
        <ele>1701.37</ele>
        <time>2012-12-18T12:27:02+01:00</time>
      </trkpt>
      <trkpt lat="43.05302742054" lon="-5.40048030124">
        <ele>1702.27</ele>
        <time>2012-12-18T12:27:04+01:00</time>
      </trkpt>
      <trkpt lat="43.05301492502" lon="-5.40052129499">
        <ele>1703.51</ele>
        <time>2012-12-18T12:27:06+01:00</time>
      </trkpt>
      <trkpt lat="43.05300062419" lon="-5.40056261902">
        <ele>1704.74</ele>
        <time>2012-12-18T12:27:08+01:00</time>
      </trkpt>
      <trkpt lat="43.05298096121" lon="-5.40061333191">
        <ele>1706.3</ele>
        <time>2012-12-18T12:27:10+01:00</time>
      </trkpt>
      <trkpt lat="43.0529645487" lon="-5.40065770594">
        <ele>1707.72</ele>
        <time>2012-12-18T12:27:12+01:00</time>
      </trkpt>
      <trkpt lat="43.05294789546" lon="-5.40070182327">
        <ele>1709.19</ele>
        <time>2012-12-18T12:27:14+01:00</time>
      </trkpt>
      <trkpt lat="43.05293501579" lon="-5.4007402112">
        <ele>1710.63</ele>
        <time>2012-12-18T12:27:16+01:00</time>
      </trkpt>
      <trkpt lat="43.05291812356" lon="-5.40078423272">
        <ele>1711.7</ele>
        <time>2012-12-18T12:27:18+01:00</time>
      </trkpt>
      <trkpt lat="43.05290374806" lon="-5.4008261623">
        <ele>1713.2</ele>
        <time>2012-12-18T12:27:20+01:00</time>
      </trkpt>
      <trkpt lat="43.05288887007" lon="-5.40086908166">
        <ele>1714.63</ele>
        <time>2012-12-18T12:27:22+01:00</time>
      </trkpt>
      <trkpt lat="43.05287526622" lon="-5.40091032143">
        <ele>1716.07</ele>
        <time>2012-12-18T12:27:24+01:00</time>
      </trkpt>
      <trkpt lat="43.05286010671" lon="-5.4009528346">
        <ele>1717.59</ele>
        <time>2012-12-18T12:27:26+01:00</time>
      </trkpt>
      <trkpt lat="43.05284748591" lon="-5.40099372491">
        <ele>1719.07</ele>
        <time>2012-12-18T12:27:28+01:00</time>
      </trkpt>
      <trkpt lat="43.05283366294" lon="-5.4010369058">
        <ele>1720.39</ele>
        <time>2012-12-18T12:27:30+01:00</time>
      </trkpt>
      <trkpt lat="43.05281715203" lon="-5.40107886842">
        <ele>1720.51</ele>
        <time>2012-12-18T12:27:32+01:00</time>
      </trkpt>
      <trkpt lat="43.05280087466" lon="-5.40111931335">
        <ele>1721.54</ele>
        <time>2012-12-18T12:27:34+01:00</time>
      </trkpt>
      <trkpt lat="43.05278732621" lon="-5.40115925356">
        <ele>1724.09</ele>
        <time>2012-12-18T12:27:36+01:00</time>
      </trkpt>
      <trkpt lat="43.05277425649" lon="-5.40120097038">
        <ele>1725.51</ele>
        <time>2012-12-18T12:27:38+01:00</time>
      </trkpt>
      <trkpt lat="43.05276074607" lon="-5.40124223786">
        <ele>1726.74</ele>
        <time>2012-12-18T12:27:40+01:00</time>
      </trkpt>
      <trkpt lat="43.05274671165" lon="-5.4012836837">
        <ele>1728.32</ele>
        <time>2012-12-18T12:27:42+01:00</time>
      </trkpt>
      <trkpt lat="43.05272975612" lon="-5.40132818269">
        <ele>1730.05</ele>
        <time>2012-12-18T12:27:44+01:00</time>
      </trkpt>
      <trkpt lat="43.05271359099" lon="-5.40137074421">
        <ele>1731.53</ele>
        <time>2012-12-18T12:27:46+01:00</time>
      </trkpt>
      <trkpt lat="43.05269999793" lon="-5.40141130891">
        <ele>1733.37</ele>
        <time>2012-12-18T12:27:48+01:00</time>
      </trkpt>
      <trkpt lat="43.05268530996" lon="-5.40145254713">
        <ele>1734.52</ele>
        <time>2012-12-18T12:27:50+01:00</time>
      </trkpt>
      <trkpt lat="43.05266691614" lon="-5.4014989492">
        <ele>1736.25</ele>
        <time>2012-12-18T12:27:52+01:00</time>
      </trkpt>
      <trkpt lat="43.05264526657" lon="-5.40154899919">
        <ele>1737.9</ele>
        <time>2012-12-18T12:27:54+01:00</time>
      </trkpt>
      <trkpt lat="43.0526250781" lon="-5.40159615778">
        <ele>1739.43</ele>
        <time>2012-12-18T12:27:56+01:00</time>
      </trkpt>
      <trkpt lat="43.05260541654" lon="-5.40164206754">
        <ele>1740.97</ele>
        <time>2012-12-18T12:27:58+01:00</time>
      </trkpt>
      <trkpt lat="43.05258572625" lon="-5.40168799576">
        <ele>1742.67</ele>
        <time>2012-12-18T12:28:00+01:00</time>
      </trkpt>
      <trkpt lat="43.05256696898" lon="-5.40173359239">
        <ele>1744.44</ele>
        <time>2012-12-18T12:28:02+01:00</time>
      </trkpt>
      <trkpt lat="43.05255228753" lon="-5.40177476411">
        <ele>1746.54</ele>
        <time>2012-12-18T12:28:04+01:00</time>
      </trkpt>
      <trkpt lat="43.05253808596" lon="-5.40181484969">
        <ele>1747.94</ele>
        <time>2012-12-18T12:28:06+01:00</time>
      </trkpt>
      <trkpt lat="43.05252458386" lon="-5.40185458393">
        <ele>1749.75</ele>
        <time>2012-12-18T12:28:08+01:00</time>
      </trkpt>
      <trkpt lat="43.05251031642" lon="-5.40189357734">
        <ele>1751.97</ele>
        <time>2012-12-18T12:28:10+01:00</time>
      </trkpt>
      <trkpt lat="43.05249723701" lon="-5.40193074621">
        <ele>1753.72</ele>
        <time>2012-12-18T12:28:12+01:00</time>
      </trkpt>
      <trkpt lat="43.05248496517" lon="-5.40196708079">
        <ele>1755.12</ele>
        <time>2012-12-18T12:28:14+01:00</time>
      </trkpt>
      <trkpt lat="43.05247164786" lon="-5.40200331556">
        <ele>1757.31</ele>
        <time>2012-12-18T12:28:16+01:00</time>
      </trkpt>
      <trkpt lat="43.05245932845" lon="-5.40204067031">
        <ele>1759.17</ele>
        <time>2012-12-18T12:28:18+01:00</time>
      </trkpt>
      <trkpt lat="43.05244590103" lon="-5.40207952311">
        <ele>1760.95</ele>
        <time>2012-12-18T12:28:20+01:00</time>
      </trkpt>
      <trkpt lat="43.05243305668" lon="-5.40211907785">
        <ele>1762.79</ele>
        <time>2012-12-18T12:28:22+01:00</time>
      </trkpt>
      <trkpt lat="43.05242575145" lon="-5.40214334248">
        <ele>1764.48</ele>
        <time>2012-12-18T12:28:24+01:00</time>
      </trkpt>
      <trkpt lat="43.05240921195" lon="-5.40219453835">
        <ele>1766.42</ele>
        <time>2012-12-18T12:28:26+01:00</time>
      </trkpt>
      <trkpt lat="43.05239205714" lon="-5.40224078619">
        <ele>1768.09</ele>
        <time>2012-12-18T12:28:28+01:00</time>
      </trkpt>
      <trkpt lat="43.05238081425" lon="-5.40228034472">
        <ele>1769.9</ele>
        <time>2012-12-18T12:28:30+01:00</time>
      </trkpt>
      <trkpt lat="43.05237613995" lon="-5.40230268198">
        <ele>1771.25</ele>
        <time>2012-12-18T12:28:32+01:00</time>
      </trkpt>
      <trkpt lat="43.05236900415" lon="-5.40233291944">
        <ele>1772.84</ele>
        <time>2012-12-18T12:28:34+01:00</time>
      </trkpt>
      <trkpt lat="43.05236002993" lon="-5.40236702318">
        <ele>1774.43</ele>
        <time>2012-12-18T12:28:36+01:00</time>
      </trkpt>
      <trkpt lat="43.0523504089" lon="-5.40240423353">
        <ele>1775.79</ele>
        <time>2012-12-18T12:28:38+01:00</time>
      </trkpt>
      <trkpt lat="43.05234578698" lon="-5.40244211708">
        <ele>1775.6</ele>
        <time>2012-12-18T12:28:41+01:00</time>
      </trkpt>
      <trkpt lat="43.05233840497" lon="-5.40248788095">
        <ele>1776.52</ele>
        <time>2012-12-18T12:28:45+01:00</time>
      </trkpt>
      <trkpt lat="43.05233604068" lon="-5.4024965477">
        <ele>1777.44</ele>
        <time>2012-12-18T12:28:47+01:00</time>
      </trkpt>
      <trkpt lat="43.0523319766" lon="-5.40250949427">
        <ele>1778.29</ele>
        <time>2012-12-18T12:28:49+01:00</time>
      </trkpt>
      <trkpt lat="43.05232937663" lon="-5.40251774679">
        <ele>1778.91</ele>
        <time>2012-12-18T12:28:51+01:00</time>
      </trkpt>
      <trkpt lat="43.05232639117" lon="-5.40252782465">
        <ele>1779.8</ele>
        <time>2012-12-18T12:28:53+01:00</time>
      </trkpt>
      <trkpt lat="43.05231943217" lon="-5.4025508534">
        <ele>1780.68</ele>
        <time>2012-12-18T12:28:55+01:00</time>
      </trkpt>
      <trkpt lat="43.05231183635" lon="-5.40257568641">
        <ele>1781.5</ele>
        <time>2012-12-18T12:28:57+01:00</time>
      </trkpt>
      <trkpt lat="43.05230348718" lon="-5.40260239471">
        <ele>1782.27</ele>
        <time>2012-12-18T12:28:59+01:00</time>
      </trkpt>
      <trkpt lat="43.05229893587" lon="-5.40261663465">
        <ele>1783.05</ele>
        <time>2012-12-18T12:29:01+01:00</time>
      </trkpt>
      <trkpt lat="43.0522938808" lon="-5.40263239637">
        <ele>1783.93</ele>
        <time>2012-12-18T12:29:03+01:00</time>
      </trkpt>
      <trkpt lat="43.05228849385" lon="-5.40264918049">
        <ele>1784.74</ele>
        <time>2012-12-18T12:29:05+01:00</time>
      </trkpt>
      <trkpt lat="43.05228320651" lon="-5.40266688142">
        <ele>1785.41</ele>
        <time>2012-12-18T12:29:07+01:00</time>
      </trkpt>
      <trkpt lat="43.05227302227" lon="-5.40270478795">
        <ele>1786.16</ele>
        <time>2012-12-18T12:29:10+01:00</time>
      </trkpt>
      <trkpt lat="43.05222038288" lon="-5.40289892049">
        <ele>1787.18</ele>
        <time>2012-12-18T12:29:12+01:00</time>
      </trkpt>
      <trkpt lat="43.05218651947" lon="-5.40301736062">
        <ele>1789.61</ele>
        <time>2012-12-18T12:29:14+01:00</time>
      </trkpt>
      <trkpt lat="43.05216242124" lon="-5.4030982479">
        <ele>1790.72</ele>
        <time>2012-12-18T12:29:16+01:00</time>
      </trkpt>
      <trkpt lat="43.05214525916" lon="-5.4031583471">
        <ele>1792.11</ele>
        <time>2012-12-18T12:29:18+01:00</time>
      </trkpt>
      <trkpt lat="43.05213055933" lon="-5.40320859709">
        <ele>1793.53</ele>
        <time>2012-12-18T12:29:20+01:00</time>
      </trkpt>
      <trkpt lat="43.05211765641" lon="-5.40325346147">
        <ele>1794.97</ele>
        <time>2012-12-18T12:29:22+01:00</time>
      </trkpt>
      <trkpt lat="43.05211534352" lon="-5.40326135934">
        <ele>1796.38</ele>
        <time>2012-12-18T12:29:24+01:00</time>
      </trkpt>
      <trkpt lat="43.05211209265" lon="-5.40327249074">
        <ele>1796.42</ele>
        <time>2012-12-18T12:29:27+01:00</time>
      </trkpt>
      <trkpt lat="43.05211017504" lon="-5.40327904633">
        <ele>1797.38</ele>
        <time>2012-12-18T12:29:30+01:00</time>
      </trkpt>
      <trkpt lat="43.05210586103" lon="-5.40329524028">
        <ele>1800.2</ele>
        <time>2012-12-18T12:29:33+01:00</time>
      </trkpt>
      <trkpt lat="43.05210126596" lon="-5.40331308378">
        <ele>1801.68</ele>
        <time>2012-12-18T12:29:35+01:00</time>
      </trkpt>
      <trkpt lat="43.05209595692" lon="-5.40333294831">
        <ele>1801.48</ele>
        <time>2012-12-18T12:29:37+01:00</time>
      </trkpt>
      <trkpt lat="43.05208984607" lon="-5.40335500896">
        <ele>1802.63</ele>
        <time>2012-12-18T12:29:39+01:00</time>
      </trkpt>
      <trkpt lat="43.05208334467" lon="-5.40337905449">
        <ele>1805.7</ele>
        <time>2012-12-18T12:29:41+01:00</time>
      </trkpt>
      <trkpt lat="43.05207991193" lon="-5.40339189083">
        <ele>1805.55</ele>
        <time>2012-12-18T12:29:43+01:00</time>
      </trkpt>
      <trkpt lat="43.05207581055" lon="-5.40340583717">
        <ele>1806.64</ele>
        <time>2012-12-18T12:29:44+01:00</time>
      </trkpt>
      <trkpt lat="43.05207117453" lon="-5.40342077934">
        <ele>1807.87</ele>
        <time>2012-12-18T12:29:45+01:00</time>
      </trkpt>
      <trkpt lat="43.05206611861" lon="-5.40343647895">
        <ele>1809.16</ele>
        <time>2012-12-18T12:29:46+01:00</time>
      </trkpt>
      <trkpt lat="43.05206063237" lon="-5.40345282269">
        <ele>1810.13</ele>
        <time>2012-12-18T12:29:47+01:00</time>
      </trkpt>
      <trkpt lat="43.0520547939" lon="-5.40346975322">
        <ele>1811.28</ele>
        <time>2012-12-18T12:29:48+01:00</time>
      </trkpt>
      <trkpt lat="43.05204867319" lon="-5.40348721604">
        <ele>1812.42</ele>
        <time>2012-12-18T12:29:49+01:00</time>
      </trkpt>
      <trkpt lat="43.05204223825" lon="-5.40350518873">
        <ele>1813.6</ele>
        <time>2012-12-18T12:29:50+01:00</time>
      </trkpt>
      <trkpt lat="43.05202796249" lon="-5.40354424027">
        <ele>1816.87</ele>
        <time>2012-12-18T12:29:52+01:00</time>
      </trkpt>
      <trkpt lat="43.05201327448" lon="-5.40358408052">
        <ele>1818.57</ele>
        <time>2012-12-18T12:29:54+01:00</time>
      </trkpt>
      <trkpt lat="43.05199820287" lon="-5.40362456355">
        <ele>1820.46</ele>
        <time>2012-12-18T12:29:56+01:00</time>
      </trkpt>
      <trkpt lat="43.05192367511" lon="-5.40382773386">
        <ele>1822.35</ele>
        <time>2012-12-18T12:29:58+01:00</time>
      </trkpt>
      <trkpt lat="43.05188198977" lon="-5.40394742393">
        <ele>1824.52</ele>
        <time>2012-12-18T12:30:00+01:00</time>
      </trkpt>
      <trkpt lat="43.05185150792" lon="-5.40403157649">
        <ele>1826.67</ele>
        <time>2012-12-18T12:30:02+01:00</time>
      </trkpt>
      <trkpt lat="43.05182817845" lon="-5.40409536189">
        <ele>1828.64</ele>
        <time>2012-12-18T12:30:04+01:00</time>
      </trkpt>
      <trkpt lat="43.0518093891" lon="-5.40414858654">
        <ele>1830.71</ele>
        <time>2012-12-18T12:30:06+01:00</time>
      </trkpt>
      <trkpt lat="43.05179266026" lon="-5.4041956088">
        <ele>1832.75</ele>
        <time>2012-12-18T12:30:08+01:00</time>
      </trkpt>
      <trkpt lat="43.05177631208" lon="-5.40424028423">
        <ele>1835.27</ele>
        <time>2012-12-18T12:30:10+01:00</time>
      </trkpt>
      <trkpt lat="43.05175833116" lon="-5.40428592364">
        <ele>1837.5</ele>
        <time>2012-12-18T12:30:12+01:00</time>
      </trkpt>
      <trkpt lat="43.05174014156" lon="-5.40433112302">
        <ele>1839.16</ele>
        <time>2012-12-18T12:30:14+01:00</time>
      </trkpt>
      <trkpt lat="43.05171321819" lon="-5.40440054192">
        <ele>1841.66</ele>
        <time>2012-12-18T12:30:16+01:00</time>
      </trkpt>
      <trkpt lat="43.05169800993" lon="-5.40443501166">
        <ele>1843.78</ele>
        <time>2012-12-18T12:30:17+01:00</time>
      </trkpt>
      <trkpt lat="43.05167750039" lon="-5.40448066352">
        <ele>1845.92</ele>
        <time>2012-12-18T12:30:19+01:00</time>
      </trkpt>
      <trkpt lat="43.0516578752" lon="-5.40452593666">
        <ele>1847.98</ele>
        <time>2012-12-18T12:30:21+01:00</time>
      </trkpt>
      <trkpt lat="43.05164412657" lon="-5.40456449559">
        <ele>1849.69</ele>
        <time>2012-12-18T12:30:23+01:00</time>
      </trkpt>
      <trkpt lat="43.05163164121" lon="-5.40460583563">
        <ele>1851.33</ele>
        <time>2012-12-18T12:30:25+01:00</time>
      </trkpt>
      <trkpt lat="43.05161756836" lon="-5.40465123374">
        <ele>1853.18</ele>
        <time>2012-12-18T12:30:27+01:00</time>
      </trkpt>
      <trkpt lat="43.05160378938" lon="-5.40469696222">
        <ele>1854.8</ele>
        <time>2012-12-18T12:30:29+01:00</time>
      </trkpt>
      <trkpt lat="43.05159039406" lon="-5.40473649919">
        <ele>1856.34</ele>
        <time>2012-12-18T12:30:31+01:00</time>
      </trkpt>
      <trkpt lat="43.05157584622" lon="-5.40477934236">
        <ele>1857.77</ele>
        <time>2012-12-18T12:30:33+01:00</time>
      </trkpt>
      <trkpt lat="43.05156079966" lon="-5.40482150566">
        <ele>1859.16</ele>
        <time>2012-12-18T12:30:35+01:00</time>
      </trkpt>
      <trkpt lat="43.05154786617" lon="-5.40486420354">
        <ele>1860.71</ele>
        <time>2012-12-18T12:30:37+01:00</time>
      </trkpt>
      <trkpt lat="43.05153515414" lon="-5.404906606">
        <ele>1861.94</ele>
        <time>2012-12-18T12:30:39+01:00</time>
      </trkpt>
      <trkpt lat="43.0515226205" lon="-5.40494801061">
        <ele>1863.26</ele>
        <time>2012-12-18T12:30:41+01:00</time>
      </trkpt>
      <trkpt lat="43.05150542868" lon="-5.40499283663">
        <ele>1864.69</ele>
        <time>2012-12-18T12:30:43+01:00</time>
      </trkpt>
      <trkpt lat="43.05148361718" lon="-5.40504384546">
        <ele>1866.04</ele>
        <time>2012-12-18T12:30:45+01:00</time>
      </trkpt>
      <trkpt lat="43.05146943129" lon="-5.40507516962">
        <ele>1867.26</ele>
        <time>2012-12-18T12:30:46+01:00</time>
      </trkpt>
      <trkpt lat="43.05145063497" lon="-5.40512019238">
        <ele>1868.49</ele>
        <time>2012-12-18T12:30:48+01:00</time>
      </trkpt>
      <trkpt lat="43.05143242531" lon="-5.4051660773">
        <ele>1869.62</ele>
        <time>2012-12-18T12:30:50+01:00</time>
      </trkpt>
      <trkpt lat="43.05141724988" lon="-5.40520851368">
        <ele>1870.72</ele>
        <time>2012-12-18T12:30:52+01:00</time>
      </trkpt>
      <trkpt lat="43.05139976439" lon="-5.405253479">
        <ele>1871.98</ele>
        <time>2012-12-18T12:30:54+01:00</time>
      </trkpt>
      <trkpt lat="43.05138252097" lon="-5.40529814544">
        <ele>1873.12</ele>
        <time>2012-12-18T12:30:56+01:00</time>
      </trkpt>
      <trkpt lat="43.05136797465" lon="-5.40534174628">
        <ele>1874.35</ele>
        <time>2012-12-18T12:30:58+01:00</time>
      </trkpt>
      <trkpt lat="43.05135748814" lon="-5.40537889786">
        <ele>1875.29</ele>
        <time>2012-12-18T12:31:00+01:00</time>
      </trkpt>
      <trkpt lat="43.05134576842" lon="-5.40541764297">
        <ele>1876.17</ele>
        <time>2012-12-18T12:31:02+01:00</time>
      </trkpt>
      <trkpt lat="43.05133339971" lon="-5.40546066304">
        <ele>1876.95</ele>
        <time>2012-12-18T12:31:04+01:00</time>
      </trkpt>
      <trkpt lat="43.05132355554" lon="-5.40548808495">
        <ele>1877.81</ele>
        <time>2012-12-18T12:31:06+01:00</time>
      </trkpt>
      <trkpt lat="43.05131083829" lon="-5.40552404986">
        <ele>1878.84</ele>
        <time>2012-12-18T12:31:08+01:00</time>
      </trkpt>
      <trkpt lat="43.05129597203" lon="-5.40555573673">
        <ele>1879.71</ele>
        <time>2012-12-18T12:31:09+01:00</time>
      </trkpt>
      <trkpt lat="43.05127969599" lon="-5.40558310528">
        <ele>1880.3</ele>
        <time>2012-12-18T12:31:10+01:00</time>
      </trkpt>
      <trkpt lat="43.05126217024" lon="-5.40560860804">
        <ele>1880.98</ele>
        <time>2012-12-18T12:31:11+01:00</time>
      </trkpt>
      <trkpt lat="43.05125870776" lon="-5.40561311968">
        <ele>1881.61</ele>
        <time>2012-12-18T12:31:12+01:00</time>
      </trkpt>
      <trkpt lat="43.05125347928" lon="-5.40561899065">
        <ele>1881.6</ele>
        <time>2012-12-18T12:31:13+01:00</time>
      </trkpt>
      <trkpt lat="43.05125011016" lon="-5.40562279767">
        <ele>1881.99</ele>
        <time>2012-12-18T12:31:14+01:00</time>
      </trkpt>
      <trkpt lat="43.0512445018" lon="-5.40562814939">
        <ele>1882.4</ele>
        <time>2012-12-18T12:31:16+01:00</time>
      </trkpt>
      <trkpt lat="43.05123790609" lon="-5.40563441538">
        <ele>1882.74</ele>
        <time>2012-12-18T12:31:17+01:00</time>
      </trkpt>
      <trkpt lat="43.0512299554" lon="-5.40564144933">
        <ele>1883.03</ele>
        <time>2012-12-18T12:31:18+01:00</time>
      </trkpt>
      <trkpt lat="43.05122115544" lon="-5.40564931343">
        <ele>1883.33</ele>
        <time>2012-12-18T12:31:19+01:00</time>
      </trkpt>
      <trkpt lat="43.05114082476" lon="-5.4057504254">
        <ele>1885.03</ele>
        <time>2012-12-18T12:31:21+01:00</time>
      </trkpt>
      <trkpt lat="43.05109654267" lon="-5.40587402915">
        <ele>1886.6</ele>
        <time>2012-12-18T12:31:23+01:00</time>
      </trkpt>
      <trkpt lat="43.05110371245" lon="-5.40593710549">
        <ele>1887.74</ele>
        <time>2012-12-18T12:31:25+01:00</time>
      </trkpt>
      <trkpt lat="43.05111282423" lon="-5.40598378481">
        <ele>1888.96</ele>
        <time>2012-12-18T12:31:27+01:00</time>
      </trkpt>
      <trkpt lat="43.05111571947" lon="-5.40602664829">
        <ele>1890.47</ele>
        <time>2012-12-18T12:31:29+01:00</time>
      </trkpt>
      <trkpt lat="43.05111418628" lon="-5.40606841332">
        <ele>1891.68</ele>
        <time>2012-12-18T12:31:31+01:00</time>
      </trkpt>
      <trkpt lat="43.05111538838" lon="-5.40610224731">
        <ele>1892.61</ele>
        <time>2012-12-18T12:31:33+01:00</time>
      </trkpt>
      <trkpt lat="43.05111603113" lon="-5.40614012774">
        <ele>1893.68</ele>
        <time>2012-12-18T12:31:35+01:00</time>
      </trkpt>
      <trkpt lat="43.05111106349" lon="-5.4061800915">
        <ele>1895.01</ele>
        <time>2012-12-18T12:31:37+01:00</time>
      </trkpt>
      <trkpt lat="43.05110142137" lon="-5.40622506685">
        <ele>1896.04</ele>
        <time>2012-12-18T12:31:39+01:00</time>
      </trkpt>
      <trkpt lat="43.05109027315" lon="-5.40626539702">
        <ele>1896.97</ele>
        <time>2012-12-18T12:31:41+01:00</time>
      </trkpt>
      <trkpt lat="43.05107893659" lon="-5.40630586617">
        <ele>1897.92</ele>
        <time>2012-12-18T12:31:43+01:00</time>
      </trkpt>
      <trkpt lat="43.05106546897" lon="-5.40634815971">
        <ele>1898.93</ele>
        <time>2012-12-18T12:31:45+01:00</time>
      </trkpt>
      <trkpt lat="43.05104937425" lon="-5.40639327599">
        <ele>1899.87</ele>
        <time>2012-12-18T12:31:47+01:00</time>
      </trkpt>
      <trkpt lat="43.05103577308" lon="-5.40643228915">
        <ele>1900.72</ele>
        <time>2012-12-18T12:31:49+01:00</time>
      </trkpt>
      <trkpt lat="43.051020492" lon="-5.40647742781">
        <ele>1901.45</ele>
        <time>2012-12-18T12:31:51+01:00</time>
      </trkpt>
      <trkpt lat="43.0510094211" lon="-5.40651694451">
        <ele>1902.13</ele>
        <time>2012-12-18T12:31:53+01:00</time>
      </trkpt>
      <trkpt lat="43.05099420727" lon="-5.4065605761">
        <ele>1902.47</ele>
        <time>2012-12-18T12:31:55+01:00</time>
      </trkpt>
      <trkpt lat="43.05098170978" lon="-5.40661653826">
        <ele>1902.97</ele>
        <time>2012-12-18T12:31:57+01:00</time>
      </trkpt>
      <trkpt lat="43.05097834779" lon="-5.40665517594">
        <ele>1903.38</ele>
        <time>2012-12-18T12:31:58+01:00</time>
      </trkpt>
      <trkpt lat="43.05098212292" lon="-5.40668846019">
        <ele>1903.77</ele>
        <time>2012-12-18T12:31:59+01:00</time>
      </trkpt>
      <trkpt lat="43.05098299077" lon="-5.40673033698">
        <ele>1903.92</ele>
        <time>2012-12-18T12:32:01+01:00</time>
      </trkpt>
      <trkpt lat="43.05100733059" lon="-5.40672305822">
        <ele>1904.01</ele>
        <time>2012-12-18T12:33:39+01:00</time>
      </trkpt>
      <trkpt lat="43.0510433341" lon="-5.40672655482">
        <ele>1903.98</ele>
        <time>2012-12-18T12:33:42+01:00</time>
      </trkpt>
      <trkpt lat="43.05107861804" lon="-5.40670306635">
        <ele>1903.84</ele>
        <time>2012-12-18T12:33:44+01:00</time>
      </trkpt>
      <trkpt lat="43.05110243902" lon="-5.40668223541">
        <ele>1903.89</ele>
        <time>2012-12-18T12:33:45+01:00</time>
      </trkpt>
      <trkpt lat="43.05113390214" lon="-5.40667555065">
        <ele>1903.64</ele>
        <time>2012-12-18T12:33:46+01:00</time>
      </trkpt>
      <trkpt lat="43.05115722788" lon="-5.40665519308">
        <ele>1903.45</ele>
        <time>2012-12-18T12:33:47+01:00</time>
      </trkpt>
      <trkpt lat="43.0511813995" lon="-5.40663558047">
        <ele>1903.14</ele>
        <time>2012-12-18T12:33:48+01:00</time>
      </trkpt>
      <trkpt lat="43.05120478819" lon="-5.4066193616">
        <ele>1902.9</ele>
        <time>2012-12-18T12:33:49+01:00</time>
      </trkpt>
      <trkpt lat="43.05122417585" lon="-5.40660031373">
        <ele>1902.51</ele>
        <time>2012-12-18T12:33:50+01:00</time>
      </trkpt>
      <trkpt lat="43.05124983959" lon="-5.40655699396">
        <ele>1901.98</ele>
        <time>2012-12-18T12:33:52+01:00</time>
      </trkpt>
      <trkpt lat="43.05127413186" lon="-5.40651177506">
        <ele>1901.35</ele>
        <time>2012-12-18T12:33:54+01:00</time>
      </trkpt>
      <trkpt lat="43.05130409563" lon="-5.40649133594">
        <ele>1900.53</ele>
        <time>2012-12-18T12:33:55+01:00</time>
      </trkpt>
      <trkpt lat="43.05136615928" lon="-5.40648461492">
        <ele>1899.67</ele>
        <time>2012-12-18T12:33:56+01:00</time>
      </trkpt>
      <trkpt lat="43.05142916981" lon="-5.40649948287">
        <ele>1898.81</ele>
        <time>2012-12-18T12:33:57+01:00</time>
      </trkpt>
      <trkpt lat="43.05148820141" lon="-5.40652578848">
        <ele>1897.99</ele>
        <time>2012-12-18T12:33:58+01:00</time>
      </trkpt>
      <trkpt lat="43.05154261065" lon="-5.40655263436">
        <ele>1897.46</ele>
        <time>2012-12-18T12:33:59+01:00</time>
      </trkpt>
      <trkpt lat="43.05159002709" lon="-5.40657439962">
        <ele>1896.87</ele>
        <time>2012-12-18T12:34:00+01:00</time>
      </trkpt>
      <trkpt lat="43.05164467564" lon="-5.40660456824">
        <ele>1895.92</ele>
        <time>2012-12-18T12:34:01+01:00</time>
      </trkpt>
      <trkpt lat="43.05167058395" lon="-5.40660275713">
        <ele>1895.13</ele>
        <time>2012-12-18T12:34:07+01:00</time>
      </trkpt>
      <trkpt lat="43.05169158144" lon="-5.40658432023">
        <ele>1894.48</ele>
        <time>2012-12-18T12:34:35+01:00</time>
      </trkpt>
      <trkpt lat="43.05169809426" lon="-5.40654905789">
        <ele>1892.84</ele>
        <time>2012-12-18T12:34:44+01:00</time>
      </trkpt>
      <trkpt lat="43.05174000966" lon="-5.40651739361">
        <ele>1891.43</ele>
        <time>2012-12-18T12:34:46+01:00</time>
      </trkpt>
      <trkpt lat="43.05182574873" lon="-5.40649159604">
        <ele>1890.24</ele>
        <time>2012-12-18T12:34:47+01:00</time>
      </trkpt>
      <trkpt lat="43.05188867509" lon="-5.40649844593">
        <ele>1889.02</ele>
        <time>2012-12-18T12:34:48+01:00</time>
      </trkpt>
      <trkpt lat="43.05194249312" lon="-5.40651685864">
        <ele>1887.82</ele>
        <time>2012-12-18T12:34:49+01:00</time>
      </trkpt>
      <trkpt lat="43.05201580605" lon="-5.40648437602">
        <ele>1886.4</ele>
        <time>2012-12-18T12:34:50+01:00</time>
      </trkpt>
      <trkpt lat="43.05210181827" lon="-5.40644936872">
        <ele>1884.94</ele>
        <time>2012-12-18T12:34:51+01:00</time>
      </trkpt>
      <trkpt lat="43.05219958618" lon="-5.40643326999">
        <ele>1883.34</ele>
        <time>2012-12-18T12:34:52+01:00</time>
      </trkpt>
      <trkpt lat="43.05229035226" lon="-5.40642862035">
        <ele>1881.68</ele>
        <time>2012-12-18T12:34:53+01:00</time>
      </trkpt>
      <trkpt lat="43.05240039393" lon="-5.40640026593">
        <ele>1880.39</ele>
        <time>2012-12-18T12:34:54+01:00</time>
      </trkpt>
      <trkpt lat="43.05248728892" lon="-5.40637575143">
        <ele>1878.95</ele>
        <time>2012-12-18T12:34:55+01:00</time>
      </trkpt>
      <trkpt lat="43.05257832809" lon="-5.40631780784">
        <ele>1877.67</ele>
        <time>2012-12-18T12:34:56+01:00</time>
      </trkpt>
      <trkpt lat="43.05269061888" lon="-5.40628817437">
        <ele>1876.67</ele>
        <time>2012-12-18T12:34:57+01:00</time>
      </trkpt>
      <trkpt lat="43.05277868068" lon="-5.40629215124">
        <ele>1875.68</ele>
        <time>2012-12-18T12:34:58+01:00</time>
      </trkpt>
      <trkpt lat="43.0528562478" lon="-5.40628606133">
        <ele>1874.79</ele>
        <time>2012-12-18T12:34:59+01:00</time>
      </trkpt>
      <trkpt lat="43.05293208652" lon="-5.40630212395">
        <ele>1873.55</ele>
        <time>2012-12-18T12:35:00+01:00</time>
      </trkpt>
      <trkpt lat="43.05301205232" lon="-5.40635789407">
        <ele>1872.16</ele>
        <time>2012-12-18T12:35:01+01:00</time>
      </trkpt>
      <trkpt lat="43.05306138845" lon="-5.40641318415">
        <ele>1871.14</ele>
        <time>2012-12-18T12:35:02+01:00</time>
      </trkpt>
      <trkpt lat="43.05309091456" lon="-5.40644828451">
        <ele>1870.31</ele>
        <time>2012-12-18T12:35:03+01:00</time>
      </trkpt>
      <trkpt lat="43.0531246192" lon="-5.40645234331">
        <ele>1870.29</ele>
        <time>2012-12-18T12:35:05+01:00</time>
      </trkpt>
      <trkpt lat="43.05311368293" lon="-5.40636673016">
        <ele>1869.46</ele>
        <time>2012-12-18T12:35:06+01:00</time>
      </trkpt>
      <trkpt lat="43.05310972686" lon="-5.40631379077">
        <ele>1868.82</ele>
        <time>2012-12-18T12:35:07+01:00</time>
      </trkpt>
      <trkpt lat="43.05309201427" lon="-5.40626378365">
        <ele>1868.27</ele>
        <time>2012-12-18T12:35:09+01:00</time>
      </trkpt>
      <trkpt lat="43.05308813077" lon="-5.40622687304">
        <ele>1866.78</ele>
        <time>2012-12-18T12:35:19+01:00</time>
      </trkpt>
      <trkpt lat="43.05311701202" lon="-5.40623080113">
        <ele>1866.02</ele>
        <time>2012-12-18T12:35:29+01:00</time>
      </trkpt>
      <trkpt lat="43.05315310686" lon="-5.40620975967">
        <ele>1864.16</ele>
        <time>2012-12-18T12:35:31+01:00</time>
      </trkpt>
      <trkpt lat="43.05318280322" lon="-5.40621106032">
        <ele>1863.52</ele>
        <time>2012-12-18T12:35:32+01:00</time>
      </trkpt>
      <trkpt lat="43.05320623001" lon="-5.40620641501">
        <ele>1862.58</ele>
        <time>2012-12-18T12:35:33+01:00</time>
      </trkpt>
      <trkpt lat="43.05323892244" lon="-5.40619676998">
        <ele>1861.74</ele>
        <time>2012-12-18T12:35:34+01:00</time>
      </trkpt>
      <trkpt lat="43.05327214022" lon="-5.40619165644">
        <ele>1860.82</ele>
        <time>2012-12-18T12:35:36+01:00</time>
      </trkpt>
      <trkpt lat="43.05330012994" lon="-5.40618941003">
        <ele>1860.49</ele>
        <time>2012-12-18T12:35:37+01:00</time>
      </trkpt>
      <trkpt lat="43.05332601267" lon="-5.40618752577">
        <ele>1859.98</ele>
        <time>2012-12-18T12:35:37+01:00</time>
      </trkpt>
      <trkpt lat="43.05334515939" lon="-5.40614856266">
        <ele>1859.29</ele>
        <time>2012-12-18T12:35:39+01:00</time>
      </trkpt>
      <trkpt lat="43.05337460862" lon="-5.40610196893">
        <ele>1858.46</ele>
        <time>2012-12-18T12:35:41+01:00</time>
      </trkpt>
      <trkpt lat="43.05340380566" lon="-5.40608290107">
        <ele>1858.05</ele>
        <time>2012-12-18T12:35:42+01:00</time>
      </trkpt>
      <trkpt lat="43.05346669788" lon="-5.40609985357">
        <ele>1857.39</ele>
        <time>2012-12-18T12:35:43+01:00</time>
      </trkpt>
      <trkpt lat="43.05350278477" lon="-5.40609513666">
        <ele>1856.57</ele>
        <time>2012-12-18T12:35:44+01:00</time>
      </trkpt>
      <trkpt lat="43.05353400345" lon="-5.406101228">
        <ele>1855.52</ele>
        <time>2012-12-18T12:35:45+01:00</time>
      </trkpt>
      <trkpt lat="43.0535448199" lon="-5.40607083247">
        <ele>1854.9</ele>
        <time>2012-12-18T12:35:48+01:00</time>
      </trkpt>
      <trkpt lat="43.05353813153" lon="-5.40603429884">
        <ele>1854.08</ele>
        <time>2012-12-18T12:35:52+01:00</time>
      </trkpt>
      <trkpt lat="43.05355854737" lon="-5.40601653873">
        <ele>1853.39</ele>
        <time>2012-12-18T12:35:58+01:00</time>
      </trkpt>
      <trkpt lat="43.053568623" lon="-5.40598187213">
        <ele>1852.66</ele>
        <time>2012-12-18T12:36:03+01:00</time>
      </trkpt>
      <trkpt lat="43.05356925338" lon="-5.40594581663">
        <ele>1852.08</ele>
        <time>2012-12-18T12:36:06+01:00</time>
      </trkpt>
      <trkpt lat="43.05359126862" lon="-5.4059253886">
        <ele>1850.98</ele>
        <time>2012-12-18T12:36:46+01:00</time>
      </trkpt>
      <trkpt lat="43.05360704883" lon="-5.405946505">
        <ele>1849.7</ele>
        <time>2012-12-18T12:36:50+01:00</time>
      </trkpt>
      <trkpt lat="43.05363216324" lon="-5.40594099749">
        <ele>1848.81</ele>
        <time>2012-12-18T12:36:53+01:00</time>
      </trkpt>
      <trkpt lat="43.05366002155" lon="-5.40593576963">
        <ele>1848.16</ele>
        <time>2012-12-18T12:36:55+01:00</time>
      </trkpt>
      <trkpt lat="43.05369037965" lon="-5.40593569947">
        <ele>1847.53</ele>
        <time>2012-12-18T12:36:57+01:00</time>
      </trkpt>
      <trkpt lat="43.05372404294" lon="-5.40592701718">
        <ele>1846.67</ele>
        <time>2012-12-18T12:36:59+01:00</time>
      </trkpt>
      <trkpt lat="43.05376256297" lon="-5.40585946253">
        <ele>1845.37</ele>
        <time>2012-12-18T12:37:01+01:00</time>
      </trkpt>
      <trkpt lat="43.05380481247" lon="-5.40582969874">
        <ele>1844.46</ele>
        <time>2012-12-18T12:37:02+01:00</time>
      </trkpt>
      <trkpt lat="43.05385697772" lon="-5.40579043711">
        <ele>1843.46</ele>
        <time>2012-12-18T12:37:03+01:00</time>
      </trkpt>
      <trkpt lat="43.05391315202" lon="-5.40573860837">
        <ele>1842.6</ele>
        <time>2012-12-18T12:37:03+01:00</time>
      </trkpt>
      <trkpt lat="43.05395358398" lon="-5.40569417056">
        <ele>1841.76</ele>
        <time>2012-12-18T12:37:04+01:00</time>
      </trkpt>
      <trkpt lat="43.05398568949" lon="-5.40561854176">
        <ele>1840.51</ele>
        <time>2012-12-18T12:37:05+01:00</time>
      </trkpt>
      <trkpt lat="43.05402654317" lon="-5.40555553259">
        <ele>1839.41</ele>
        <time>2012-12-18T12:37:06+01:00</time>
      </trkpt>
      <trkpt lat="43.05407441979" lon="-5.4055054027">
        <ele>1838.59</ele>
        <time>2012-12-18T12:37:07+01:00</time>
      </trkpt>
      <trkpt lat="43.05413016523" lon="-5.4055068773">
        <ele>1837.54</ele>
        <time>2012-12-18T12:37:08+01:00</time>
      </trkpt>
      <trkpt lat="43.0541957123" lon="-5.40546613784">
        <ele>1836.48</ele>
        <time>2012-12-18T12:37:10+01:00</time>
      </trkpt>
      <trkpt lat="43.054253866" lon="-5.40540488255">
        <ele>1835.58</ele>
        <time>2012-12-18T12:37:10+01:00</time>
      </trkpt>
      <trkpt lat="43.05426952591" lon="-5.40532837418">
        <ele>1834.63</ele>
        <time>2012-12-18T12:37:11+01:00</time>
      </trkpt>
      <trkpt lat="43.05429760806" lon="-5.40526007189">
        <ele>1833.61</ele>
        <time>2012-12-18T12:37:12+01:00</time>
      </trkpt>
      <trkpt lat="43.0543348156" lon="-5.4052254808">
        <ele>1832.55</ele>
        <time>2012-12-18T12:37:13+01:00</time>
      </trkpt>
      <trkpt lat="43.05436750421" lon="-5.40520912194">
        <ele>1831.72</ele>
        <time>2012-12-18T12:37:14+01:00</time>
      </trkpt>
      <trkpt lat="43.05440283385" lon="-5.40519330387">
        <ele>1831.01</ele>
        <time>2012-12-18T12:37:16+01:00</time>
      </trkpt>
      <trkpt lat="43.05442450945" lon="-5.40515181583">
        <ele>1830.27</ele>
        <time>2012-12-18T12:37:18+01:00</time>
      </trkpt>
      <trkpt lat="43.0544384452" lon="-5.40510165037">
        <ele>1829.46</ele>
        <time>2012-12-18T12:37:22+01:00</time>
      </trkpt>
      <trkpt lat="43.05445107891" lon="-5.40505831177">
        <ele>1828.72</ele>
        <time>2012-12-18T12:37:23+01:00</time>
      </trkpt>
      <trkpt lat="43.05446105526" lon="-5.40502297325">
        <ele>1828.06</ele>
        <time>2012-12-18T12:37:23+01:00</time>
      </trkpt>
      <trkpt lat="43.05447446231" lon="-5.40498858561">
        <ele>1827.53</ele>
        <time>2012-12-18T12:37:24+01:00</time>
      </trkpt>
      <trkpt lat="43.05449119219" lon="-5.4049444108">
        <ele>1826.82</ele>
        <time>2012-12-18T12:37:25+01:00</time>
      </trkpt>
      <trkpt lat="43.05450444477" lon="-5.40487330689">
        <ele>1825.8</ele>
        <time>2012-12-18T12:37:26+01:00</time>
      </trkpt>
      <trkpt lat="43.05450067803" lon="-5.40480169776">
        <ele>1825.06</ele>
        <time>2012-12-18T12:37:28+01:00</time>
      </trkpt>
      <trkpt lat="43.05451191867" lon="-5.40470974551">
        <ele>1824.06</ele>
        <time>2012-12-18T12:37:29+01:00</time>
      </trkpt>
      <trkpt lat="43.05453118536" lon="-5.40461794663">
        <ele>1823.05</ele>
        <time>2012-12-18T12:37:30+01:00</time>
      </trkpt>
      <trkpt lat="43.05455615808" lon="-5.40452457891">
        <ele>1822.25</ele>
        <time>2012-12-18T12:37:30+01:00</time>
      </trkpt>
      <trkpt lat="43.05458479431" lon="-5.4044198896">
        <ele>1821.52</ele>
        <time>2012-12-18T12:37:31+01:00</time>
      </trkpt>
      <trkpt lat="43.05463122288" lon="-5.40434001852">
        <ele>1820.6</ele>
        <time>2012-12-18T12:37:32+01:00</time>
      </trkpt>
      <trkpt lat="43.05468278763" lon="-5.40424112967">
        <ele>1819.61</ele>
        <time>2012-12-18T12:37:34+01:00</time>
      </trkpt>
      <trkpt lat="43.05473890188" lon="-5.40414712838">
        <ele>1818.48</ele>
        <time>2012-12-18T12:37:35+01:00</time>
      </trkpt>
      <trkpt lat="43.05477868633" lon="-5.40403739687">
        <ele>1817.55</ele>
        <time>2012-12-18T12:37:36+01:00</time>
      </trkpt>
      <trkpt lat="43.05482684798" lon="-5.403986404">
        <ele>1816.73</ele>
        <time>2012-12-18T12:37:36+01:00</time>
      </trkpt>
      <trkpt lat="43.05488388835" lon="-5.40399310334">
        <ele>1815.82</ele>
        <time>2012-12-18T12:37:37+01:00</time>
      </trkpt>
      <trkpt lat="43.0549145748" lon="-5.40399404088">
        <ele>1815.66</ele>
        <time>2012-12-18T12:37:39+01:00</time>
      </trkpt>
      <trkpt lat="43.05491823105" lon="-5.40396613225">
        <ele>1815.29</ele>
        <time>2012-12-18T12:37:40+01:00</time>
      </trkpt>
      <trkpt lat="43.05490060933" lon="-5.40394152158">
        <ele>1814.07</ele>
        <time>2012-12-18T12:37:42+01:00</time>
      </trkpt>
      <trkpt lat="43.05487666864" lon="-5.40391846618">
        <ele>1812.79</ele>
        <time>2012-12-18T12:37:43+01:00</time>
      </trkpt>
      <trkpt lat="43.05485647141" lon="-5.40389134182">
        <ele>1811.71</ele>
        <time>2012-12-18T12:37:45+01:00</time>
      </trkpt>
      <trkpt lat="43.05486599356" lon="-5.40382782706">
        <ele>1810.72</ele>
        <time>2012-12-18T12:37:48+01:00</time>
      </trkpt>
      <trkpt lat="43.054873886" lon="-5.40378805694">
        <ele>1809.49</ele>
        <time>2012-12-18T12:37:48+01:00</time>
      </trkpt>
      <trkpt lat="43.0548981739" lon="-5.40372961432">
        <ele>1808.16</ele>
        <time>2012-12-18T12:37:49+01:00</time>
      </trkpt>
      <trkpt lat="43.05493179595" lon="-5.40367435874">
        <ele>1806.66</ele>
        <time>2012-12-18T12:37:50+01:00</time>
      </trkpt>
      <trkpt lat="43.05496914258" lon="-5.40363647065">
        <ele>1805.46</ele>
        <time>2012-12-18T12:37:51+01:00</time>
      </trkpt>
      <trkpt lat="43.05500063811" lon="-5.40361721723">
        <ele>1804.59</ele>
        <time>2012-12-18T12:37:52+01:00</time>
      </trkpt>
      <trkpt lat="43.05499077475" lon="-5.40356927524">
        <ele>1804.31</ele>
        <time>2012-12-18T12:37:53+01:00</time>
      </trkpt>
      <trkpt lat="43.05498580764" lon="-5.40353155317">
        <ele>1803.82</ele>
        <time>2012-12-18T12:37:55+01:00</time>
      </trkpt>
      <trkpt lat="43.0549585888" lon="-5.40350631867">
        <ele>1803.58</ele>
        <time>2012-12-18T12:37:55+01:00</time>
      </trkpt>
      <trkpt lat="43.054925164" lon="-5.40350349347">
        <ele>1803</ele>
        <time>2012-12-18T12:37:57+01:00</time>
      </trkpt>
      <trkpt lat="43.0549452599" lon="-5.4035027059">
        <ele>1803.35</ele>
        <time>2012-12-18T12:38:02+01:00</time>
      </trkpt>
      <trkpt lat="43.05498059388" lon="-5.40347673212">
        <ele>1803.36</ele>
        <time>2012-12-18T12:38:04+01:00</time>
      </trkpt>
      <trkpt lat="43.05500395509" lon="-5.40345329834">
        <ele>1803.25</ele>
        <time>2012-12-18T12:38:05+01:00</time>
      </trkpt>
      <trkpt lat="43.05501540383" lon="-5.40343980792">
        <ele>1803.21</ele>
        <time>2012-12-18T12:38:06+01:00</time>
      </trkpt>
      <trkpt lat="43.05503175226" lon="-5.40342074132">
        <ele>1803.15</ele>
        <time>2012-12-18T12:38:09+01:00</time>
      </trkpt>
      <trkpt lat="43.05498873931" lon="-5.40339462508">
        <ele>1802.37</ele>
        <time>2012-12-18T12:38:15+01:00</time>
      </trkpt>
      <trkpt lat="43.05498305956" lon="-5.40335389698">
        <ele>1801.27</ele>
        <time>2012-12-18T12:38:23+01:00</time>
      </trkpt>
      <trkpt lat="43.05500039139" lon="-5.40332606976">
        <ele>1801.65</ele>
        <time>2012-12-18T12:38:25+01:00</time>
      </trkpt>
      <trkpt lat="43.05501247597" lon="-5.40328910573">
        <ele>1799.81</ele>
        <time>2012-12-18T12:38:27+01:00</time>
      </trkpt>
      <trkpt lat="43.05502515088" lon="-5.4032536503">
        <ele>1797.4</ele>
        <time>2012-12-18T12:38:32+01:00</time>
      </trkpt>
      <trkpt lat="43.05504252419" lon="-5.40318439901">
        <ele>1795.78</ele>
        <time>2012-12-18T12:38:35+01:00</time>
      </trkpt>
      <trkpt lat="43.05506176294" lon="-5.40313115549">
        <ele>1794.56</ele>
        <time>2012-12-18T12:38:35+01:00</time>
      </trkpt>
      <trkpt lat="43.05509059689" lon="-5.40307633248">
        <ele>1794.69</ele>
        <time>2012-12-18T12:38:37+01:00</time>
      </trkpt>
      <trkpt lat="43.05512767847" lon="-5.40303841167">
        <ele>1793.71</ele>
        <time>2012-12-18T12:38:37+01:00</time>
      </trkpt>
      <trkpt lat="43.05515307983" lon="-5.40302072153">
        <ele>1793.05</ele>
        <time>2012-12-18T12:38:39+01:00</time>
      </trkpt>
      <trkpt lat="43.05516364313" lon="-5.402993101">
        <ele>1792.51</ele>
        <time>2012-12-18T12:38:41+01:00</time>
      </trkpt>
      <trkpt lat="43.05513766091" lon="-5.40294525537">
        <ele>1791.97</ele>
        <time>2012-12-18T12:38:42+01:00</time>
      </trkpt>
      <trkpt lat="43.05514862477" lon="-5.4028902228">
        <ele>1791.42</ele>
        <time>2012-12-18T12:38:43+01:00</time>
      </trkpt>
      <trkpt lat="43.05514837003" lon="-5.40283563039">
        <ele>1790.68</ele>
        <time>2012-12-18T12:38:43+01:00</time>
      </trkpt>
      <trkpt lat="43.05516578697" lon="-5.40279943209">
        <ele>1790.16</ele>
        <time>2012-12-18T12:38:44+01:00</time>
      </trkpt>
      <trkpt lat="43.05517852397" lon="-5.40275745782">
        <ele>1789.77</ele>
        <time>2012-12-18T12:38:45+01:00</time>
      </trkpt>
      <trkpt lat="43.05519927687" lon="-5.40271372486">
        <ele>1788.89</ele>
        <time>2012-12-18T12:38:50+01:00</time>
      </trkpt>
      <trkpt lat="43.0551896476" lon="-5.4026848617">
        <ele>1788.23</ele>
        <time>2012-12-18T12:38:54+01:00</time>
      </trkpt>
      <trkpt lat="43.05517488067" lon="-5.40266165471">
        <ele>1787.53</ele>
        <time>2012-12-18T12:38:56+01:00</time>
      </trkpt>
      <trkpt lat="43.05515502937" lon="-5.40263394632">
        <ele>1786.74</ele>
        <time>2012-12-18T12:38:57+01:00</time>
      </trkpt>
      <trkpt lat="43.05513892211" lon="-5.40260594114">
        <ele>1785.84</ele>
        <time>2012-12-18T12:38:59+01:00</time>
      </trkpt>
      <trkpt lat="43.05513875167" lon="-5.40257351801">
        <ele>1784.93</ele>
        <time>2012-12-18T12:39:04+01:00</time>
      </trkpt>
      <trkpt lat="43.05514884292" lon="-5.40254443577">
        <ele>1783.53</ele>
        <time>2012-12-18T12:39:10+01:00</time>
      </trkpt>
      <trkpt lat="43.05515116292" lon="-5.40250643282">
        <ele>1782.33</ele>
        <time>2012-12-18T12:39:15+01:00</time>
      </trkpt>
      <trkpt lat="43.05514344619" lon="-5.40246543872">
        <ele>1781.23</ele>
        <time>2012-12-18T12:39:17+01:00</time>
      </trkpt>
      <trkpt lat="43.05513046992" lon="-5.40242217002">
        <ele>1780.2</ele>
        <time>2012-12-18T12:39:19+01:00</time>
      </trkpt>
      <trkpt lat="43.05512492424" lon="-5.40238448137">
        <ele>1779.19</ele>
        <time>2012-12-18T12:39:21+01:00</time>
      </trkpt>
      <trkpt lat="43.05512217225" lon="-5.40234623235">
        <ele>1778.12</ele>
        <time>2012-12-18T12:39:23+01:00</time>
      </trkpt>
      <trkpt lat="43.05511055774" lon="-5.40228762057">
        <ele>1777</ele>
        <time>2012-12-18T12:39:25+01:00</time>
      </trkpt>
      <trkpt lat="43.05510132815" lon="-5.40223828023">
        <ele>1775.99</ele>
        <time>2012-12-18T12:39:26+01:00</time>
      </trkpt>
      <trkpt lat="43.05508818343" lon="-5.40215431614">
        <ele>1774.94</ele>
        <time>2012-12-18T12:39:27+01:00</time>
      </trkpt>
      <trkpt lat="43.05509239411" lon="-5.40207475963">
        <ele>1773.8</ele>
        <time>2012-12-18T12:39:28+01:00</time>
      </trkpt>
      <trkpt lat="43.05509880184" lon="-5.40198421587">
        <ele>1772.77</ele>
        <time>2012-12-18T12:39:29+01:00</time>
      </trkpt>
      <trkpt lat="43.05508516359" lon="-5.40189978949">
        <ele>1771.8</ele>
        <time>2012-12-18T12:39:30+01:00</time>
      </trkpt>
      <trkpt lat="43.05508186597" lon="-5.40180284028">
        <ele>1770.81</ele>
        <time>2012-12-18T12:39:31+01:00</time>
      </trkpt>
      <trkpt lat="43.05509723265" lon="-5.40171780337">
        <ele>1769.72</ele>
        <time>2012-12-18T12:39:32+01:00</time>
      </trkpt>
      <trkpt lat="43.05512350709" lon="-5.40165432672">
        <ele>1768.65</ele>
        <time>2012-12-18T12:39:33+01:00</time>
      </trkpt>
      <trkpt lat="43.0551462634" lon="-5.40158892598">
        <ele>1767.72</ele>
        <time>2012-12-18T12:39:35+01:00</time>
      </trkpt>
      <trkpt lat="43.05516224757" lon="-5.40153219288">
        <ele>1766.59</ele>
        <time>2012-12-18T12:39:35+01:00</time>
      </trkpt>
      <trkpt lat="43.05516749358" lon="-5.40149744097">
        <ele>1765.42</ele>
        <time>2012-12-18T12:39:36+01:00</time>
      </trkpt>
      <trkpt lat="43.0551423202" lon="-5.40145012636">
        <ele>1764.41</ele>
        <time>2012-12-18T12:39:37+01:00</time>
      </trkpt>
      <trkpt lat="43.05512273454" lon="-5.40139855276">
        <ele>1763.56</ele>
        <time>2012-12-18T12:39:38+01:00</time>
      </trkpt>
      <trkpt lat="43.05510664688" lon="-5.4013364714">
        <ele>1762.59</ele>
        <time>2012-12-18T12:39:39+01:00</time>
      </trkpt>
      <trkpt lat="43.05511258239" lon="-5.40128958875">
        <ele>1761.56</ele>
        <time>2012-12-18T12:39:41+01:00</time>
      </trkpt>
      <trkpt lat="43.055122889" lon="-5.40125506651">
        <ele>1760.73</ele>
        <time>2012-12-18T12:39:41+01:00</time>
      </trkpt>
      <trkpt lat="43.05513775787" lon="-5.40122784432">
        <ele>1759.97</ele>
        <time>2012-12-18T12:39:42+01:00</time>
      </trkpt>
      <trkpt lat="43.05512356551" lon="-5.40120986056">
        <ele>1758.77</ele>
        <time>2012-12-18T12:39:43+01:00</time>
      </trkpt>
      <trkpt lat="43.05514228529" lon="-5.4011836662">
        <ele>1757.75</ele>
        <time>2012-12-18T12:39:45+01:00</time>
      </trkpt>
      <trkpt lat="43.05517794754" lon="-5.40116501628">
        <ele>1756.91</ele>
        <time>2012-12-18T12:39:47+01:00</time>
      </trkpt>
      <trkpt lat="43.05522125628" lon="-5.40113768286">
        <ele>1756.09</ele>
        <time>2012-12-18T12:39:48+01:00</time>
      </trkpt>
      <trkpt lat="43.05524674889" lon="-5.40109184893">
        <ele>1755.25</ele>
        <time>2012-12-18T12:39:48+01:00</time>
      </trkpt>
      <trkpt lat="43.05523437953" lon="-5.40101086599">
        <ele>1754.28</ele>
        <time>2012-12-18T12:39:49+01:00</time>
      </trkpt>
      <trkpt lat="43.05521799169" lon="-5.40095416805">
        <ele>1753.46</ele>
        <time>2012-12-18T12:39:50+01:00</time>
      </trkpt>
      <trkpt lat="43.05519275354" lon="-5.40093330662">
        <ele>1751.22</ele>
        <time>2012-12-18T12:39:51+01:00</time>
      </trkpt>
      <trkpt lat="43.05516976214" lon="-5.40088765044">
        <ele>1750.35</ele>
        <time>2012-12-18T12:39:52+01:00</time>
      </trkpt>
      <trkpt lat="43.055164131" lon="-5.40084952806">
        <ele>1750.57</ele>
        <time>2012-12-18T12:39:55+01:00</time>
      </trkpt>
      <trkpt lat="43.0551880499" lon="-5.40083130885">
        <ele>1748.21</ele>
        <time>2012-12-18T12:39:56+01:00</time>
      </trkpt>
      <trkpt lat="43.05521127387" lon="-5.4007998371">
        <ele>1747.01</ele>
        <time>2012-12-18T12:39:57+01:00</time>
      </trkpt>
      <trkpt lat="43.05523714164" lon="-5.40077402967">
        <ele>1746.32</ele>
        <time>2012-12-18T12:39:58+01:00</time>
      </trkpt>
      <trkpt lat="43.05525646513" lon="-5.40073359736">
        <ele>1745.65</ele>
        <time>2012-12-18T12:39:59+01:00</time>
      </trkpt>
      <trkpt lat="43.05527193845" lon="-5.40069892666">
        <ele>1744.94</ele>
        <time>2012-12-18T12:40:00+01:00</time>
      </trkpt>
      <trkpt lat="43.05528514082" lon="-5.40065841995">
        <ele>1744.33</ele>
        <time>2012-12-18T12:40:02+01:00</time>
      </trkpt>
      <trkpt lat="43.05529370302" lon="-5.40061936646">
        <ele>1743.85</ele>
        <time>2012-12-18T12:40:03+01:00</time>
      </trkpt>
      <trkpt lat="43.0553015049" lon="-5.40058504963">
        <ele>1743.45</ele>
        <time>2012-12-18T12:40:03+01:00</time>
      </trkpt>
      <trkpt lat="43.05530779267" lon="-5.40054566448">
        <ele>1743.22</ele>
        <time>2012-12-18T12:40:04+01:00</time>
      </trkpt>
      <trkpt lat="43.05531444817" lon="-5.40050835021">
        <ele>1742.82</ele>
        <time>2012-12-18T12:40:05+01:00</time>
      </trkpt>
      <trkpt lat="43.05531537694" lon="-5.40046997489">
        <ele>1742.42</ele>
        <time>2012-12-18T12:40:07+01:00</time>
      </trkpt>
      <trkpt lat="43.05531460523" lon="-5.40042596044">
        <ele>1742.09</ele>
        <time>2012-12-18T12:40:07+01:00</time>
      </trkpt>
      <trkpt lat="43.055314" lon="-5.40038421761">
        <ele>1741.55</ele>
        <time>2012-12-18T12:40:08+01:00</time>
      </trkpt>
      <trkpt lat="43.0553180508" lon="-5.40034028796">
        <ele>1741.35</ele>
        <time>2012-12-18T12:40:09+01:00</time>
      </trkpt>
      <trkpt lat="43.05532852673" lon="-5.40029478176">
        <ele>1740.98</ele>
        <time>2012-12-18T12:40:10+01:00</time>
      </trkpt>
      <trkpt lat="43.05538283294" lon="-5.40022671308">
        <ele>1740.67</ele>
        <time>2012-12-18T12:40:11+01:00</time>
      </trkpt>
      <trkpt lat="43.05539976363" lon="-5.40017171222">
        <ele>1740.33</ele>
        <time>2012-12-18T12:40:12+01:00</time>
      </trkpt>
      <trkpt lat="43.05539565213" lon="-5.40011731854">
        <ele>1739.85</ele>
        <time>2012-12-18T12:40:15+01:00</time>
      </trkpt>
      <trkpt lat="43.05540010668" lon="-5.40006759758">
        <ele>1739.54</ele>
        <time>2012-12-18T12:40:16+01:00</time>
      </trkpt>
      <trkpt lat="43.05542299468" lon="-5.40003018752">
        <ele>1738.77</ele>
        <time>2012-12-18T12:40:16+01:00</time>
      </trkpt>
      <trkpt lat="43.05544913552" lon="-5.40000781849">
        <ele>1738.36</ele>
        <time>2012-12-18T12:40:17+01:00</time>
      </trkpt>
      <trkpt lat="43.0554805904" lon="-5.39998777348">
        <ele>1738.05</ele>
        <time>2012-12-18T12:40:18+01:00</time>
      </trkpt>
      <trkpt lat="43.05547074648" lon="-5.39996144948">
        <ele>1738.1</ele>
        <time>2012-12-18T12:40:21+01:00</time>
      </trkpt>
      <trkpt lat="43.05546146867" lon="-5.3999307037">
        <ele>1737.45</ele>
        <time>2012-12-18T12:40:24+01:00</time>
      </trkpt>
      <trkpt lat="43.05544553845" lon="-5.39989919339">
        <ele>1736.4</ele>
        <time>2012-12-18T12:40:28+01:00</time>
      </trkpt>
      <trkpt lat="43.05543285617" lon="-5.39987182705">
        <ele>1735.98</ele>
        <time>2012-12-18T12:40:34+01:00</time>
      </trkpt>
      <trkpt lat="43.05543754748" lon="-5.39984253654">
        <ele>1735.39</ele>
        <time>2012-12-18T12:40:39+01:00</time>
      </trkpt>
      <trkpt lat="43.05543586665" lon="-5.39980845196">
        <ele>1733.64</ele>
        <time>2012-12-18T12:40:52+01:00</time>
      </trkpt>
      <trkpt lat="43.05543030481" lon="-5.39977532127">
        <ele>1731.82</ele>
        <time>2012-12-18T12:40:59+01:00</time>
      </trkpt>
      <trkpt lat="43.05544003635" lon="-5.3997470965">
        <ele>1729.86</ele>
        <time>2012-12-18T12:41:03+01:00</time>
      </trkpt>
      <trkpt lat="43.05545154243" lon="-5.39971011845">
        <ele>1728.34</ele>
        <time>2012-12-18T12:41:08+01:00</time>
      </trkpt>
      <trkpt lat="43.05546121744" lon="-5.399673002">
        <ele>1726.66</ele>
        <time>2012-12-18T12:41:09+01:00</time>
      </trkpt>
      <trkpt lat="43.05547097336" lon="-5.39963549452">
        <ele>1724.33</ele>
        <time>2012-12-18T12:41:12+01:00</time>
      </trkpt>
      <trkpt lat="43.05548454695" lon="-5.39960933895">
        <ele>1722.76</ele>
        <time>2012-12-18T12:41:15+01:00</time>
      </trkpt>
      <trkpt lat="43.05549715288" lon="-5.39962605769">
        <ele>1722.81</ele>
        <time>2012-12-18T12:41:19+01:00</time>
      </trkpt>
      <trkpt lat="43.0554836814" lon="-5.39964120316">
        <ele>1721.31</ele>
        <time>2012-12-18T12:41:25+01:00</time>
      </trkpt>
      <trkpt lat="43.05547472616" lon="-5.39963106831">
        <ele>1720.35</ele>
        <time>2012-12-18T12:41:34+01:00</time>
      </trkpt>
      <trkpt lat="43.05545981709" lon="-5.39958587889">
        <ele>1719.65</ele>
        <time>2012-12-18T12:41:37+01:00</time>
      </trkpt>
      <trkpt lat="43.05547245915" lon="-5.39956249119">
        <ele>1717.79</ele>
        <time>2012-12-18T12:41:42+01:00</time>
      </trkpt>
      <trkpt lat="43.05554127165" lon="-5.39944643492">
        <ele>1716.59</ele>
        <time>2012-12-18T12:41:44+01:00</time>
      </trkpt>
      <trkpt lat="43.05557437958" lon="-5.39939479225">
        <ele>1715.66</ele>
        <time>2012-12-18T12:41:45+01:00</time>
      </trkpt>
      <trkpt lat="43.05560242531" lon="-5.39934691279">
        <ele>1715.03</ele>
        <time>2012-12-18T12:41:47+01:00</time>
      </trkpt>
      <trkpt lat="43.05561188218" lon="-5.39932395451">
        <ele>1714.24</ele>
        <time>2012-12-18T12:41:48+01:00</time>
      </trkpt>
      <trkpt lat="43.0555982247" lon="-5.39925227897">
        <ele>1713.21</ele>
        <time>2012-12-18T12:41:49+01:00</time>
      </trkpt>
      <trkpt lat="43.05559148837" lon="-5.39921834146">
        <ele>1712.24</ele>
        <time>2012-12-18T12:41:49+01:00</time>
      </trkpt>
      <trkpt lat="43.05558141468" lon="-5.39917170077">
        <ele>1711.46</ele>
        <time>2012-12-18T12:41:50+01:00</time>
      </trkpt>
      <trkpt lat="43.05560953203" lon="-5.3990983125">
        <ele>1710.62</ele>
        <time>2012-12-18T12:41:51+01:00</time>
      </trkpt>
      <trkpt lat="43.05562505377" lon="-5.39906634019">
        <ele>1709.75</ele>
        <time>2012-12-18T12:41:52+01:00</time>
      </trkpt>
      <trkpt lat="43.0556128619" lon="-5.39903620259">
        <ele>1709.07</ele>
        <time>2012-12-18T12:41:54+01:00</time>
      </trkpt>
      <trkpt lat="43.05558725594" lon="-5.39900657163">
        <ele>1708.47</ele>
        <time>2012-12-18T12:41:55+01:00</time>
      </trkpt>
      <trkpt lat="43.05556027475" lon="-5.39898388163">
        <ele>1707.75</ele>
        <time>2012-12-18T12:41:56+01:00</time>
      </trkpt>
      <trkpt lat="43.05553023572" lon="-5.39897015706">
        <ele>1707.05</ele>
        <time>2012-12-18T12:41:56+01:00</time>
      </trkpt>
      <trkpt lat="43.05550424545" lon="-5.39894548509">
        <ele>1706.53</ele>
        <time>2012-12-18T12:41:57+01:00</time>
      </trkpt>
      <trkpt lat="43.05548693603" lon="-5.39893368391">
        <ele>1705.94</ele>
        <time>2012-12-18T12:41:58+01:00</time>
      </trkpt>
      <trkpt lat="43.0554761395" lon="-5.39887294573">
        <ele>1705.62</ele>
        <time>2012-12-18T12:41:59+01:00</time>
      </trkpt>
      <trkpt lat="43.05547086213" lon="-5.39882056495">
        <ele>1705.22</ele>
        <time>2012-12-18T12:42:00+01:00</time>
      </trkpt>
      <trkpt lat="43.05547446699" lon="-5.39876093732">
        <ele>1704.81</ele>
        <time>2012-12-18T12:42:02+01:00</time>
      </trkpt>
      <trkpt lat="43.05548169232" lon="-5.39869804982">
        <ele>1704.42</ele>
        <time>2012-12-18T12:42:02+01:00</time>
      </trkpt>
      <trkpt lat="43.05548732834" lon="-5.39863793017">
        <ele>1703.96</ele>
        <time>2012-12-18T12:42:03+01:00</time>
      </trkpt>
      <trkpt lat="43.05549165164" lon="-5.39857506736">
        <ele>1702.81</ele>
        <time>2012-12-18T12:42:04+01:00</time>
      </trkpt>
      <trkpt lat="43.05549627073" lon="-5.39852389599">
        <ele>1702.18</ele>
        <time>2012-12-18T12:42:05+01:00</time>
      </trkpt>
      <trkpt lat="43.05549711718" lon="-5.39848602098">
        <ele>1702.3</ele>
        <time>2012-12-18T12:42:06+01:00</time>
      </trkpt>
      <trkpt lat="43.05549696816" lon="-5.39844807862">
        <ele>1701</ele>
        <time>2012-12-18T12:42:08+01:00</time>
      </trkpt>
      <trkpt lat="43.05549400449" lon="-5.39840239412">
        <ele>1700.97</ele>
        <time>2012-12-18T12:42:09+01:00</time>
      </trkpt>
      <trkpt lat="43.05548975724" lon="-5.39835872378">
        <ele>1700.51</ele>
        <time>2012-12-18T12:42:10+01:00</time>
      </trkpt>
      <trkpt lat="43.05548176641" lon="-5.39832343584">
        <ele>1700.41</ele>
        <time>2012-12-18T12:42:11+01:00</time>
      </trkpt>
      <trkpt lat="43.05546229803" lon="-5.39831094678">
        <ele>1699.84</ele>
        <time>2012-12-18T12:42:13+01:00</time>
      </trkpt>
      <trkpt lat="43.0554430487" lon="-5.39829007583">
        <ele>1699.65</ele>
        <time>2012-12-18T12:42:14+01:00</time>
      </trkpt>
      <trkpt lat="43.05543028049" lon="-5.39824560145">
        <ele>1699.9</ele>
        <time>2012-12-18T12:42:21+01:00</time>
      </trkpt>
      <trkpt lat="43.0554122371" lon="-5.39822537425">
        <ele>1699.63</ele>
        <time>2012-12-18T12:42:25+01:00</time>
      </trkpt>
      <trkpt lat="43.05539531795" lon="-5.3981955796">
        <ele>1699.49</ele>
        <time>2012-12-18T12:42:29+01:00</time>
      </trkpt>
      <trkpt lat="43.05536766013" lon="-5.39819847196">
        <ele>1699.25</ele>
        <time>2012-12-18T12:42:34+01:00</time>
      </trkpt>
      <trkpt lat="43.05534150909" lon="-5.39821071804">
        <ele>1699.1</ele>
        <time>2012-12-18T12:42:36+01:00</time>
      </trkpt>
      <trkpt lat="43.05530865213" lon="-5.39822952873">
        <ele>1698.89</ele>
        <time>2012-12-18T12:42:36+01:00</time>
      </trkpt>
      <trkpt lat="43.05528035484" lon="-5.39824945118">
        <ele>1698.35</ele>
        <time>2012-12-18T12:42:37+01:00</time>
      </trkpt>
      <trkpt lat="43.05524130188" lon="-5.39826235401">
        <ele>1698.11</ele>
        <time>2012-12-18T12:42:38+01:00</time>
      </trkpt>
      <trkpt lat="43.05521586364" lon="-5.39826975038">
        <ele>1697.84</ele>
        <time>2012-12-18T12:42:39+01:00</time>
      </trkpt>
      <trkpt lat="43.05504916502" lon="-5.3983106703">
        <ele>1697.68</ele>
        <time>2012-12-18T12:42:41+01:00</time>
      </trkpt>
      <trkpt lat="43.05495926422" lon="-5.39833675803">
        <ele>1697.28</ele>
        <time>2012-12-18T12:42:41+01:00</time>
      </trkpt>
      <trkpt lat="43.05488214135" lon="-5.39831180072">
        <ele>1697.15</ele>
        <time>2012-12-18T12:42:42+01:00</time>
      </trkpt>
      <trkpt lat="43.05484540649" lon="-5.39830319092">
        <ele>1696.95</ele>
        <time>2012-12-18T12:42:43+01:00</time>
      </trkpt>
      <trkpt lat="43.05477779712" lon="-5.39831675491">
        <ele>1696.76</ele>
        <time>2012-12-18T12:42:44+01:00</time>
      </trkpt>
      <trkpt lat="43.05473114997" lon="-5.39831577967">
        <ele>1696.41</ele>
        <time>2012-12-18T12:42:45+01:00</time>
      </trkpt>
      <trkpt lat="43.05469526667" lon="-5.39830532518">
        <ele>1696.19</ele>
        <time>2012-12-18T12:42:46+01:00</time>
      </trkpt>
      <trkpt lat="43.05465520758" lon="-5.39829286434">
        <ele>1696</ele>
        <time>2012-12-18T12:42:47+01:00</time>
      </trkpt>
      <trkpt lat="43.05462381799" lon="-5.39829357962">
        <ele>1695.48</ele>
        <time>2012-12-18T12:42:48+01:00</time>
      </trkpt>
      <trkpt lat="43.05459507744" lon="-5.3982852613">
        <ele>1695.22</ele>
        <time>2012-12-18T12:42:49+01:00</time>
      </trkpt>
      <trkpt lat="43.05454708267" lon="-5.39826038135">
        <ele>1694.7</ele>
        <time>2012-12-18T12:42:50+01:00</time>
      </trkpt>
      <trkpt lat="43.05450892005" lon="-5.39823932728">
        <ele>1694.27</ele>
        <time>2012-12-18T12:42:51+01:00</time>
      </trkpt>
      <trkpt lat="43.05443372248" lon="-5.39818042626">
        <ele>1693.15</ele>
        <time>2012-12-18T12:42:52+01:00</time>
      </trkpt>
      <trkpt lat="43.0543710959" lon="-5.39808122043">
        <ele>1692.04</ele>
        <time>2012-12-18T12:42:53+01:00</time>
      </trkpt>
      <trkpt lat="43.0542529769" lon="-5.39790892149">
        <ele>1690.91</ele>
        <time>2012-12-18T12:42:55+01:00</time>
      </trkpt>
      <trkpt lat="43.05416923809" lon="-5.39781116157">
        <ele>1690.06</ele>
        <time>2012-12-18T12:42:56+01:00</time>
      </trkpt>
      <trkpt lat="43.05408480427" lon="-5.39773651047">
        <ele>1689.13</ele>
        <time>2012-12-18T12:42:57+01:00</time>
      </trkpt>
      <trkpt lat="43.05400941044" lon="-5.39769366535">
        <ele>1688.61</ele>
        <time>2012-12-18T12:42:58+01:00</time>
      </trkpt>
      <trkpt lat="43.05393940911" lon="-5.39767957401">
        <ele>1688.57</ele>
        <time>2012-12-18T12:42:59+01:00</time>
      </trkpt>
      <trkpt lat="43.05388698572" lon="-5.39766886666">
        <ele>1688.09</ele>
        <time>2012-12-18T12:43:00+01:00</time>
      </trkpt>
      <trkpt lat="43.05384852343" lon="-5.3976893904">
        <ele>1686.66</ele>
        <time>2012-12-18T12:43:01+01:00</time>
      </trkpt>
      <trkpt lat="43.05384161769" lon="-5.3977242059">
        <ele>1686.29</ele>
        <time>2012-12-18T12:43:03+01:00</time>
      </trkpt>
      <trkpt lat="43.05386226419" lon="-5.39773318066">
        <ele>1685.42</ele>
        <time>2012-12-18T12:43:13+01:00</time>
      </trkpt>
      <trkpt lat="43.0539011581" lon="-5.3977204143">
        <ele>1684.79</ele>
        <time>2012-12-18T12:43:23+01:00</time>
      </trkpt>
      <trkpt lat="43.05392692426" lon="-5.39771400794">
        <ele>1683.97</ele>
        <time>2012-12-18T12:43:25+01:00</time>
      </trkpt>
      <trkpt lat="43.05394728597" lon="-5.39771900407">
        <ele>1684.2</ele>
        <time>2012-12-18T12:43:28+01:00</time>
      </trkpt>
      <trkpt lat="43.05393328693" lon="-5.39772677587">
        <ele>1683.76</ele>
        <time>2012-12-18T12:43:31+01:00</time>
      </trkpt>
      <trkpt lat="43.05392294341" lon="-5.39775300656">
        <ele>1682.56</ele>
        <time>2012-12-18T12:43:41+01:00</time>
      </trkpt>
      <trkpt lat="43.05393408164" lon="-5.39773514576">
        <ele>1682.03</ele>
        <time>2012-12-18T12:43:51+01:00</time>
      </trkpt>
      <trkpt lat="43.05395307604" lon="-5.39773282053">
        <ele>1681.4</ele>
        <time>2012-12-18T12:44:10+01:00</time>
      </trkpt>
      <trkpt lat="43.05396578103" lon="-5.39774837167">
        <ele>1681.44</ele>
        <time>2012-12-18T12:44:14+01:00</time>
      </trkpt>
      <trkpt lat="43.05396750593" lon="-5.39775024726">
        <ele>1681.59</ele>
        <time>2012-12-18T12:44:17+01:00</time>
      </trkpt>
      <trkpt lat="43.05400646486" lon="-5.39780363366">
        <ele>1680.74</ele>
        <time>2012-12-18T12:44:38+01:00</time>
      </trkpt>
      <trkpt lat="43.05403796067" lon="-5.39782161996">
        <ele>1680.27</ele>
        <time>2012-12-18T12:44:40+01:00</time>
      </trkpt>
      <trkpt lat="43.05404741142" lon="-5.39780033973">
        <ele>1680.32</ele>
        <time>2012-12-18T12:44:45+01:00</time>
      </trkpt>
      <trkpt lat="43.05406908287" lon="-5.39780406326">
        <ele>1680.12</ele>
        <time>2012-12-18T12:44:50+01:00</time>
      </trkpt>
      <trkpt lat="43.05405397114" lon="-5.39780863011">
        <ele>1679.88</ele>
        <time>2012-12-18T12:44:53+01:00</time>
      </trkpt>
      <trkpt lat="43.05403873399" lon="-5.39781293092">
        <ele>1679.67</ele>
        <time>2012-12-18T12:44:55+01:00</time>
      </trkpt>
      <trkpt lat="43.05400733295" lon="-5.39782636279">
        <ele>1679.72</ele>
        <time>2012-12-18T12:45:00+01:00</time>
      </trkpt>
      <trkpt lat="43.05398737348" lon="-5.39781081014">
        <ele>1679.41</ele>
        <time>2012-12-18T12:45:04+01:00</time>
      </trkpt>
      <trkpt lat="43.0539774472" lon="-5.39783727097">
        <ele>1678.73</ele>
        <time>2012-12-18T12:45:13+01:00</time>
      </trkpt>
      <trkpt lat="43.05397023163" lon="-5.39787253682">
        <ele>1678.59</ele>
        <time>2012-12-18T12:45:17+01:00</time>
      </trkpt>
      <trkpt lat="43.05395487456" lon="-5.39790855784">
        <ele>1678.59</ele>
        <time>2012-12-18T12:45:21+01:00</time>
      </trkpt>
      <trkpt lat="43.05384183258" lon="-5.39794466285">
        <ele>1678.45</ele>
        <time>2012-12-18T12:45:23+01:00</time>
      </trkpt>
      <trkpt lat="43.05379461491" lon="-5.39796898294">
        <ele>1678.2</ele>
        <time>2012-12-18T12:45:24+01:00</time>
      </trkpt>
      <trkpt lat="43.05376673119" lon="-5.39799255536">
        <ele>1678.01</ele>
        <time>2012-12-18T12:45:26+01:00</time>
      </trkpt>
      <trkpt lat="43.05379163105" lon="-5.39803039513">
        <ele>1677.85</ele>
        <time>2012-12-18T12:45:26+01:00</time>
      </trkpt>
      <trkpt lat="43.05378038366" lon="-5.39809851395">
        <ele>1677.63</ele>
        <time>2012-12-18T12:45:29+01:00</time>
      </trkpt>
      <trkpt lat="43.05376311381" lon="-5.39815183441">
        <ele>1677.62</ele>
        <time>2012-12-18T12:45:31+01:00</time>
      </trkpt>
      <trkpt lat="43.05374983625" lon="-5.39820367041">
        <ele>1677.64</ele>
        <time>2012-12-18T12:45:33+01:00</time>
      </trkpt>
      <trkpt lat="43.05373786006" lon="-5.39825011332">
        <ele>1677.72</ele>
        <time>2012-12-18T12:45:35+01:00</time>
      </trkpt>
      <trkpt lat="43.05372892694" lon="-5.39829199074">
        <ele>1677.97</ele>
        <time>2012-12-18T12:45:37+01:00</time>
      </trkpt>
      <trkpt lat="43.05372717384" lon="-5.39834033114">
        <ele>1678.02</ele>
        <time>2012-12-18T12:45:39+01:00</time>
      </trkpt>
      <trkpt lat="43.0537247335" lon="-5.39836980111">
        <ele>1678.09</ele>
        <time>2012-12-18T12:45:41+01:00</time>
      </trkpt>
      <trkpt lat="43.05372975497" lon="-5.39841624291">
        <ele>1678.29</ele>
        <time>2012-12-18T12:45:42+01:00</time>
      </trkpt>
      <trkpt lat="43.05373792636" lon="-5.39844891214">
        <ele>1678.34</ele>
        <time>2012-12-18T12:45:44+01:00</time>
      </trkpt>
      <trkpt lat="43.05374647514" lon="-5.39850716697">
        <ele>1678.91</ele>
        <time>2012-12-18T12:45:46+01:00</time>
      </trkpt>
      <trkpt lat="43.053754991" lon="-5.39855234555">
        <ele>1679.53</ele>
        <time>2012-12-18T12:45:48+01:00</time>
      </trkpt>
      <trkpt lat="43.05376034868" lon="-5.39860060858">
        <ele>1679.81</ele>
        <time>2012-12-18T12:45:50+01:00</time>
      </trkpt>
      <trkpt lat="43.0537564293" lon="-5.39863375691">
        <ele>1680.04</ele>
        <time>2012-12-18T12:45:52+01:00</time>
      </trkpt>
      <trkpt lat="43.05375047747" lon="-5.39870446497">
        <ele>1680.33</ele>
        <time>2012-12-18T12:45:54+01:00</time>
      </trkpt>
      <trkpt lat="43.05374107284" lon="-5.39875843739">
        <ele>1680.74</ele>
        <time>2012-12-18T12:45:56+01:00</time>
      </trkpt>
      <trkpt lat="43.05373335811" lon="-5.39880550875">
        <ele>1681.22</ele>
        <time>2012-12-18T12:45:58+01:00</time>
      </trkpt>
      <trkpt lat="43.05373204986" lon="-5.3988474448">
        <ele>1682.02</ele>
        <time>2012-12-18T12:46:00+01:00</time>
      </trkpt>
      <trkpt lat="43.05372722845" lon="-5.39889680276">
        <ele>1682.52</ele>
        <time>2012-12-18T12:46:02+01:00</time>
      </trkpt>
      <trkpt lat="43.05372146972" lon="-5.3989464381">
        <ele>1683.19</ele>
        <time>2012-12-18T12:46:04+01:00</time>
      </trkpt>
      <trkpt lat="43.05371456823" lon="-5.39897757868">
        <ele>1683.69</ele>
        <time>2012-12-18T12:46:06+01:00</time>
      </trkpt>
      <trkpt lat="43.05369459663" lon="-5.39904084673">
        <ele>1684.36</ele>
        <time>2012-12-18T12:46:08+01:00</time>
      </trkpt>
      <trkpt lat="43.05367276562" lon="-5.39909138654">
        <ele>1685.01</ele>
        <time>2012-12-18T12:46:10+01:00</time>
      </trkpt>
      <trkpt lat="43.05364995923" lon="-5.39914038653">
        <ele>1685.31</ele>
        <time>2012-12-18T12:46:12+01:00</time>
      </trkpt>
      <trkpt lat="43.05363131636" lon="-5.39918840801">
        <ele>1685.9</ele>
        <time>2012-12-18T12:46:14+01:00</time>
      </trkpt>
      <trkpt lat="43.05360747122" lon="-5.39922724839">
        <ele>1686.61</ele>
        <time>2012-12-18T12:46:16+01:00</time>
      </trkpt>
      <trkpt lat="43.05358241798" lon="-5.39926210677">
        <ele>1687.26</ele>
        <time>2012-12-18T12:46:18+01:00</time>
      </trkpt>
      <trkpt lat="43.05356847367" lon="-5.39928607772">
        <ele>1687.88</ele>
        <time>2012-12-18T12:46:20+01:00</time>
      </trkpt>
      <trkpt lat="43.05355289258" lon="-5.3993375751">
        <ele>1688.26</ele>
        <time>2012-12-18T12:46:22+01:00</time>
      </trkpt>
      <trkpt lat="43.05354757123" lon="-5.39936387739">
        <ele>1689.62</ele>
        <time>2012-12-18T12:46:24+01:00</time>
      </trkpt>
      <trkpt lat="43.05353642388" lon="-5.39939777374">
        <ele>1689.56</ele>
        <time>2012-12-18T12:46:26+01:00</time>
      </trkpt>
      <trkpt lat="43.05351402789" lon="-5.39945446217">
        <ele>1689.93</ele>
        <time>2012-12-18T12:46:28+01:00</time>
      </trkpt>
      <trkpt lat="43.05349422658" lon="-5.39949825459">
        <ele>1691.27</ele>
        <time>2012-12-18T12:46:30+01:00</time>
      </trkpt>
      <trkpt lat="43.05347544711" lon="-5.39954328995">
        <ele>1692.14</ele>
        <time>2012-12-18T12:46:32+01:00</time>
      </trkpt>
      <trkpt lat="43.05346578647" lon="-5.39957205342">
        <ele>1692.62</ele>
        <time>2012-12-18T12:46:34+01:00</time>
      </trkpt>
      <trkpt lat="43.05344652445" lon="-5.39963341979">
        <ele>1692.67</ele>
        <time>2012-12-18T12:46:36+01:00</time>
      </trkpt>
      <trkpt lat="43.05342711524" lon="-5.39968445098">
        <ele>1693.54</ele>
        <time>2012-12-18T12:46:38+01:00</time>
      </trkpt>
      <trkpt lat="43.05341706155" lon="-5.39971178464">
        <ele>1694.23</ele>
        <time>2012-12-18T12:46:40+01:00</time>
      </trkpt>
      <trkpt lat="43.0534051825" lon="-5.3997489208">
        <ele>1694.59</ele>
        <time>2012-12-18T12:46:42+01:00</time>
      </trkpt>
      <trkpt lat="43.05339609977" lon="-5.39978626434">
        <ele>1695.49</ele>
        <time>2012-12-18T12:46:44+01:00</time>
      </trkpt>
      <trkpt lat="43.05337233799" lon="-5.39984778924">
        <ele>1696.29</ele>
        <time>2012-12-18T12:46:46+01:00</time>
      </trkpt>
      <trkpt lat="43.05335410754" lon="-5.39989590171">
        <ele>1696.35</ele>
        <time>2012-12-18T12:46:48+01:00</time>
      </trkpt>
      <trkpt lat="43.05334237813" lon="-5.39992245143">
        <ele>1696.88</ele>
        <time>2012-12-18T12:46:50+01:00</time>
      </trkpt>
      <trkpt lat="43.05332454565" lon="-5.39998104097">
        <ele>1697.44</ele>
        <time>2012-12-18T12:46:52+01:00</time>
      </trkpt>
      <trkpt lat="43.05331280313" lon="-5.400012295">
        <ele>1697.97</ele>
        <time>2012-12-18T12:46:54+01:00</time>
      </trkpt>
      <trkpt lat="43.05328801994" lon="-5.40007069172">
        <ele>1699.05</ele>
        <time>2012-12-18T12:46:56+01:00</time>
      </trkpt>
      <trkpt lat="43.05327708496" lon="-5.40010200546">
        <ele>1698.97</ele>
        <time>2012-12-18T12:46:58+01:00</time>
      </trkpt>
      <trkpt lat="43.05326419949" lon="-5.40013576724">
        <ele>1699.43</ele>
        <time>2012-12-18T12:47:00+01:00</time>
      </trkpt>
      <trkpt lat="43.05325586924" lon="-5.4001958349">
        <ele>1701.25</ele>
        <time>2012-12-18T12:47:02+01:00</time>
      </trkpt>
      <trkpt lat="43.0532503646" lon="-5.400222496">
        <ele>1702.02</ele>
        <time>2012-12-18T12:47:04+01:00</time>
      </trkpt>
      <trkpt lat="43.05323633846" lon="-5.40027507262">
        <ele>1702.73</ele>
        <time>2012-12-18T12:47:06+01:00</time>
      </trkpt>
      <trkpt lat="43.05322310614" lon="-5.40031891439">
        <ele>1703.82</ele>
        <time>2012-12-18T12:47:08+01:00</time>
      </trkpt>
      <trkpt lat="43.05321177603" lon="-5.40036127741">
        <ele>1705.21</ele>
        <time>2012-12-18T12:47:10+01:00</time>
      </trkpt>
      <trkpt lat="43.05320159749" lon="-5.40040535634">
        <ele>1706.28</ele>
        <time>2012-12-18T12:47:12+01:00</time>
      </trkpt>
      <trkpt lat="43.05319238687" lon="-5.40044904084">
        <ele>1707.78</ele>
        <time>2012-12-18T12:47:14+01:00</time>
      </trkpt>
      <trkpt lat="43.05317813953" lon="-5.40048976309">
        <ele>1709.09</ele>
        <time>2012-12-18T12:47:16+01:00</time>
      </trkpt>
      <trkpt lat="43.05316080613" lon="-5.40052593662">
        <ele>1710.34</ele>
        <time>2012-12-18T12:47:18+01:00</time>
      </trkpt>
      <trkpt lat="43.05314000568" lon="-5.40056240741">
        <ele>1711.6</ele>
        <time>2012-12-18T12:47:20+01:00</time>
      </trkpt>
      <trkpt lat="43.05312470704" lon="-5.40058507116">
        <ele>1712.77</ele>
        <time>2012-12-18T12:47:22+01:00</time>
      </trkpt>
      <trkpt lat="43.05310838245" lon="-5.40060700615">
        <ele>1713.77</ele>
        <time>2012-12-18T12:47:23+01:00</time>
      </trkpt>
      <trkpt lat="43.05308177762" lon="-5.40064212261">
        <ele>1714.61</ele>
        <time>2012-12-18T12:47:24+01:00</time>
      </trkpt>
      <trkpt lat="43.05305064039" lon="-5.40067455983">
        <ele>1715.63</ele>
        <time>2012-12-18T12:47:26+01:00</time>
      </trkpt>
      <trkpt lat="43.05303371764" lon="-5.40071202679">
        <ele>1716.92</ele>
        <time>2012-12-18T12:47:28+01:00</time>
      </trkpt>
      <trkpt lat="43.0530195372" lon="-5.40075137141">
        <ele>1718</ele>
        <time>2012-12-18T12:47:30+01:00</time>
      </trkpt>
      <trkpt lat="43.05301170872" lon="-5.4007783339">
        <ele>1719.15</ele>
        <time>2012-12-18T12:47:32+01:00</time>
      </trkpt>
      <trkpt lat="43.0529905932" lon="-5.4008277318">
        <ele>1720.57</ele>
        <time>2012-12-18T12:47:34+01:00</time>
      </trkpt>
      <trkpt lat="43.05296504653" lon="-5.40086926145">
        <ele>1721.64</ele>
        <time>2012-12-18T12:47:36+01:00</time>
      </trkpt>
      <trkpt lat="43.05294737346" lon="-5.40089255757">
        <ele>1721.62</ele>
        <time>2012-12-18T12:47:38+01:00</time>
      </trkpt>
      <trkpt lat="43.05293218764" lon="-5.40092909988">
        <ele>1722.44</ele>
        <time>2012-12-18T12:47:40+01:00</time>
      </trkpt>
      <trkpt lat="43.05291552131" lon="-5.40095793223">
        <ele>1723.29</ele>
        <time>2012-12-18T12:47:41+01:00</time>
      </trkpt>
      <trkpt lat="43.05291105093" lon="-5.40096611283">
        <ele>1724.02</ele>
        <time>2012-12-18T12:47:43+01:00</time>
      </trkpt>
      <trkpt lat="43.05288255232" lon="-5.40102823887">
        <ele>1724.92</ele>
        <time>2012-12-18T12:47:45+01:00</time>
      </trkpt>
      <trkpt lat="43.0528591877" lon="-5.40107992137">
        <ele>1725.8</ele>
        <time>2012-12-18T12:47:47+01:00</time>
      </trkpt>
      <trkpt lat="43.05283834816" lon="-5.40112675929">
        <ele>1726.6</ele>
        <time>2012-12-18T12:47:49+01:00</time>
      </trkpt>
      <trkpt lat="43.05282078282" lon="-5.40117477913">
        <ele>1727.45</ele>
        <time>2012-12-18T12:47:51+01:00</time>
      </trkpt>
      <trkpt lat="43.05280460312" lon="-5.40122213266">
        <ele>1728.33</ele>
        <time>2012-12-18T12:47:53+01:00</time>
      </trkpt>
      <trkpt lat="43.05280169014" lon="-5.40123154511">
        <ele>1729.31</ele>
        <time>2012-12-18T12:47:55+01:00</time>
      </trkpt>
      <trkpt lat="43.05278420221" lon="-5.40129225752">
        <ele>1730.48</ele>
        <time>2012-12-18T12:47:57+01:00</time>
      </trkpt>
      <trkpt lat="43.05276787263" lon="-5.40134105392">
        <ele>1731.54</ele>
        <time>2012-12-18T12:47:59+01:00</time>
      </trkpt>
      <trkpt lat="43.05275099065" lon="-5.40137873743">
        <ele>1732.56</ele>
        <time>2012-12-18T12:48:01+01:00</time>
      </trkpt>
      <trkpt lat="43.05273324576" lon="-5.40141384008">
        <ele>1733.54</ele>
        <time>2012-12-18T12:48:03+01:00</time>
      </trkpt>
      <trkpt lat="43.05271270151" lon="-5.40145175943">
        <ele>1734.42</ele>
        <time>2012-12-18T12:48:05+01:00</time>
      </trkpt>
      <trkpt lat="43.05269082045" lon="-5.40149075185">
        <ele>1735.52</ele>
        <time>2012-12-18T12:48:07+01:00</time>
      </trkpt>
      <trkpt lat="43.05267248289" lon="-5.40153459749">
        <ele>1736.46</ele>
        <time>2012-12-18T12:48:09+01:00</time>
      </trkpt>
      <trkpt lat="43.05265377969" lon="-5.40157747507">
        <ele>1737.48</ele>
        <time>2012-12-18T12:48:11+01:00</time>
      </trkpt>
      <trkpt lat="43.05263460031" lon="-5.40162037153">
        <ele>1738.36</ele>
        <time>2012-12-18T12:48:13+01:00</time>
      </trkpt>
      <trkpt lat="43.05261935284" lon="-5.40165489553">
        <ele>1739.25</ele>
        <time>2012-12-18T12:48:14+01:00</time>
      </trkpt>
      <trkpt lat="43.0526046883" lon="-5.40168582003">
        <ele>1740.13</ele>
        <time>2012-12-18T12:48:15+01:00</time>
      </trkpt>
      <trkpt lat="43.05258363067" lon="-5.40172148267">
        <ele>1740.96</ele>
        <time>2012-12-18T12:48:17+01:00</time>
      </trkpt>
      <trkpt lat="43.05256331598" lon="-5.40175934674">
        <ele>1741.78</ele>
        <time>2012-12-18T12:48:19+01:00</time>
      </trkpt>
      <trkpt lat="43.05254492341" lon="-5.40179148027">
        <ele>1742.66</ele>
        <time>2012-12-18T12:48:21+01:00</time>
      </trkpt>
      <trkpt lat="43.05252770146" lon="-5.40182607104">
        <ele>1743.31</ele>
        <time>2012-12-18T12:48:23+01:00</time>
      </trkpt>
      <trkpt lat="43.05250946472" lon="-5.40189243452">
        <ele>1744.39</ele>
        <time>2012-12-18T12:48:25+01:00</time>
      </trkpt>
      <trkpt lat="43.05249495443" lon="-5.4019362844">
        <ele>1745.54</ele>
        <time>2012-12-18T12:48:27+01:00</time>
      </trkpt>
      <trkpt lat="43.05248542929" lon="-5.40195936763">
        <ele>1746.62</ele>
        <time>2012-12-18T12:48:29+01:00</time>
      </trkpt>
      <trkpt lat="43.05247488321" lon="-5.40198402693">
        <ele>1748.03</ele>
        <time>2012-12-18T12:48:31+01:00</time>
      </trkpt>
      <trkpt lat="43.05246466938" lon="-5.40203252105">
        <ele>1749.68</ele>
        <time>2012-12-18T12:48:33+01:00</time>
      </trkpt>
      <trkpt lat="43.05246699687" lon="-5.40205941185">
        <ele>1751.31</ele>
        <time>2012-12-18T12:48:35+01:00</time>
      </trkpt>
      <trkpt lat="43.05247221162" lon="-5.40211109934">
        <ele>1752.78</ele>
        <time>2012-12-18T12:48:37+01:00</time>
      </trkpt>
      <trkpt lat="43.05246849365" lon="-5.40215677494">
        <ele>1756.83</ele>
        <time>2012-12-18T12:48:39+01:00</time>
      </trkpt>
      <trkpt lat="43.05245779236" lon="-5.40220091288">
        <ele>1759.1</ele>
        <time>2012-12-18T12:48:41+01:00</time>
      </trkpt>
      <trkpt lat="43.05244502385" lon="-5.40224139054">
        <ele>1761.73</ele>
        <time>2012-12-18T12:48:43+01:00</time>
      </trkpt>
      <trkpt lat="43.05243331711" lon="-5.40227872215">
        <ele>1764.67</ele>
        <time>2012-12-18T12:48:45+01:00</time>
      </trkpt>
      <trkpt lat="43.05241531836" lon="-5.40231341289">
        <ele>1766.62</ele>
        <time>2012-12-18T12:48:47+01:00</time>
      </trkpt>
      <trkpt lat="43.05240399511" lon="-5.40234025465">
        <ele>1768.42</ele>
        <time>2012-12-18T12:48:49+01:00</time>
      </trkpt>
      <trkpt lat="43.05238239718" lon="-5.402393244">
        <ele>1770.43</ele>
        <time>2012-12-18T12:48:51+01:00</time>
      </trkpt>
      <trkpt lat="43.0523739537" lon="-5.40244253274">
        <ele>1772.12</ele>
        <time>2012-12-18T12:48:53+01:00</time>
      </trkpt>
      <trkpt lat="43.05237062215" lon="-5.40249108135">
        <ele>1773.76</ele>
        <time>2012-12-18T12:48:55+01:00</time>
      </trkpt>
      <trkpt lat="43.05236825691" lon="-5.40252321765">
        <ele>1775.14</ele>
        <time>2012-12-18T12:48:57+01:00</time>
      </trkpt>
      <trkpt lat="43.05235597116" lon="-5.40258627645">
        <ele>1776.89</ele>
        <time>2012-12-18T12:48:59+01:00</time>
      </trkpt>
      <trkpt lat="43.0523399018" lon="-5.40263436042">
        <ele>1778.47</ele>
        <time>2012-12-18T12:49:01+01:00</time>
      </trkpt>
      <trkpt lat="43.05232247222" lon="-5.40268541734">
        <ele>1779.9</ele>
        <time>2012-12-18T12:49:03+01:00</time>
      </trkpt>
      <trkpt lat="43.05229585225" lon="-5.40272560241">
        <ele>1781.16</ele>
        <time>2012-12-18T12:49:05+01:00</time>
      </trkpt>
      <trkpt lat="43.05227399915" lon="-5.4027582487">
        <ele>1782.22</ele>
        <time>2012-12-18T12:49:07+01:00</time>
      </trkpt>
      <trkpt lat="43.05225547987" lon="-5.40279743385">
        <ele>1783.42</ele>
        <time>2012-12-18T12:49:09+01:00</time>
      </trkpt>
      <trkpt lat="43.05224442683" lon="-5.40282211328">
        <ele>1784.36</ele>
        <time>2012-12-18T12:49:11+01:00</time>
      </trkpt>
      <trkpt lat="43.05222083225" lon="-5.40288061475">
        <ele>1785.2</ele>
        <time>2012-12-18T12:49:13+01:00</time>
      </trkpt>
      <trkpt lat="43.05220226642" lon="-5.40293248112">
        <ele>1786.34</ele>
        <time>2012-12-18T12:49:15+01:00</time>
      </trkpt>
      <trkpt lat="43.05219731274" lon="-5.40297973477">
        <ele>1787.83</ele>
        <time>2012-12-18T12:49:17+01:00</time>
      </trkpt>
      <trkpt lat="43.05219229869" lon="-5.40302868103">
        <ele>1789.43</ele>
        <time>2012-12-18T12:49:19+01:00</time>
      </trkpt>
      <trkpt lat="43.05218522738" lon="-5.40307508244">
        <ele>1790.62</ele>
        <time>2012-12-18T12:49:21+01:00</time>
      </trkpt>
      <trkpt lat="43.05217372131" lon="-5.40312721101">
        <ele>1791.96</ele>
        <time>2012-12-18T12:49:23+01:00</time>
      </trkpt>
      <trkpt lat="43.0521573385" lon="-5.40317250544">
        <ele>1793.25</ele>
        <time>2012-12-18T12:49:26+01:00</time>
      </trkpt>
      <trkpt lat="43.05213987975" lon="-5.40321240973">
        <ele>1794.77</ele>
        <time>2012-12-18T12:49:27+01:00</time>
      </trkpt>
      <trkpt lat="43.05211908776" lon="-5.40324781617">
        <ele>1796.03</ele>
        <time>2012-12-18T12:49:29+01:00</time>
      </trkpt>
      <trkpt lat="43.05210021073" lon="-5.40328896152">
        <ele>1797.52</ele>
        <time>2012-12-18T12:49:31+01:00</time>
      </trkpt>
      <trkpt lat="43.05209081031" lon="-5.40331627482">
        <ele>1798.89</ele>
        <time>2012-12-18T12:49:33+01:00</time>
      </trkpt>
      <trkpt lat="43.0520612288" lon="-5.40336025368">
        <ele>1799.89</ele>
        <time>2012-12-18T12:49:34+01:00</time>
      </trkpt>
      <trkpt lat="43.05204223414" lon="-5.40339127394">
        <ele>1800.69</ele>
        <time>2012-12-18T12:49:36+01:00</time>
      </trkpt>
      <trkpt lat="43.0520063854" lon="-5.40344888014">
        <ele>1801.9</ele>
        <time>2012-12-18T12:49:38+01:00</time>
      </trkpt>
      <trkpt lat="43.05197494166" lon="-5.40349459955">
        <ele>1803.06</ele>
        <time>2012-12-18T12:49:41+01:00</time>
      </trkpt>
      <trkpt lat="43.05194867045" lon="-5.40352352472">
        <ele>1803.94</ele>
        <time>2012-12-18T12:49:41+01:00</time>
      </trkpt>
      <trkpt lat="43.05193201682" lon="-5.40355606479">
        <ele>1805.08</ele>
        <time>2012-12-18T12:49:43+01:00</time>
      </trkpt>
      <trkpt lat="43.05190350686" lon="-5.40360139778">
        <ele>1806.14</ele>
        <time>2012-12-18T12:49:45+01:00</time>
      </trkpt>
      <trkpt lat="43.05188006876" lon="-5.40365036224">
        <ele>1807.48</ele>
        <time>2012-12-18T12:49:47+01:00</time>
      </trkpt>
      <trkpt lat="43.05186508816" lon="-5.40370058943">
        <ele>1808.53</ele>
        <time>2012-12-18T12:49:49+01:00</time>
      </trkpt>
      <trkpt lat="43.0518535425" lon="-5.40374536948">
        <ele>1809.83</ele>
        <time>2012-12-18T12:49:51+01:00</time>
      </trkpt>
      <trkpt lat="43.05184328733" lon="-5.4037936869">
        <ele>1810.98</ele>
        <time>2012-12-18T12:49:53+01:00</time>
      </trkpt>
      <trkpt lat="43.0518444123" lon="-5.40384084358">
        <ele>1812.78</ele>
        <time>2012-12-18T12:49:55+01:00</time>
      </trkpt>
      <trkpt lat="43.05184783153" lon="-5.4038805075">
        <ele>1814.48</ele>
        <time>2012-12-18T12:49:57+01:00</time>
      </trkpt>
      <trkpt lat="43.05184647019" lon="-5.40392163262">
        <ele>1815.75</ele>
        <time>2012-12-18T12:49:59+01:00</time>
      </trkpt>
      <trkpt lat="43.05184529637" lon="-5.40396822715">
        <ele>1817.22</ele>
        <time>2012-12-18T12:50:01+01:00</time>
      </trkpt>
      <trkpt lat="43.05183788301" lon="-5.40399818515">
        <ele>1818.77</ele>
        <time>2012-12-18T12:50:03+01:00</time>
      </trkpt>
      <trkpt lat="43.05182624147" lon="-5.40402871896">
        <ele>1820.74</ele>
        <time>2012-12-18T12:50:05+01:00</time>
      </trkpt>
      <trkpt lat="43.05182158532" lon="-5.40407413744">
        <ele>1822.72</ele>
        <time>2012-12-18T12:50:07+01:00</time>
      </trkpt>
      <trkpt lat="43.05182113791" lon="-5.40411559146">
        <ele>1824.83</ele>
        <time>2012-12-18T12:50:09+01:00</time>
      </trkpt>
      <trkpt lat="43.05182282539" lon="-5.40416109791">
        <ele>1826.01</ele>
        <time>2012-12-18T12:50:11+01:00</time>
      </trkpt>
      <trkpt lat="43.05180653319" lon="-5.40420882301">
        <ele>1827.82</ele>
        <time>2012-12-18T12:50:13+01:00</time>
      </trkpt>
      <trkpt lat="43.0517957981" lon="-5.40424505601">
        <ele>1829.83</ele>
        <time>2012-12-18T12:50:15+01:00</time>
      </trkpt>
      <trkpt lat="43.05177712196" lon="-5.40427563783">
        <ele>1831.92</ele>
        <time>2012-12-18T12:50:17+01:00</time>
      </trkpt>
      <trkpt lat="43.05176614477" lon="-5.40431099027">
        <ele>1834.14</ele>
        <time>2012-12-18T12:50:19+01:00</time>
      </trkpt>
      <trkpt lat="43.05175945043" lon="-5.40434761068">
        <ele>1836.22</ele>
        <time>2012-12-18T12:50:21+01:00</time>
      </trkpt>
      <trkpt lat="43.05175567025" lon="-5.40437943135">
        <ele>1838</ele>
        <time>2012-12-18T12:50:23+01:00</time>
      </trkpt>
      <trkpt lat="43.05175370722" lon="-5.40441489745">
        <ele>1839.85</ele>
        <time>2012-12-18T12:50:25+01:00</time>
      </trkpt>
      <trkpt lat="43.05174922425" lon="-5.40445417718">
        <ele>1842.1</ele>
        <time>2012-12-18T12:50:27+01:00</time>
      </trkpt>
      <trkpt lat="43.05174628247" lon="-5.40448724589">
        <ele>1844.59</ele>
        <time>2012-12-18T12:50:29+01:00</time>
      </trkpt>
      <trkpt lat="43.05174260957" lon="-5.40452329688">
        <ele>1846.45</ele>
        <time>2012-12-18T12:50:31+01:00</time>
      </trkpt>
      <trkpt lat="43.05172413888" lon="-5.40456939911">
        <ele>1848</ele>
        <time>2012-12-18T12:50:33+01:00</time>
      </trkpt>
      <trkpt lat="43.05170438502" lon="-5.40461657281">
        <ele>1849.79</ele>
        <time>2012-12-18T12:50:35+01:00</time>
      </trkpt>
      <trkpt lat="43.05167914421" lon="-5.40466154682">
        <ele>1851.33</ele>
        <time>2012-12-18T12:50:37+01:00</time>
      </trkpt>
      <trkpt lat="43.05166132203" lon="-5.40469005469">
        <ele>1852.67</ele>
        <time>2012-12-18T12:50:38+01:00</time>
      </trkpt>
      <trkpt lat="43.05164786251" lon="-5.40471608168">
        <ele>1854.14</ele>
        <time>2012-12-18T12:50:40+01:00</time>
      </trkpt>
      <trkpt lat="43.05162807596" lon="-5.40476667579">
        <ele>1855.35</ele>
        <time>2012-12-18T12:50:42+01:00</time>
      </trkpt>
      <trkpt lat="43.05160685193" lon="-5.40480924934">
        <ele>1856.22</ele>
        <time>2012-12-18T12:50:44+01:00</time>
      </trkpt>
      <trkpt lat="43.05158601096" lon="-5.40485585141">
        <ele>1857.33</ele>
        <time>2012-12-18T12:50:46+01:00</time>
      </trkpt>
      <trkpt lat="43.05156554834" lon="-5.40490587435">
        <ele>1858.45</ele>
        <time>2012-12-18T12:50:48+01:00</time>
      </trkpt>
      <trkpt lat="43.05156376923" lon="-5.40494571852">
        <ele>1860.11</ele>
        <time>2012-12-18T12:50:50+01:00</time>
      </trkpt>
      <trkpt lat="43.05154983472" lon="-5.4049813141">
        <ele>1860.94</ele>
        <time>2012-12-18T12:50:52+01:00</time>
      </trkpt>
      <trkpt lat="43.05153380441" lon="-5.40500962267">
        <ele>1861.73</ele>
        <time>2012-12-18T12:50:53+01:00</time>
      </trkpt>
      <trkpt lat="43.0515152427" lon="-5.40504210647">
        <ele>1862.73</ele>
        <time>2012-12-18T12:50:55+01:00</time>
      </trkpt>
      <trkpt lat="43.05149272137" lon="-5.40508132618">
        <ele>1863.51</ele>
        <time>2012-12-18T12:50:57+01:00</time>
      </trkpt>
      <trkpt lat="43.05147225796" lon="-5.40512149074">
        <ele>1864.76</ele>
        <time>2012-12-18T12:50:59+01:00</time>
      </trkpt>
      <trkpt lat="43.05144924703" lon="-5.40516507798">
        <ele>1865.73</ele>
        <time>2012-12-18T12:51:01+01:00</time>
      </trkpt>
      <trkpt lat="43.05143409232" lon="-5.40519865786">
        <ele>1866.79</ele>
        <time>2012-12-18T12:51:03+01:00</time>
      </trkpt>
      <trkpt lat="43.05141708036" lon="-5.40523387231">
        <ele>1867.44</ele>
        <time>2012-12-18T12:51:05+01:00</time>
      </trkpt>
      <trkpt lat="43.0514065091" lon="-5.40525960606">
        <ele>1868.22</ele>
        <time>2012-12-18T12:51:07+01:00</time>
      </trkpt>
      <trkpt lat="43.05138557982" lon="-5.40531009969">
        <ele>1869.13</ele>
        <time>2012-12-18T12:51:09+01:00</time>
      </trkpt>
      <trkpt lat="43.05137720301" lon="-5.40535446363">
        <ele>1870.51</ele>
        <time>2012-12-18T12:51:11+01:00</time>
      </trkpt>
      <trkpt lat="43.05137139918" lon="-5.40538293363">
        <ele>1871.47</ele>
        <time>2012-12-18T12:51:13+01:00</time>
      </trkpt>
      <trkpt lat="43.05134902001" lon="-5.40541543264">
        <ele>1871.73</ele>
        <time>2012-12-18T12:51:15+01:00</time>
      </trkpt>
      <trkpt lat="43.05132459525" lon="-5.40544855336">
        <ele>1873.01</ele>
        <time>2012-12-18T12:51:17+01:00</time>
      </trkpt>
      <trkpt lat="43.05130756533" lon="-5.40547297766">
        <ele>1874</ele>
        <time>2012-12-18T12:51:19+01:00</time>
      </trkpt>
      <trkpt lat="43.05127694289" lon="-5.40551296894">
        <ele>1874.68</ele>
        <time>2012-12-18T12:51:20+01:00</time>
      </trkpt>
      <trkpt lat="43.05126434758" lon="-5.40556462015">
        <ele>1876.09</ele>
        <time>2012-12-18T12:51:22+01:00</time>
      </trkpt>
      <trkpt lat="43.05125421774" lon="-5.40561719518">
        <ele>1877.12</ele>
        <time>2012-12-18T12:51:24+01:00</time>
      </trkpt>
      <trkpt lat="43.05125115242" lon="-5.40566680339">
        <ele>1878.21</ele>
        <time>2012-12-18T12:51:26+01:00</time>
      </trkpt>
      <trkpt lat="43.0512436662" lon="-5.40572218847">
        <ele>1879.11</ele>
        <time>2012-12-18T12:51:28+01:00</time>
      </trkpt>
      <trkpt lat="43.05123268064" lon="-5.40576437911">
        <ele>1880.37</ele>
        <time>2012-12-18T12:51:30+01:00</time>
      </trkpt>
      <trkpt lat="43.05122391211" lon="-5.40581553142">
        <ele>1881.82</ele>
        <time>2012-12-18T12:51:32+01:00</time>
      </trkpt>
      <trkpt lat="43.0512130389" lon="-5.40585593673">
        <ele>1882.76</ele>
        <time>2012-12-18T12:51:34+01:00</time>
      </trkpt>
      <trkpt lat="43.05120895318" lon="-5.40588990111">
        <ele>1883.84</ele>
        <time>2012-12-18T12:51:37+01:00</time>
      </trkpt>
      <trkpt lat="43.05119519438" lon="-5.40592981927">
        <ele>1885</ele>
        <time>2012-12-18T12:51:38+01:00</time>
      </trkpt>
      <trkpt lat="43.05118399366" lon="-5.40596442382">
        <ele>1886.06</ele>
        <time>2012-12-18T12:51:40+01:00</time>
      </trkpt>
      <trkpt lat="43.05116824189" lon="-5.40600413474">
        <ele>1887.09</ele>
        <time>2012-12-18T12:51:42+01:00</time>
      </trkpt>
      <trkpt lat="43.05115624025" lon="-5.40603668619">
        <ele>1888</ele>
        <time>2012-12-18T12:51:44+01:00</time>
      </trkpt>
      <trkpt lat="43.05113801488" lon="-5.40608021097">
        <ele>1888.9</ele>
        <time>2012-12-18T12:51:45+01:00</time>
      </trkpt>
      <trkpt lat="43.05112293689" lon="-5.40612210826">
        <ele>1889.84</ele>
        <time>2012-12-18T12:51:47+01:00</time>
      </trkpt>
      <trkpt lat="43.05111006418" lon="-5.40615516404">
        <ele>1890.69</ele>
        <time>2012-12-18T12:51:49+01:00</time>
      </trkpt>
      <trkpt lat="43.05109937595" lon="-5.40619416287">
        <ele>1891.48</ele>
        <time>2012-12-18T12:51:51+01:00</time>
      </trkpt>
      <trkpt lat="43.05109301383" lon="-5.4062348197">
        <ele>1891.78</ele>
        <time>2012-12-18T12:51:53+01:00</time>
      </trkpt>
      <trkpt lat="43.0510849353" lon="-5.40626695683">
        <ele>1892.54</ele>
        <time>2012-12-18T12:51:54+01:00</time>
      </trkpt>
      <trkpt lat="43.05108140852" lon="-5.4063104658">
        <ele>1893.26</ele>
        <time>2012-12-18T12:51:56+01:00</time>
      </trkpt>
      <trkpt lat="43.05107641163" lon="-5.40635403631">
        <ele>1893.87</ele>
        <time>2012-12-18T12:51:58+01:00</time>
      </trkpt>
      <trkpt lat="43.05107920087" lon="-5.40639071244">
        <ele>1894.54</ele>
        <time>2012-12-18T12:51:59+01:00</time>
      </trkpt>
      <trkpt lat="43.05108411731" lon="-5.40643419043">
        <ele>1894.46</ele>
        <time>2012-12-18T12:52:01+01:00</time>
      </trkpt>
      <trkpt lat="43.05106065897" lon="-5.40646521542">
        <ele>1894.58</ele>
        <time>2012-12-18T12:52:04+01:00</time>
      </trkpt>
      <trkpt lat="43.05103947171" lon="-5.40649368275">
        <ele>1894.68</ele>
        <time>2012-12-18T12:52:05+01:00</time>
      </trkpt>
      <trkpt lat="43.05101324015" lon="-5.40652338199">
        <ele>1894.81</ele>
        <time>2012-12-18T12:52:05+01:00</time>
      </trkpt>
      <trkpt lat="43.05098891662" lon="-5.40655527221">
        <ele>1894.98</ele>
        <time>2012-12-18T12:52:06+01:00</time>
      </trkpt>
      <trkpt lat="43.05097560296" lon="-5.40658733241">
        <ele>1895.27</ele>
        <time>2012-12-18T12:52:07+01:00</time>
      </trkpt>
      <trkpt lat="43.05096804344" lon="-5.40662517342">
        <ele>1895.73</ele>
        <time>2012-12-18T12:52:09+01:00</time>
      </trkpt>
      <trkpt lat="43.05097739624" lon="-5.40665059824">
        <ele>1896.45</ele>
        <time>2012-12-18T12:52:31+01:00</time>
      </trkpt>
      <trkpt lat="43.05098416183" lon="-5.40668056069">
        <ele>1896.36</ele>
        <time>2012-12-18T12:52:39+01:00</time>
      </trkpt>
      <trkpt lat="43.05100945366" lon="-5.40669359398">
        <ele>1897.82</ele>
        <time>2012-12-18T12:52:41+01:00</time>
      </trkpt>
      <trkpt lat="43.05103848427" lon="-5.40670069334">
        <ele>1898.25</ele>
        <time>2012-12-18T12:52:44+01:00</time>
      </trkpt>
      <trkpt lat="43.05107195068" lon="-5.40671954757">
        <ele>1899.08</ele>
        <time>2012-12-18T12:52:46+01:00</time>
      </trkpt>
      <trkpt lat="43.05110476197" lon="-5.40674383731">
        <ele>1899.6</ele>
        <time>2012-12-18T12:52:48+01:00</time>
      </trkpt>
      <trkpt lat="43.05112994767" lon="-5.40673406421">
        <ele>1900.25</ele>
        <time>2012-12-18T12:53:04+01:00</time>
      </trkpt>
      <trkpt lat="43.05116427232" lon="-5.40671851039">
        <ele>1900.27</ele>
        <time>2012-12-18T12:53:06+01:00</time>
      </trkpt>
      <trkpt lat="43.05125467446" lon="-5.40672904209">
        <ele>1899.88</ele>
        <time>2012-12-18T12:53:07+01:00</time>
      </trkpt>
      <trkpt lat="43.05132579943" lon="-5.40673854422">
        <ele>1899.68</ele>
        <time>2012-12-18T12:53:08+01:00</time>
      </trkpt>
      <trkpt lat="43.05139175289" lon="-5.40672184214">
        <ele>1899.46</ele>
        <time>2012-12-18T12:53:09+01:00</time>
      </trkpt>
      <trkpt lat="43.05147453974" lon="-5.4066705343">
        <ele>1898.75</ele>
        <time>2012-12-18T12:53:10+01:00</time>
      </trkpt>
      <trkpt lat="43.05155282408" lon="-5.4066332673">
        <ele>1898.05</ele>
        <time>2012-12-18T12:53:12+01:00</time>
      </trkpt>
      <trkpt lat="43.05162817902" lon="-5.40660279731">
        <ele>1897.51</ele>
        <time>2012-12-18T12:53:12+01:00</time>
      </trkpt>
      <trkpt lat="43.05173729496" lon="-5.40660401234">
        <ele>1896.44</ele>
        <time>2012-12-18T12:53:13+01:00</time>
      </trkpt>
      <trkpt lat="43.05183240951" lon="-5.40658071896">
        <ele>1895.88</ele>
        <time>2012-12-18T12:53:14+01:00</time>
      </trkpt>
      <trkpt lat="43.05192365089" lon="-5.40662722342">
        <ele>1894.25</ele>
        <time>2012-12-18T12:53:15+01:00</time>
      </trkpt>
      <trkpt lat="43.05202806514" lon="-5.40663484793">
        <ele>1892.97</ele>
        <time>2012-12-18T12:53:16+01:00</time>
      </trkpt>
      <trkpt lat="43.05214138361" lon="-5.40662363234">
        <ele>1891.61</ele>
        <time>2012-12-18T12:53:17+01:00</time>
      </trkpt>
      <trkpt lat="43.0522502468" lon="-5.40657632811">
        <ele>1890.35</ele>
        <time>2012-12-18T12:53:19+01:00</time>
      </trkpt>
      <trkpt lat="43.05236764019" lon="-5.40655459616">
        <ele>1889.16</ele>
        <time>2012-12-18T12:53:19+01:00</time>
      </trkpt>
      <trkpt lat="43.05248808072" lon="-5.406548104">
        <ele>1888.21</ele>
        <time>2012-12-18T12:53:20+01:00</time>
      </trkpt>
      <trkpt lat="43.05258482317" lon="-5.40649550832">
        <ele>1887</ele>
        <time>2012-12-18T12:53:21+01:00</time>
      </trkpt>
      <trkpt lat="43.05267612191" lon="-5.40643912341">
        <ele>1885.92</ele>
        <time>2012-12-18T12:53:22+01:00</time>
      </trkpt>
      <trkpt lat="43.05277199808" lon="-5.40637527513">
        <ele>1884.86</ele>
        <time>2012-12-18T12:53:23+01:00</time>
      </trkpt>
      <trkpt lat="43.05284592391" lon="-5.40634151719">
        <ele>1883.8</ele>
        <time>2012-12-18T12:53:24+01:00</time>
      </trkpt>
      <trkpt lat="43.05291371623" lon="-5.40632524376">
        <ele>1883.68</ele>
        <time>2012-12-18T12:53:26+01:00</time>
      </trkpt>
      <trkpt lat="43.05298658504" lon="-5.40633352257">
        <ele>1881.37</ele>
        <time>2012-12-18T12:53:26+01:00</time>
      </trkpt>
      <trkpt lat="43.0530591951" lon="-5.40636474969">
        <ele>1880.14</ele>
        <time>2012-12-18T12:53:27+01:00</time>
      </trkpt>
      <trkpt lat="43.05310084095" lon="-5.40642430402">
        <ele>1880.15</ele>
        <time>2012-12-18T12:53:28+01:00</time>
      </trkpt>
      <trkpt lat="43.05313404761" lon="-5.40645452096">
        <ele>1879.34</ele>
        <time>2012-12-18T12:53:29+01:00</time>
      </trkpt>
      <trkpt lat="43.05312087412" lon="-5.40640839538">
        <ele>1878.14</ele>
        <time>2012-12-18T12:53:33+01:00</time>
      </trkpt>
      <trkpt lat="43.05313171753" lon="-5.40634887885">
        <ele>1875.2</ele>
        <time>2012-12-18T12:53:34+01:00</time>
      </trkpt>
      <trkpt lat="43.05315349986" lon="-5.40631840124">
        <ele>1873.95</ele>
        <time>2012-12-18T12:53:35+01:00</time>
      </trkpt>
      <trkpt lat="43.05317197145" lon="-5.40627810756">
        <ele>1872.49</ele>
        <time>2012-12-18T12:53:36+01:00</time>
      </trkpt>
      <trkpt lat="43.0531807955" lon="-5.40623430838">
        <ele>1870.91</ele>
        <time>2012-12-18T12:53:37+01:00</time>
      </trkpt>
      <trkpt lat="43.0531812192" lon="-5.40619309382">
        <ele>1869.25</ele>
        <time>2012-12-18T12:53:40+01:00</time>
      </trkpt>
      <trkpt lat="43.05317570483" lon="-5.40615367023">
        <ele>1868.03</ele>
        <time>2012-12-18T12:53:41+01:00</time>
      </trkpt>
      <trkpt lat="43.05319421561" lon="-5.40614390796">
        <ele>1866.48</ele>
        <time>2012-12-18T12:53:43+01:00</time>
      </trkpt>
      <trkpt lat="43.05323691038" lon="-5.40614168729">
        <ele>1866.63</ele>
        <time>2012-12-18T12:53:46+01:00</time>
      </trkpt>
      <trkpt lat="43.05330931943" lon="-5.40616551715">
        <ele>1863.94</ele>
        <time>2012-12-18T12:53:47+01:00</time>
      </trkpt>
      <trkpt lat="43.05336336383" lon="-5.40617055134">
        <ele>1862.47</ele>
        <time>2012-12-18T12:53:48+01:00</time>
      </trkpt>
      <trkpt lat="43.05340984609" lon="-5.40615875063">
        <ele>1861.29</ele>
        <time>2012-12-18T12:53:48+01:00</time>
      </trkpt>
      <trkpt lat="43.05347258555" lon="-5.40612225938">
        <ele>1859.96</ele>
        <time>2012-12-18T12:53:49+01:00</time>
      </trkpt>
      <trkpt lat="43.05353636364" lon="-5.40607573382">
        <ele>1858.56</ele>
        <time>2012-12-18T12:53:50+01:00</time>
      </trkpt>
      <trkpt lat="43.05359213518" lon="-5.40602740257">
        <ele>1858.66</ele>
        <time>2012-12-18T12:53:52+01:00</time>
      </trkpt>
      <trkpt lat="43.0536360795" lon="-5.40596932244">
        <ele>1856.64</ele>
        <time>2012-12-18T12:53:53+01:00</time>
      </trkpt>
      <trkpt lat="43.05369656794" lon="-5.40592156365">
        <ele>1855.69</ele>
        <time>2012-12-18T12:53:54+01:00</time>
      </trkpt>
      <trkpt lat="43.05374192502" lon="-5.40584757182">
        <ele>1854.55</ele>
        <time>2012-12-18T12:53:54+01:00</time>
      </trkpt>
      <trkpt lat="43.05379233598" lon="-5.4058121875">
        <ele>1853.36</ele>
        <time>2012-12-18T12:53:55+01:00</time>
      </trkpt>
      <trkpt lat="43.05381277821" lon="-5.40577319235">
        <ele>1852.26</ele>
        <time>2012-12-18T12:53:56+01:00</time>
      </trkpt>
      <trkpt lat="43.05382679082" lon="-5.40572898233">
        <ele>1852.37</ele>
        <time>2012-12-18T12:53:57+01:00</time>
      </trkpt>
      <trkpt lat="43.05383854522" lon="-5.40568138241">
        <ele>1850.56</ele>
        <time>2012-12-18T12:53:59+01:00</time>
      </trkpt>
      <trkpt lat="43.05386362782" lon="-5.40564651555">
        <ele>1849.29</ele>
        <time>2012-12-18T12:53:59+01:00</time>
      </trkpt>
      <trkpt lat="43.05388182069" lon="-5.40560842855">
        <ele>1848.06</ele>
        <time>2012-12-18T12:54:01+01:00</time>
      </trkpt>
      <trkpt lat="43.05389400881" lon="-5.40557647011">
        <ele>1846.9</ele>
        <time>2012-12-18T12:54:01+01:00</time>
      </trkpt>
      <trkpt lat="43.0538790456" lon="-5.40555706971">
        <ele>1844.85</ele>
        <time>2012-12-18T12:54:06+01:00</time>
      </trkpt>
      <trkpt lat="43.05385814921" lon="-5.40551852207">
        <ele>1843.42</ele>
        <time>2012-12-18T12:54:08+01:00</time>
      </trkpt>
      <trkpt lat="43.05383549622" lon="-5.40557330802">
        <ele>1840.07</ele>
        <time>2012-12-18T12:54:08+01:00</time>
      </trkpt>
      <trkpt lat="43.05381728636" lon="-5.40556542269">
        <ele>1839.71</ele>
        <time>2012-12-18T12:54:10+01:00</time>
      </trkpt>
      <trkpt lat="43.0538092858" lon="-5.40553970574">
        <ele>1837.97</ele>
        <time>2012-12-18T12:54:12+01:00</time>
      </trkpt>
      <trkpt lat="43.05378874258" lon="-5.40539917785">
        <ele>1836.51</ele>
        <time>2012-12-18T12:54:13+01:00</time>
      </trkpt>
      <trkpt lat="43.0537731675" lon="-5.40531729398">
        <ele>1834.89</ele>
        <time>2012-12-18T12:54:15+01:00</time>
      </trkpt>
      <trkpt lat="43.05376470368" lon="-5.40527721892">
        <ele>1833.59</ele>
        <time>2012-12-18T12:54:15+01:00</time>
      </trkpt>
      <trkpt lat="43.05375997781" lon="-5.4051023983">
        <ele>1832.12</ele>
        <time>2012-12-18T12:54:16+01:00</time>
      </trkpt>
      <trkpt lat="43.05373925135" lon="-5.40498348103">
        <ele>1830.8</ele>
        <time>2012-12-18T12:54:17+01:00</time>
      </trkpt>
      <trkpt lat="43.05371769648" lon="-5.40489699301">
        <ele>1829.38</ele>
        <time>2012-12-18T12:54:19+01:00</time>
      </trkpt>
      <trkpt lat="43.05367232275" lon="-5.40479088473">
        <ele>1827.71</ele>
        <time>2012-12-18T12:54:19+01:00</time>
      </trkpt>
      <trkpt lat="43.05362474162" lon="-5.40468137847">
        <ele>1825.94</ele>
        <time>2012-12-18T12:54:20+01:00</time>
      </trkpt>
      <trkpt lat="43.05358127455" lon="-5.40447445189">
        <ele>1824.34</ele>
        <time>2012-12-18T12:54:21+01:00</time>
      </trkpt>
      <trkpt lat="43.05354097509" lon="-5.40424203302">
        <ele>1822.73</ele>
        <time>2012-12-18T12:54:22+01:00</time>
      </trkpt>
      <trkpt lat="43.05352744707" lon="-5.40408504562">
        <ele>1820.98</ele>
        <time>2012-12-18T12:54:23+01:00</time>
      </trkpt>
      <trkpt lat="43.05352133265" lon="-5.40394117308">
        <ele>1819.21</ele>
        <time>2012-12-18T12:54:24+01:00</time>
      </trkpt>
      <trkpt lat="43.05351060732" lon="-5.40376364663">
        <ele>1817.52</ele>
        <time>2012-12-18T12:54:26+01:00</time>
      </trkpt>
      <trkpt lat="43.05350027706" lon="-5.40369162541">
        <ele>1815.83</ele>
        <time>2012-12-18T12:54:26+01:00</time>
      </trkpt>
      <trkpt lat="43.05350037157" lon="-5.40356819155">
        <ele>1814.25</ele>
        <time>2012-12-18T12:54:27+01:00</time>
      </trkpt>
      <trkpt lat="43.05349982363" lon="-5.40354083618">
        <ele>1812.7</ele>
        <time>2012-12-18T12:54:28+01:00</time>
      </trkpt>
      <trkpt lat="43.05352432665" lon="-5.4033336665">
        <ele>1810.94</ele>
        <time>2012-12-18T12:54:29+01:00</time>
      </trkpt>
      <trkpt lat="43.05353366545" lon="-5.40316407418">
        <ele>1809.25</ele>
        <time>2012-12-18T12:54:30+01:00</time>
      </trkpt>
      <trkpt lat="43.05354172952" lon="-5.40301792248">
        <ele>1807.73</ele>
        <time>2012-12-18T12:54:32+01:00</time>
      </trkpt>
      <trkpt lat="43.05356487753" lon="-5.40275924638">
        <ele>1806.04</ele>
        <time>2012-12-18T12:54:33+01:00</time>
      </trkpt>
      <trkpt lat="43.05357330308" lon="-5.40265830599">
        <ele>1804.42</ele>
        <time>2012-12-18T12:54:33+01:00</time>
      </trkpt>
      <trkpt lat="43.0535770339" lon="-5.40253696681">
        <ele>1802.94</ele>
        <time>2012-12-18T12:54:34+01:00</time>
      </trkpt>
      <trkpt lat="43.05360305203" lon="-5.40232858378">
        <ele>1800.61</ele>
        <time>2012-12-18T12:54:35+01:00</time>
      </trkpt>
      <trkpt lat="43.05363112148" lon="-5.40217083458">
        <ele>1798.5</ele>
        <time>2012-12-18T12:54:36+01:00</time>
      </trkpt>
      <trkpt lat="43.05364259297" lon="-5.40207060775">
        <ele>1796.85</ele>
        <time>2012-12-18T12:54:37+01:00</time>
      </trkpt>
      <trkpt lat="43.05359299626" lon="-5.40186469774">
        <ele>1794.39</ele>
        <time>2012-12-18T12:54:38+01:00</time>
      </trkpt>
      <trkpt lat="43.05357736703" lon="-5.40175379885">
        <ele>1791.93</ele>
        <time>2012-12-18T12:54:39+01:00</time>
      </trkpt>
      <trkpt lat="43.05361753553" lon="-5.40154451445">
        <ele>1789.83</ele>
        <time>2012-12-18T12:54:40+01:00</time>
      </trkpt>
      <trkpt lat="43.05364354003" lon="-5.40142581228">
        <ele>1787.83</ele>
        <time>2012-12-18T12:54:41+01:00</time>
      </trkpt>
      <trkpt lat="43.05366439832" lon="-5.40134668423">
        <ele>1785.77</ele>
        <time>2012-12-18T12:54:42+01:00</time>
      </trkpt>
      <trkpt lat="43.05363742283" lon="-5.40120734289">
        <ele>1783.76</ele>
        <time>2012-12-18T12:54:44+01:00</time>
      </trkpt>
      <trkpt lat="43.05360141702" lon="-5.40114353303">
        <ele>1781.68</ele>
        <time>2012-12-18T12:54:45+01:00</time>
      </trkpt>
      <trkpt lat="43.05357818966" lon="-5.40108470411">
        <ele>1779.66</ele>
        <time>2012-12-18T12:54:46+01:00</time>
      </trkpt>
      <trkpt lat="43.05357371182" lon="-5.4010025974">
        <ele>1777.42</ele>
        <time>2012-12-18T12:54:47+01:00</time>
      </trkpt>
      <trkpt lat="43.05357623607" lon="-5.40090892844">
        <ele>1775.22</ele>
        <time>2012-12-18T12:54:48+01:00</time>
      </trkpt>
      <trkpt lat="43.0535684596" lon="-5.40078934358">
        <ele>1772.84</ele>
        <time>2012-12-18T12:54:49+01:00</time>
      </trkpt>
      <trkpt lat="43.05354896704" lon="-5.4006568642">
        <ele>1770.44</ele>
        <time>2012-12-18T12:54:50+01:00</time>
      </trkpt>
      <trkpt lat="43.05353926825" lon="-5.4005010188">
        <ele>1768.12</ele>
        <time>2012-12-18T12:54:51+01:00</time>
      </trkpt>
      <trkpt lat="43.0535307906" lon="-5.40034445645">
        <ele>1765.83</ele>
        <time>2012-12-18T12:54:52+01:00</time>
      </trkpt>
      <trkpt lat="43.05353067087" lon="-5.40021001304">
        <ele>1763.46</ele>
        <time>2012-12-18T12:54:53+01:00</time>
      </trkpt>
      <trkpt lat="43.05351776873" lon="-5.40013218736">
        <ele>1761.32</ele>
        <time>2012-12-18T12:54:54+01:00</time>
      </trkpt>
      <trkpt lat="43.05351441238" lon="-5.40011169782">
        <ele>1759.26</ele>
        <time>2012-12-18T12:54:55+01:00</time>
      </trkpt>
      <trkpt lat="43.05345091874" lon="-5.39985688482">
        <ele>1756.72</ele>
        <time>2012-12-18T12:54:56+01:00</time>
      </trkpt>
      <trkpt lat="43.05342987164" lon="-5.3996689284">
        <ele>1754.42</ele>
        <time>2012-12-18T12:54:57+01:00</time>
      </trkpt>
      <trkpt lat="43.05342443282" lon="-5.39956647632">
        <ele>1752.22</ele>
        <time>2012-12-18T12:54:58+01:00</time>
      </trkpt>
      <trkpt lat="43.05345354231" lon="-5.39937192893">
        <ele>1750.32</ele>
        <time>2012-12-18T12:54:59+01:00</time>
      </trkpt>
      <trkpt lat="43.05348605219" lon="-5.39922593226">
        <ele>1748.27</ele>
        <time>2012-12-18T12:55:00+01:00</time>
      </trkpt>
      <trkpt lat="43.05350784365" lon="-5.39914004071">
        <ele>1746.37</ele>
        <time>2012-12-18T12:55:01+01:00</time>
      </trkpt>
      <trkpt lat="43.05352802234" lon="-5.39903318293">
        <ele>1744.48</ele>
        <time>2012-12-18T12:55:02+01:00</time>
      </trkpt>
      <trkpt lat="43.05354494293" lon="-5.39892602604">
        <ele>1742.49</ele>
        <time>2012-12-18T12:55:03+01:00</time>
      </trkpt>
      <trkpt lat="43.05356117745" lon="-5.39881486392">
        <ele>1740.55</ele>
        <time>2012-12-18T12:55:04+01:00</time>
      </trkpt>
      <trkpt lat="43.05357277319" lon="-5.39869922652">
        <ele>1738.26</ele>
        <time>2012-12-18T12:55:05+01:00</time>
      </trkpt>
      <trkpt lat="43.05360105995" lon="-5.39848313383">
        <ele>1736.03</ele>
        <time>2012-12-18T12:55:06+01:00</time>
      </trkpt>
      <trkpt lat="43.0536436312" lon="-5.39834214877">
        <ele>1734.03</ele>
        <time>2012-12-18T12:55:07+01:00</time>
      </trkpt>
      <trkpt lat="43.05369268033" lon="-5.39821678873">
        <ele>1732.17</ele>
        <time>2012-12-18T12:55:08+01:00</time>
      </trkpt>
      <trkpt lat="43.05374131514" lon="-5.39809301144">
        <ele>1730.25</ele>
        <time>2012-12-18T12:55:09+01:00</time>
      </trkpt>
      <trkpt lat="43.0537735056" lon="-5.39798678388">
        <ele>1728.38</ele>
        <time>2012-12-18T12:55:10+01:00</time>
      </trkpt>
      <trkpt lat="43.05378648157" lon="-5.3979004948">
        <ele>1726.63</ele>
        <time>2012-12-18T12:55:11+01:00</time>
      </trkpt>
      <trkpt lat="43.05379853156" lon="-5.39782530127">
        <ele>1724.81</ele>
        <time>2012-12-18T12:55:12+01:00</time>
      </trkpt>
      <trkpt lat="43.05381066456" lon="-5.39777787489">
        <ele>1723.09</ele>
        <time>2012-12-18T12:55:13+01:00</time>
      </trkpt>
      <trkpt lat="43.05383049199" lon="-5.39773533138">
        <ele>1721.5</ele>
        <time>2012-12-18T12:55:14+01:00</time>
      </trkpt>
      <trkpt lat="43.05385470816" lon="-5.39770422507">
        <ele>1719.88</ele>
        <time>2012-12-18T12:55:15+01:00</time>
      </trkpt>
      <trkpt lat="43.05387708633" lon="-5.39771865682">
        <ele>1718.17</ele>
        <time>2012-12-18T12:55:17+01:00</time>
      </trkpt>
      <trkpt lat="43.05389298033" lon="-5.39771425818">
        <ele>1716.72</ele>
        <time>2012-12-18T12:55:21+01:00</time>
      </trkpt>
      <trkpt lat="43.05393017068" lon="-5.39772126694">
        <ele>1715.19</ele>
        <time>2012-12-18T12:55:24+01:00</time>
      </trkpt>
      <trkpt lat="43.05395581424" lon="-5.39776337121">
        <ele>1710.84</ele>
        <time>2012-12-18T12:55:26+01:00</time>
      </trkpt>
      <trkpt lat="43.05397804204" lon="-5.39781095232">
        <ele>1711.39</ele>
        <time>2012-12-18T12:55:28+01:00</time>
      </trkpt>
      <trkpt lat="43.05398016515" lon="-5.39781706202">
        <ele>1709.98</ele>
        <time>2012-12-18T12:55:30+01:00</time>
      </trkpt>
      <trkpt lat="43.0539819755" lon="-5.39782157578">
        <ele>1708.5</ele>
        <time>2012-12-18T12:55:33+01:00</time>
      </trkpt>
      <trkpt lat="43.05400696904" lon="-5.39788113647">
        <ele>1707.28</ele>
        <time>2012-12-18T12:55:35+01:00</time>
      </trkpt>
      <trkpt lat="43.05402449494" lon="-5.39792768062">
        <ele>1704.43</ele>
        <time>2012-12-18T12:55:39+01:00</time>
      </trkpt>
      <trkpt lat="43.05402011927" lon="-5.39797027298">
        <ele>1704.7</ele>
        <time>2012-12-18T12:55:41+01:00</time>
      </trkpt>
      <trkpt lat="43.05400042489" lon="-5.39801715442">
        <ele>1703.37</ele>
        <time>2012-12-18T12:55:42+01:00</time>
      </trkpt>
      <trkpt lat="43.05396714935" lon="-5.39806227114">
        <ele>1702.28</ele>
        <time>2012-12-18T12:55:44+01:00</time>
      </trkpt>
      <trkpt lat="43.05394275813" lon="-5.3981042186">
        <ele>1699.51</ele>
        <time>2012-12-18T12:55:46+01:00</time>
      </trkpt>
      <trkpt lat="43.05391444409" lon="-5.39812803079">
        <ele>1700</ele>
        <time>2012-12-18T12:55:47+01:00</time>
      </trkpt>
      <trkpt lat="43.05389000582" lon="-5.39816531502">
        <ele>1697.79</ele>
        <time>2012-12-18T12:55:49+01:00</time>
      </trkpt>
      <trkpt lat="43.05386338481" lon="-5.39818894227">
        <ele>1696.58</ele>
        <time>2012-12-18T12:55:50+01:00</time>
      </trkpt>
      <trkpt lat="43.0538353004" lon="-5.39822759025">
        <ele>1695.24</ele>
        <time>2012-12-18T12:55:52+01:00</time>
      </trkpt>
      <trkpt lat="43.05381012485" lon="-5.39826932449">
        <ele>1694.43</ele>
        <time>2012-12-18T12:55:54+01:00</time>
      </trkpt>
      <trkpt lat="43.05379363779" lon="-5.39830790291">
        <ele>1693.29</ele>
        <time>2012-12-18T12:55:56+01:00</time>
      </trkpt>
      <trkpt lat="43.05377518589" lon="-5.39835088965">
        <ele>1692.42</ele>
        <time>2012-12-18T12:55:58+01:00</time>
      </trkpt>
      <trkpt lat="43.05376039787" lon="-5.39839348399">
        <ele>1691.83</ele>
        <time>2012-12-18T12:56:00+01:00</time>
      </trkpt>
      <trkpt lat="43.05374435941" lon="-5.39843988104">
        <ele>1691.13</ele>
        <time>2012-12-18T12:56:02+01:00</time>
      </trkpt>
      <trkpt lat="43.05373087422" lon="-5.39848208843">
        <ele>1690.4</ele>
        <time>2012-12-18T12:56:04+01:00</time>
      </trkpt>
      <trkpt lat="43.0537167674" lon="-5.39852050775">
        <ele>1689.94</ele>
        <time>2012-12-18T12:56:06+01:00</time>
      </trkpt>
      <trkpt lat="43.05369971294" lon="-5.39856762504">
        <ele>1689.46</ele>
        <time>2012-12-18T12:56:08+01:00</time>
      </trkpt>
      <trkpt lat="43.05368974803" lon="-5.39860648079">
        <ele>1689.39</ele>
        <time>2012-12-18T12:56:10+01:00</time>
      </trkpt>
      <trkpt lat="43.05367573773" lon="-5.3986503016">
        <ele>1689.23</ele>
        <time>2012-12-18T12:56:12+01:00</time>
      </trkpt>
      <trkpt lat="43.05366352884" lon="-5.398688462">
        <ele>1689.1</ele>
        <time>2012-12-18T12:56:14+01:00</time>
      </trkpt>
      <trkpt lat="43.05364988884" lon="-5.39872935348">
        <ele>1689.09</ele>
        <time>2012-12-18T12:56:16+01:00</time>
      </trkpt>
      <trkpt lat="43.05363921521" lon="-5.39875470721">
        <ele>1689.02</ele>
        <time>2012-12-18T12:56:18+01:00</time>
      </trkpt>
      <trkpt lat="43.05362966648" lon="-5.39879009903">
        <ele>1688.9</ele>
        <time>2012-12-18T12:56:20+01:00</time>
      </trkpt>
      <trkpt lat="43.05361915052" lon="-5.39883172527">
        <ele>1688.6</ele>
        <time>2012-12-18T12:56:22+01:00</time>
      </trkpt>
      <trkpt lat="43.05360272464" lon="-5.3989070699">
        <ele>1688.56</ele>
        <time>2012-12-18T12:56:24+01:00</time>
      </trkpt>
      <trkpt lat="43.05360148465" lon="-5.39896773637">
        <ele>1688.58</ele>
        <time>2012-12-18T12:56:26+01:00</time>
      </trkpt>
      <trkpt lat="43.05359188245" lon="-5.39900836814">
        <ele>1688.19</ele>
        <time>2012-12-18T12:56:28+01:00</time>
      </trkpt>
      <trkpt lat="43.0535894591" lon="-5.39905350898">
        <ele>1688.08</ele>
        <time>2012-12-18T12:56:30+01:00</time>
      </trkpt>
      <trkpt lat="43.05357542927" lon="-5.399081782">
        <ele>1687.46</ele>
        <time>2012-12-18T12:56:31+01:00</time>
      </trkpt>
      <trkpt lat="43.05356380554" lon="-5.39912351231">
        <ele>1687.69</ele>
        <time>2012-12-18T12:56:33+01:00</time>
      </trkpt>
      <trkpt lat="43.05354458288" lon="-5.39916981163">
        <ele>1687.53</ele>
        <time>2012-12-18T12:56:35+01:00</time>
      </trkpt>
      <trkpt lat="43.05352182877" lon="-5.3992169577">
        <ele>1687.48</ele>
        <time>2012-12-18T12:56:37+01:00</time>
      </trkpt>
      <trkpt lat="43.05349246752" lon="-5.39926004863">
        <ele>1687.22</ele>
        <time>2012-12-18T12:56:39+01:00</time>
      </trkpt>
      <trkpt lat="43.05347529646" lon="-5.3992877105">
        <ele>1687.04</ele>
        <time>2012-12-18T12:56:40+01:00</time>
      </trkpt>
      <trkpt lat="43.05345379087" lon="-5.39932824571">
        <ele>1686.98</ele>
        <time>2012-12-18T12:56:42+01:00</time>
      </trkpt>
      <trkpt lat="43.05343470407" lon="-5.39937383662">
        <ele>1686.92</ele>
        <time>2012-12-18T12:56:44+01:00</time>
      </trkpt>
      <trkpt lat="43.05341905626" lon="-5.39942317101">
        <ele>1686.29</ele>
        <time>2012-12-18T12:56:46+01:00</time>
      </trkpt>
      <trkpt lat="43.0534053607" lon="-5.3994649731">
        <ele>1686.17</ele>
        <time>2012-12-18T12:56:48+01:00</time>
      </trkpt>
      <trkpt lat="43.05339269742" lon="-5.39951725469">
        <ele>1685.9</ele>
        <time>2012-12-18T12:56:50+01:00</time>
      </trkpt>
      <trkpt lat="43.05336114436" lon="-5.39957548732">
        <ele>1685.01</ele>
        <time>2012-12-18T12:56:52+01:00</time>
      </trkpt>
      <trkpt lat="43.05334231344" lon="-5.39960661393">
        <ele>1685.24</ele>
        <time>2012-12-18T12:56:54+01:00</time>
      </trkpt>
      <trkpt lat="43.05331367257" lon="-5.39965918144">
        <ele>1685.18</ele>
        <time>2012-12-18T12:56:56+01:00</time>
      </trkpt>
      <trkpt lat="43.05329751451" lon="-5.39969543712">
        <ele>1685.2</ele>
        <time>2012-12-18T12:56:58+01:00</time>
      </trkpt>
      <trkpt lat="43.05328818087" lon="-5.39973252783">
        <ele>1685.18</ele>
        <time>2012-12-18T12:57:00+01:00</time>
      </trkpt>
      <trkpt lat="43.05327706052" lon="-5.39977427825">
        <ele>1685.22</ele>
        <time>2012-12-18T12:57:02+01:00</time>
      </trkpt>
      <trkpt lat="43.05326514697" lon="-5.39981823466">
        <ele>1685.39</ele>
        <time>2012-12-18T12:57:04+01:00</time>
      </trkpt>
      <trkpt lat="43.05323627745" lon="-5.39986075472">
        <ele>1685.6</ele>
        <time>2012-12-18T12:57:07+01:00</time>
      </trkpt>
      <trkpt lat="43.05321266685" lon="-5.399903591">
        <ele>1685.74</ele>
        <time>2012-12-18T12:57:09+01:00</time>
      </trkpt>
      <trkpt lat="43.0531915162" lon="-5.39994997741">
        <ele>1685.96</ele>
        <time>2012-12-18T12:57:11+01:00</time>
      </trkpt>
      <trkpt lat="43.05317293625" lon="-5.39999781144">
        <ele>1686.22</ele>
        <time>2012-12-18T12:57:13+01:00</time>
      </trkpt>
      <trkpt lat="43.05315584275" lon="-5.40004935482">
        <ele>1686.4</ele>
        <time>2012-12-18T12:57:15+01:00</time>
      </trkpt>
      <trkpt lat="43.05314115877" lon="-5.4001000978">
        <ele>1686.7</ele>
        <time>2012-12-18T12:57:17+01:00</time>
      </trkpt>
      <trkpt lat="43.05312604896" lon="-5.40015579656">
        <ele>1687.62</ele>
        <time>2012-12-18T12:57:19+01:00</time>
      </trkpt>
      <trkpt lat="43.05311209948" lon="-5.4001990361">
        <ele>1687.97</ele>
        <time>2012-12-18T12:57:21+01:00</time>
      </trkpt>
      <trkpt lat="43.05309904087" lon="-5.40025297115">
        <ele>1688.71</ele>
        <time>2012-12-18T12:57:23+01:00</time>
      </trkpt>
      <trkpt lat="43.05309030286" lon="-5.40029343876">
        <ele>1689.29</ele>
        <time>2012-12-18T12:57:25+01:00</time>
      </trkpt>
      <trkpt lat="43.05307722293" lon="-5.40034491701">
        <ele>1689.06</ele>
        <time>2012-12-18T12:57:27+01:00</time>
      </trkpt>
      <trkpt lat="43.05306820317" lon="-5.40038894144">
        <ele>1689.53</ele>
        <time>2012-12-18T12:57:29+01:00</time>
      </trkpt>
      <trkpt lat="43.05306173224" lon="-5.40041590216">
        <ele>1690.02</ele>
        <time>2012-12-18T12:57:31+01:00</time>
      </trkpt>
      <trkpt lat="43.05305434267" lon="-5.40047073013">
        <ele>1691.17</ele>
        <time>2012-12-18T12:57:33+01:00</time>
      </trkpt>
      <trkpt lat="43.05304233708" lon="-5.40050858487">
        <ele>1691.82</ele>
        <time>2012-12-18T12:57:35+01:00</time>
      </trkpt>
      <trkpt lat="43.05302779897" lon="-5.4005473365">
        <ele>1692.66</ele>
        <time>2012-12-18T12:57:37+01:00</time>
      </trkpt>
      <trkpt lat="43.05301037389" lon="-5.4005906261">
        <ele>1693.49</ele>
        <time>2012-12-18T12:57:39+01:00</time>
      </trkpt>
      <trkpt lat="43.05299270669" lon="-5.40063623145">
        <ele>1694.43</ele>
        <time>2012-12-18T12:57:41+01:00</time>
      </trkpt>
      <trkpt lat="43.05297633218" lon="-5.40067660025">
        <ele>1695.24</ele>
        <time>2012-12-18T12:57:43+01:00</time>
      </trkpt>
      <trkpt lat="43.05296934004" lon="-5.40069954171">
        <ele>1696.06</ele>
        <time>2012-12-18T12:57:45+01:00</time>
      </trkpt>
      <trkpt lat="43.05294909477" lon="-5.40073640213">
        <ele>1697.16</ele>
        <time>2012-12-18T12:57:47+01:00</time>
      </trkpt>
      <trkpt lat="43.05292771193" lon="-5.40077220563">
        <ele>1697.96</ele>
        <time>2012-12-18T12:57:49+01:00</time>
      </trkpt>
      <trkpt lat="43.05290734211" lon="-5.4008098094">
        <ele>1698.96</ele>
        <time>2012-12-18T12:57:51+01:00</time>
      </trkpt>
      <trkpt lat="43.05289066177" lon="-5.40085112599">
        <ele>1700.07</ele>
        <time>2012-12-18T12:57:53+01:00</time>
      </trkpt>
      <trkpt lat="43.05287622806" lon="-5.40089150876">
        <ele>1701.17</ele>
        <time>2012-12-18T12:57:55+01:00</time>
      </trkpt>
      <trkpt lat="43.05286060879" lon="-5.40093559771">
        <ele>1702.19</ele>
        <time>2012-12-18T12:57:57+01:00</time>
      </trkpt>
      <trkpt lat="43.0528483725" lon="-5.40097772517">
        <ele>1703.32</ele>
        <time>2012-12-18T12:57:59+01:00</time>
      </trkpt>
      <trkpt lat="43.05283832273" lon="-5.40101905298">
        <ele>1704.58</ele>
        <time>2012-12-18T12:58:01+01:00</time>
      </trkpt>
      <trkpt lat="43.05282770641" lon="-5.40105424252">
        <ele>1705.88</ele>
        <time>2012-12-18T12:58:03+01:00</time>
      </trkpt>
      <trkpt lat="43.05281602778" lon="-5.4010917235">
        <ele>1707.22</ele>
        <time>2012-12-18T12:58:05+01:00</time>
      </trkpt>
      <trkpt lat="43.05280390199" lon="-5.40112879105">
        <ele>1708.91</ele>
        <time>2012-12-18T12:58:07+01:00</time>
      </trkpt>
      <trkpt lat="43.05279140458" lon="-5.40116904115">
        <ele>1710.37</ele>
        <time>2012-12-18T12:58:09+01:00</time>
      </trkpt>
      <trkpt lat="43.05278848321" lon="-5.40121010281">
        <ele>1711.56</ele>
        <time>2012-12-18T12:58:11+01:00</time>
      </trkpt>
      <trkpt lat="43.05278224355" lon="-5.40125502345">
        <ele>1713.46</ele>
        <time>2012-12-18T12:58:13+01:00</time>
      </trkpt>
      <trkpt lat="43.05277853732" lon="-5.40128758192">
        <ele>1715.18</ele>
        <time>2012-12-18T12:58:15+01:00</time>
      </trkpt>
      <trkpt lat="43.05276897831" lon="-5.40132520724">
        <ele>1716.72</ele>
        <time>2012-12-18T12:58:17+01:00</time>
      </trkpt>
      <trkpt lat="43.05275434269" lon="-5.40137116519">
        <ele>1718.3</ele>
        <time>2012-12-18T12:58:19+01:00</time>
      </trkpt>
      <trkpt lat="43.05273662242" lon="-5.40141385673">
        <ele>1719.96</ele>
        <time>2012-12-18T12:58:21+01:00</time>
      </trkpt>
      <trkpt lat="43.052720027" lon="-5.40145591989">
        <ele>1721.81</ele>
        <time>2012-12-18T12:58:23+01:00</time>
      </trkpt>
      <trkpt lat="43.05270426072" lon="-5.40149754302">
        <ele>1723.5</ele>
        <time>2012-12-18T12:58:25+01:00</time>
      </trkpt>
      <trkpt lat="43.05268857734" lon="-5.40153904671">
        <ele>1725.21</ele>
        <time>2012-12-18T12:58:27+01:00</time>
      </trkpt>
      <trkpt lat="43.05267150668" lon="-5.40157918059">
        <ele>1726.93</ele>
        <time>2012-12-18T12:58:29+01:00</time>
      </trkpt>
      <trkpt lat="43.05265614549" lon="-5.40161864943">
        <ele>1728.63</ele>
        <time>2012-12-18T12:58:31+01:00</time>
      </trkpt>
      <trkpt lat="43.0526419725" lon="-5.40165649004">
        <ele>1730.41</ele>
        <time>2012-12-18T12:58:34+01:00</time>
      </trkpt>
      <trkpt lat="43.05262740324" lon="-5.40170026799">
        <ele>1731.96</ele>
        <time>2012-12-18T12:58:35+01:00</time>
      </trkpt>
      <trkpt lat="43.05261617454" lon="-5.40174764739">
        <ele>1733.79</ele>
        <time>2012-12-18T12:58:38+01:00</time>
      </trkpt>
      <trkpt lat="43.05260859791" lon="-5.40179219315">
        <ele>1735.55</ele>
        <time>2012-12-18T12:58:39+01:00</time>
      </trkpt>
      <trkpt lat="43.05260403157" lon="-5.40183295354">
        <ele>1737.3</ele>
        <time>2012-12-18T12:58:41+01:00</time>
      </trkpt>
      <trkpt lat="43.05260443745" lon="-5.40187003636">
        <ele>1742.11</ele>
        <time>2012-12-18T12:58:43+01:00</time>
      </trkpt>
      <trkpt lat="43.05258942833" lon="-5.40189795996">
        <ele>1743.89</ele>
        <time>2012-12-18T12:58:46+01:00</time>
      </trkpt>
      <trkpt lat="43.05255047289" lon="-5.40193054999">
        <ele>1743.18</ele>
        <time>2012-12-18T12:58:47+01:00</time>
      </trkpt>
      <trkpt lat="43.05252598837" lon="-5.40194880252">
        <ele>1744.61</ele>
        <time>2012-12-18T12:58:48+01:00</time>
      </trkpt>
      <trkpt lat="43.05250375769" lon="-5.40196961917">
        <ele>1746.14</ele>
        <time>2012-12-18T12:58:49+01:00</time>
      </trkpt>
      <trkpt lat="43.05246474458" lon="-5.40198464545">
        <ele>1747.1</ele>
        <time>2012-12-18T12:58:51+01:00</time>
      </trkpt>
      <trkpt lat="43.05243353969" lon="-5.40199911714">
        <ele>1747.81</ele>
        <time>2012-12-18T12:58:51+01:00</time>
      </trkpt>
      <trkpt lat="43.05241539641" lon="-5.40203540499">
        <ele>1749.21</ele>
        <time>2012-12-18T12:58:54+01:00</time>
      </trkpt>
      <trkpt lat="43.05240841499" lon="-5.40207397734">
        <ele>1750.53</ele>
        <time>2012-12-18T12:58:55+01:00</time>
      </trkpt>
      <trkpt lat="43.05240685107" lon="-5.40211468299">
        <ele>1751.76</ele>
        <time>2012-12-18T12:58:58+01:00</time>
      </trkpt>
      <trkpt lat="43.05240974298" lon="-5.40216435149">
        <ele>1753.06</ele>
        <time>2012-12-18T12:59:00+01:00</time>
      </trkpt>
      <trkpt lat="43.0524094636" lon="-5.40220061771">
        <ele>1754.43</ele>
        <time>2012-12-18T12:59:01+01:00</time>
      </trkpt>
      <trkpt lat="43.05240528383" lon="-5.40223395543">
        <ele>1755.66</ele>
        <time>2012-12-18T12:59:03+01:00</time>
      </trkpt>
      <trkpt lat="43.05240766652" lon="-5.40226764623">
        <ele>1757.25</ele>
        <time>2012-12-18T12:59:05+01:00</time>
      </trkpt>
      <trkpt lat="43.0524128034" lon="-5.40230288286">
        <ele>1758.88</ele>
        <time>2012-12-18T12:59:07+01:00</time>
      </trkpt>
      <trkpt lat="43.05240605237" lon="-5.40234841989">
        <ele>1762.8</ele>
        <time>2012-12-18T12:59:09+01:00</time>
      </trkpt>
      <trkpt lat="43.05238679842" lon="-5.40239481">
        <ele>1762.42</ele>
        <time>2012-12-18T12:59:11+01:00</time>
      </trkpt>
      <trkpt lat="43.05236688851" lon="-5.40245307491">
        <ele>1766.63</ele>
        <time>2012-12-18T12:59:13+01:00</time>
      </trkpt>
      <trkpt lat="43.05235777619" lon="-5.40249681077">
        <ele>1769.06</ele>
        <time>2012-12-18T12:59:15+01:00</time>
      </trkpt>
      <trkpt lat="43.05235825307" lon="-5.40253524201">
        <ele>1771.29</ele>
        <time>2012-12-18T12:59:16+01:00</time>
      </trkpt>
      <trkpt lat="43.05234928602" lon="-5.40258178255">
        <ele>1772.61</ele>
        <time>2012-12-18T12:59:19+01:00</time>
      </trkpt>
      <trkpt lat="43.05233692192" lon="-5.4026194471">
        <ele>1774.63</ele>
        <time>2012-12-18T12:59:20+01:00</time>
      </trkpt>
      <trkpt lat="43.05232335146" lon="-5.40266593909">
        <ele>1774.66</ele>
        <time>2012-12-18T12:59:22+01:00</time>
      </trkpt>
      <trkpt lat="43.05229753684" lon="-5.40269609167">
        <ele>1775.14</ele>
        <time>2012-12-18T12:59:23+01:00</time>
      </trkpt>
      <trkpt lat="43.05227373257" lon="-5.40273960605">
        <ele>1776.29</ele>
        <time>2012-12-18T12:59:26+01:00</time>
      </trkpt>
      <trkpt lat="43.05225891343" lon="-5.40278767035">
        <ele>1777.24</ele>
        <time>2012-12-18T12:59:27+01:00</time>
      </trkpt>
      <trkpt lat="43.05225122221" lon="-5.4028228983">
        <ele>1777.95</ele>
        <time>2012-12-18T12:59:28+01:00</time>
      </trkpt>
      <trkpt lat="43.05223295368" lon="-5.40286675721">
        <ele>1778.54</ele>
        <time>2012-12-18T12:59:31+01:00</time>
      </trkpt>
      <trkpt lat="43.05221109449" lon="-5.40291254348">
        <ele>1779.46</ele>
        <time>2012-12-18T12:59:33+01:00</time>
      </trkpt>
      <trkpt lat="43.05220243111" lon="-5.40295951988">
        <ele>1780.73</ele>
        <time>2012-12-18T12:59:34+01:00</time>
      </trkpt>
      <trkpt lat="43.05218011248" lon="-5.4030059967">
        <ele>1781.56</ele>
        <time>2012-12-18T12:59:36+01:00</time>
      </trkpt>
      <trkpt lat="43.05216487553" lon="-5.4030320486">
        <ele>1781.7</ele>
        <time>2012-12-18T12:59:38+01:00</time>
      </trkpt>
      <trkpt lat="43.05214085072" lon="-5.40307293963">
        <ele>1782.68</ele>
        <time>2012-12-18T12:59:40+01:00</time>
      </trkpt>
      <trkpt lat="43.05211820907" lon="-5.40309949097">
        <ele>1783.47</ele>
        <time>2012-12-18T12:59:41+01:00</time>
      </trkpt>
      <trkpt lat="43.05209262539" lon="-5.40313531136">
        <ele>1784.04</ele>
        <time>2012-12-18T12:59:43+01:00</time>
      </trkpt>
      <trkpt lat="43.05208016611" lon="-5.40317372318">
        <ele>1785.31</ele>
        <time>2012-12-18T12:59:46+01:00</time>
      </trkpt>
      <trkpt lat="43.05207606493" lon="-5.40324155408">
        <ele>1786.76</ele>
        <time>2012-12-18T12:59:47+01:00</time>
      </trkpt>
      <trkpt lat="43.05207775927" lon="-5.40329723094">
        <ele>1787.94</ele>
        <time>2012-12-18T12:59:51+01:00</time>
      </trkpt>
      <trkpt lat="43.0520782993" lon="-5.4033338473">
        <ele>1789.3</ele>
        <time>2012-12-18T12:59:52+01:00</time>
      </trkpt>
      <trkpt lat="43.0520709977" lon="-5.4033665845">
        <ele>1790.52</ele>
        <time>2012-12-18T12:59:54+01:00</time>
      </trkpt>
      <trkpt lat="43.05206068609" lon="-5.4034073301">
        <ele>1791.98</ele>
        <time>2012-12-18T12:59:57+01:00</time>
      </trkpt>
      <trkpt lat="43.05204682429" lon="-5.4034326656">
        <ele>1793.22</ele>
        <time>2012-12-18T12:59:59+01:00</time>
      </trkpt>
      <trkpt lat="43.05200465475" lon="-5.40347707388">
        <ele>1794.15</ele>
        <time>2012-12-18T13:00:01+01:00</time>
      </trkpt>
      <trkpt lat="43.05197778065" lon="-5.40351646566">
        <ele>1795.32</ele>
        <time>2012-12-18T13:00:03+01:00</time>
      </trkpt>
      <trkpt lat="43.05196533151" lon="-5.40355418359">
        <ele>1796.77</ele>
        <time>2012-12-18T13:00:05+01:00</time>
      </trkpt>
      <trkpt lat="43.05195868425" lon="-5.40359827228">
        <ele>1798.18</ele>
        <time>2012-12-18T13:00:07+01:00</time>
      </trkpt>
      <trkpt lat="43.05195313032" lon="-5.40364262928">
        <ele>1799.29</ele>
        <time>2012-12-18T13:00:09+01:00</time>
      </trkpt>
      <trkpt lat="43.05194749331" lon="-5.40368590002">
        <ele>1800.85</ele>
        <time>2012-12-18T13:00:11+01:00</time>
      </trkpt>
      <trkpt lat="43.05193325661" lon="-5.40372948994">
        <ele>1802.24</ele>
        <time>2012-12-18T13:00:13+01:00</time>
      </trkpt>
      <trkpt lat="43.05192933639" lon="-5.40378072093">
        <ele>1804.07</ele>
        <time>2012-12-18T13:00:15+01:00</time>
      </trkpt>
      <trkpt lat="43.05192878703" lon="-5.40382684168">
        <ele>1805.64</ele>
        <time>2012-12-18T13:00:18+01:00</time>
      </trkpt>
      <trkpt lat="43.05192545851" lon="-5.40386785">
        <ele>1807.33</ele>
        <time>2012-12-18T13:00:19+01:00</time>
      </trkpt>
      <trkpt lat="43.05190980597" lon="-5.40390059388">
        <ele>1808.84</ele>
        <time>2012-12-18T13:00:21+01:00</time>
      </trkpt>
      <trkpt lat="43.05190459674" lon="-5.40393993266">
        <ele>1811.03</ele>
        <time>2012-12-18T13:00:23+01:00</time>
      </trkpt>
      <trkpt lat="43.05188189606" lon="-5.40398468079">
        <ele>1812.28</ele>
        <time>2012-12-18T13:00:25+01:00</time>
      </trkpt>
      <trkpt lat="43.05186096092" lon="-5.40402273238">
        <ele>1813.58</ele>
        <time>2012-12-18T13:00:27+01:00</time>
      </trkpt>
      <trkpt lat="43.05183253343" lon="-5.4040565613">
        <ele>1815.2</ele>
        <time>2012-12-18T13:00:29+01:00</time>
      </trkpt>
      <trkpt lat="43.05181062057" lon="-5.4040944407">
        <ele>1816.78</ele>
        <time>2012-12-18T13:00:31+01:00</time>
      </trkpt>
      <trkpt lat="43.05180311993" lon="-5.40414285322">
        <ele>1818.34</ele>
        <time>2012-12-18T13:00:33+01:00</time>
      </trkpt>
      <trkpt lat="43.05179635597" lon="-5.40419028781">
        <ele>1819.79</ele>
        <time>2012-12-18T13:00:35+01:00</time>
      </trkpt>
      <trkpt lat="43.05178554839" lon="-5.40423558222">
        <ele>1821.13</ele>
        <time>2012-12-18T13:00:37+01:00</time>
      </trkpt>
      <trkpt lat="43.05176454435" lon="-5.40428125326">
        <ele>1822.57</ele>
        <time>2012-12-18T13:00:40+01:00</time>
      </trkpt>
      <trkpt lat="43.0517404952" lon="-5.40432284219">
        <ele>1823.9</ele>
        <time>2012-12-18T13:00:41+01:00</time>
      </trkpt>
      <trkpt lat="43.05171955859" lon="-5.4043570433">
        <ele>1825.4</ele>
        <time>2012-12-18T13:00:43+01:00</time>
      </trkpt>
      <trkpt lat="43.05170075322" lon="-5.40438815751">
        <ele>1827.09</ele>
        <time>2012-12-18T13:00:46+01:00</time>
      </trkpt>
      <trkpt lat="43.05168425166" lon="-5.40441456397">
        <ele>1828.3</ele>
        <time>2012-12-18T13:00:48+01:00</time>
      </trkpt>
      <trkpt lat="43.05165821962" lon="-5.40443540208">
        <ele>1829.46</ele>
        <time>2012-12-18T13:00:50+01:00</time>
      </trkpt>
      <trkpt lat="43.05163299723" lon="-5.4044665259">
        <ele>1830.74</ele>
        <time>2012-12-18T13:00:52+01:00</time>
      </trkpt>
      <trkpt lat="43.05161698923" lon="-5.40450419957">
        <ele>1832.44</ele>
        <time>2012-12-18T13:00:54+01:00</time>
      </trkpt>
      <trkpt lat="43.05162082842" lon="-5.40454485958">
        <ele>1834.27</ele>
        <time>2012-12-18T13:00:56+01:00</time>
      </trkpt>
      <trkpt lat="43.05162806709" lon="-5.40457786907">
        <ele>1835.68</ele>
        <time>2012-12-18T13:00:58+01:00</time>
      </trkpt>
      <trkpt lat="43.05163514746" lon="-5.40462389944">
        <ele>1837.29</ele>
        <time>2012-12-18T13:01:00+01:00</time>
      </trkpt>
      <trkpt lat="43.05162697464" lon="-5.40466844362">
        <ele>1838.31</ele>
        <time>2012-12-18T13:01:01+01:00</time>
      </trkpt>
      <trkpt lat="43.05160639698" lon="-5.40470585093">
        <ele>1839.28</ele>
        <time>2012-12-18T13:01:03+01:00</time>
      </trkpt>
      <trkpt lat="43.05157847684" lon="-5.40474384252">
        <ele>1840.42</ele>
        <time>2012-12-18T13:01:05+01:00</time>
      </trkpt>
      <trkpt lat="43.05155572667" lon="-5.40479120458">
        <ele>1841.55</ele>
        <time>2012-12-18T13:01:07+01:00</time>
      </trkpt>
      <trkpt lat="43.0515445717" lon="-5.40484707921">
        <ele>1842.84</ele>
        <time>2012-12-18T13:01:09+01:00</time>
      </trkpt>
      <trkpt lat="43.05153670807" lon="-5.40489728028">
        <ele>1843.85</ele>
        <time>2012-12-18T13:01:12+01:00</time>
      </trkpt>
      <trkpt lat="43.05152269659" lon="-5.40493803179">
        <ele>1844.43</ele>
        <time>2012-12-18T13:01:14+01:00</time>
      </trkpt>
      <trkpt lat="43.05149843663" lon="-5.40497763099">
        <ele>1844.01</ele>
        <time>2012-12-18T13:01:15+01:00</time>
      </trkpt>
      <trkpt lat="43.0514687742" lon="-5.40501156826">
        <ele>1844.46</ele>
        <time>2012-12-18T13:01:17+01:00</time>
      </trkpt>
      <trkpt lat="43.05144772076" lon="-5.40505429731">
        <ele>1846.01</ele>
        <time>2012-12-18T13:01:19+01:00</time>
      </trkpt>
      <trkpt lat="43.05143120544" lon="-5.40508175269">
        <ele>1845.51</ele>
        <time>2012-12-18T13:01:20+01:00</time>
      </trkpt>
      <trkpt lat="43.05141355256" lon="-5.40510769561">
        <ele>1845.69</ele>
        <time>2012-12-18T13:01:21+01:00</time>
      </trkpt>
      <trkpt lat="43.05140285927" lon="-5.40512200259">
        <ele>1846.01</ele>
        <time>2012-12-18T13:01:22+01:00</time>
      </trkpt>
      <trkpt lat="43.05138791535" lon="-5.40515157767">
        <ele>1846.49</ele>
        <time>2012-12-18T13:01:24+01:00</time>
      </trkpt>
      <trkpt lat="43.05137227103" lon="-5.40518027917">
        <ele>1846.64</ele>
        <time>2012-12-18T13:01:26+01:00</time>
      </trkpt>
      <trkpt lat="43.05135216939" lon="-5.40521378257">
        <ele>1846.92</ele>
        <time>2012-12-18T13:01:27+01:00</time>
      </trkpt>
      <trkpt lat="43.05132958762" lon="-5.40524922591">
        <ele>1848.22</ele>
        <time>2012-12-18T13:01:29+01:00</time>
      </trkpt>
      <trkpt lat="43.05132465561" lon="-5.4052555698">
        <ele>1848.86</ele>
        <time>2012-12-18T13:01:31+01:00</time>
      </trkpt>
      <trkpt lat="43.05127402423" lon="-5.40535663343">
        <ele>1849.73</ele>
        <time>2012-12-18T13:01:34+01:00</time>
      </trkpt>
      <trkpt lat="43.05126017639" lon="-5.40541707929">
        <ele>1850.67</ele>
        <time>2012-12-18T13:01:36+01:00</time>
      </trkpt>
      <trkpt lat="43.05124744912" lon="-5.40547228497">
        <ele>1851.7</ele>
        <time>2012-12-18T13:01:38+01:00</time>
      </trkpt>
      <trkpt lat="43.05123481185" lon="-5.40552168169">
        <ele>1852.48</ele>
        <time>2012-12-18T13:01:40+01:00</time>
      </trkpt>
      <trkpt lat="43.05122363428" lon="-5.40555368926">
        <ele>1853.27</ele>
        <time>2012-12-18T13:01:41+01:00</time>
      </trkpt>
      <trkpt lat="43.05120778655" lon="-5.40559878164">
        <ele>1854.17</ele>
        <time>2012-12-18T13:01:43+01:00</time>
      </trkpt>
      <trkpt lat="43.05119020013" lon="-5.40564521693">
        <ele>1853.88</ele>
        <time>2012-12-18T13:01:45+01:00</time>
      </trkpt>
      <trkpt lat="43.05117400941" lon="-5.40568990915">
        <ele>1854.31</ele>
        <time>2012-12-18T13:01:47+01:00</time>
      </trkpt>
      <trkpt lat="43.05115511387" lon="-5.40573485625">
        <ele>1854.74</ele>
        <time>2012-12-18T13:01:49+01:00</time>
      </trkpt>
      <trkpt lat="43.05113641498" lon="-5.40578086015">
        <ele>1855.11</ele>
        <time>2012-12-18T13:01:51+01:00</time>
      </trkpt>
      <trkpt lat="43.05112090701" lon="-5.40582533198">
        <ele>1855.41</ele>
        <time>2012-12-18T13:01:53+01:00</time>
      </trkpt>
      <trkpt lat="43.05109658243" lon="-5.40586963151">
        <ele>1855.68</ele>
        <time>2012-12-18T13:01:55+01:00</time>
      </trkpt>
      <trkpt lat="43.05107636187" lon="-5.40591067792">
        <ele>1855.98</ele>
        <time>2012-12-18T13:01:57+01:00</time>
      </trkpt>
      <trkpt lat="43.05106861657" lon="-5.40593043514">
        <ele>1856.51</ele>
        <time>2012-12-18T13:01:59+01:00</time>
      </trkpt>
      <trkpt lat="43.05106178929" lon="-5.40596193907">
        <ele>1857.08</ele>
        <time>2012-12-18T13:02:01+01:00</time>
      </trkpt>
      <trkpt lat="43.05104881729" lon="-5.40602422374">
        <ele>1857.49</ele>
        <time>2012-12-18T13:02:03+01:00</time>
      </trkpt>
      <trkpt lat="43.05103649988" lon="-5.4060754386">
        <ele>1859.44</ele>
        <time>2012-12-18T13:02:05+01:00</time>
      </trkpt>
      <trkpt lat="43.05102622447" lon="-5.40612812753">
        <ele>1860.65</ele>
        <time>2012-12-18T13:02:07+01:00</time>
      </trkpt>
      <trkpt lat="43.05101474812" lon="-5.4061782279">
        <ele>1861.74</ele>
        <time>2012-12-18T13:02:09+01:00</time>
      </trkpt>
      <trkpt lat="43.0510047415" lon="-5.40622486012">
        <ele>1863.15</ele>
        <time>2012-12-18T13:02:11+01:00</time>
      </trkpt>
      <trkpt lat="43.05099677226" lon="-5.40626952467">
        <ele>1864.57</ele>
        <time>2012-12-18T13:02:13+01:00</time>
      </trkpt>
      <trkpt lat="43.05098066096" lon="-5.40631238753">
        <ele>1865.78</ele>
        <time>2012-12-18T13:02:15+01:00</time>
      </trkpt>
      <trkpt lat="43.05097214134" lon="-5.40635696875">
        <ele>1867.14</ele>
        <time>2012-12-18T13:02:17+01:00</time>
      </trkpt>
      <trkpt lat="43.0509642348" lon="-5.40639968083">
        <ele>1868.49</ele>
        <time>2012-12-18T13:02:19+01:00</time>
      </trkpt>
      <trkpt lat="43.05096148003" lon="-5.40644691411">
        <ele>1869.83</ele>
        <time>2012-12-18T13:02:21+01:00</time>
      </trkpt>
      <trkpt lat="43.05094450055" lon="-5.40648418869">
        <ele>1872.98</ele>
        <time>2012-12-18T13:02:22+01:00</time>
      </trkpt>
      <trkpt lat="43.05093909299" lon="-5.40651886802">
        <ele>1874.63</ele>
        <time>2012-12-18T13:02:24+01:00</time>
      </trkpt>
      <trkpt lat="43.05093459166" lon="-5.40655711868">
        <ele>1874.4</ele>
        <time>2012-12-18T13:02:24+01:00</time>
      </trkpt>
      <trkpt lat="43.05093037217" lon="-5.40659950342">
        <ele>1875.65</ele>
        <time>2012-12-18T13:02:25+01:00</time>
      </trkpt>
      <trkpt lat="43.05093398744" lon="-5.40663372957">
        <ele>1878.77</ele>
        <time>2012-12-18T13:02:26+01:00</time>
      </trkpt>
      <trkpt lat="43.05094899326" lon="-5.40666947561">
        <ele>1880.12</ele>
        <time>2012-12-18T13:02:28+01:00</time>
      </trkpt>
      <trkpt lat="43.05096004717" lon="-5.40668748063">
        <ele>1881.3</ele>
        <time>2012-12-18T13:02:30+01:00</time>
      </trkpt>
      <trkpt lat="43.05099617237" lon="-5.40669123803">
        <ele>1883.91</ele>
        <time>2012-12-18T13:02:32+01:00</time>
      </trkpt>
      <trkpt lat="43.05102000298" lon="-5.40667802687">
        <ele>1885.79</ele>
        <time>2012-12-18T13:02:34+01:00</time>
      </trkpt>
      <trkpt lat="43.05104210288" lon="-5.40666579574">
        <ele>1887.42</ele>
        <time>2012-12-18T13:02:36+01:00</time>
      </trkpt>
      <trkpt lat="43.05106395722" lon="-5.40664873147">
        <ele>1889.36</ele>
        <time>2012-12-18T13:02:38+01:00</time>
      </trkpt>
      <trkpt lat="43.05108415312" lon="-5.40662781721">
        <ele>1890.67</ele>
        <time>2012-12-18T13:02:41+01:00</time>
      </trkpt>
      <trkpt lat="43.05110880119" lon="-5.40665615296">
        <ele>1892.13</ele>
        <time>2012-12-18T13:02:48+01:00</time>
      </trkpt>
      <trkpt lat="43.05113412345" lon="-5.40666615306">
        <ele>1893.29</ele>
        <time>2012-12-18T13:02:49+01:00</time>
      </trkpt>
      <trkpt lat="43.05117727857" lon="-5.40668291943">
        <ele>1894.19</ele>
        <time>2012-12-18T13:02:50+01:00</time>
      </trkpt>
      <trkpt lat="43.05122025561" lon="-5.40666437892">
        <ele>1894.8</ele>
        <time>2012-12-18T13:02:51+01:00</time>
      </trkpt>
      <trkpt lat="43.05127026821" lon="-5.40665762145">
        <ele>1895.06</ele>
        <time>2012-12-18T13:02:52+01:00</time>
      </trkpt>
      <trkpt lat="43.05134576547" lon="-5.40665521065">
        <ele>1895.17</ele>
        <time>2012-12-18T13:02:53+01:00</time>
      </trkpt>
      <trkpt lat="43.05142641377" lon="-5.40663286649">
        <ele>1895.08</ele>
        <time>2012-12-18T13:02:54+01:00</time>
      </trkpt>
      <trkpt lat="43.05150486144" lon="-5.40659887305">
        <ele>1894.9</ele>
        <time>2012-12-18T13:02:55+01:00</time>
      </trkpt>
      <trkpt lat="43.05158406973" lon="-5.40658332832">
        <ele>1894.43</ele>
        <time>2012-12-18T13:02:56+01:00</time>
      </trkpt>
      <trkpt lat="43.05166540766" lon="-5.40657913025">
        <ele>1893.84</ele>
        <time>2012-12-18T13:02:57+01:00</time>
      </trkpt>
      <trkpt lat="43.0517567771" lon="-5.40655871051">
        <ele>1893.55</ele>
        <time>2012-12-18T13:02:58+01:00</time>
      </trkpt>
      <trkpt lat="43.0518470683" lon="-5.40654208724">
        <ele>1893.14</ele>
        <time>2012-12-18T13:02:59+01:00</time>
      </trkpt>
      <trkpt lat="43.05190900235" lon="-5.4065570665">
        <ele>1892.8</ele>
        <time>2012-12-18T13:03:00+01:00</time>
      </trkpt>
      <trkpt lat="43.05200997922" lon="-5.40654997162">
        <ele>1892.79</ele>
        <time>2012-12-18T13:03:01+01:00</time>
      </trkpt>
      <trkpt lat="43.05215070809" lon="-5.40651479142">
        <ele>1892.4</ele>
        <time>2012-12-18T13:03:02+01:00</time>
      </trkpt>
      <trkpt lat="43.05223380377" lon="-5.40650331118">
        <ele>1892.01</ele>
        <time>2012-12-18T13:03:04+01:00</time>
      </trkpt>
      <trkpt lat="43.05225343729" lon="-5.40650118248">
        <ele>1891.72</ele>
        <time>2012-12-18T13:03:04+01:00</time>
      </trkpt>
      <trkpt lat="43.05247727656" lon="-5.40652354083">
        <ele>1891.26</ele>
        <time>2012-12-18T13:03:05+01:00</time>
      </trkpt>
      <trkpt lat="43.05258433871" lon="-5.40649186974">
        <ele>1890.42</ele>
        <time>2012-12-18T13:03:06+01:00</time>
      </trkpt>
      <trkpt lat="43.05266348569" lon="-5.40644007207">
        <ele>1889.62</ele>
        <time>2012-12-18T13:03:07+01:00</time>
      </trkpt>
      <trkpt lat="43.05272233102" lon="-5.4064336688">
        <ele>1888.9</ele>
        <time>2012-12-18T13:03:08+01:00</time>
      </trkpt>
      <trkpt lat="43.05280883313" lon="-5.40640120746">
        <ele>1887.92</ele>
        <time>2012-12-18T13:03:09+01:00</time>
      </trkpt>
      <trkpt lat="43.05287686083" lon="-5.40636494268">
        <ele>1886.67</ele>
        <time>2012-12-18T13:03:10+01:00</time>
      </trkpt>
      <trkpt lat="43.05294675923" lon="-5.4063708996">
        <ele>1885.69</ele>
        <time>2012-12-18T13:03:12+01:00</time>
      </trkpt>
      <trkpt lat="43.05301981457" lon="-5.40639549326">
        <ele>1884.74</ele>
        <time>2012-12-18T13:03:12+01:00</time>
      </trkpt>
      <trkpt lat="43.05309866454" lon="-5.40642455187">
        <ele>1883.78</ele>
        <time>2012-12-18T13:03:13+01:00</time>
      </trkpt>
      <trkpt lat="43.05312667211" lon="-5.40645141893">
        <ele>1882.89</ele>
        <time>2012-12-18T13:03:14+01:00</time>
      </trkpt>
      <trkpt lat="43.05316026918" lon="-5.40647757947">
        <ele>1882.17</ele>
        <time>2012-12-18T13:03:15+01:00</time>
      </trkpt>
      <trkpt lat="43.0531535105" lon="-5.406440835">
        <ele>1881.3</ele>
        <time>2012-12-18T13:03:16+01:00</time>
      </trkpt>
      <trkpt lat="43.05315772434" lon="-5.40640961445">
        <ele>1880.43</ele>
        <time>2012-12-18T13:03:17+01:00</time>
      </trkpt>
      <trkpt lat="43.05317023472" lon="-5.40638010217">
        <ele>1879.46</ele>
        <time>2012-12-18T13:03:19+01:00</time>
      </trkpt>
      <trkpt lat="43.05318494085" lon="-5.40633866045">
        <ele>1878.36</ele>
        <time>2012-12-18T13:03:20+01:00</time>
      </trkpt>
      <trkpt lat="43.05320856861" lon="-5.40627632559">
        <ele>1877.52</ele>
        <time>2012-12-18T13:03:21+01:00</time>
      </trkpt>
      <trkpt lat="43.05323998214" lon="-5.40622898991">
        <ele>1874.93</ele>
        <time>2012-12-18T13:03:22+01:00</time>
      </trkpt>
      <trkpt lat="43.05328039596" lon="-5.40618237417">
        <ele>1873.7</ele>
        <time>2012-12-18T13:03:24+01:00</time>
      </trkpt>
      <trkpt lat="43.05332686784" lon="-5.40613771292">
        <ele>1872.31</ele>
        <time>2012-12-18T13:03:25+01:00</time>
      </trkpt>
      <trkpt lat="43.05337659652" lon="-5.40611664368">
        <ele>1870.77</ele>
        <time>2012-12-18T13:03:26+01:00</time>
      </trkpt>
      <trkpt lat="43.05342503195" lon="-5.40609191093">
        <ele>1869.1</ele>
        <time>2012-12-18T13:03:27+01:00</time>
      </trkpt>
      <trkpt lat="43.05346100469" lon="-5.40607864953">
        <ele>1869.29</ele>
        <time>2012-12-18T13:03:27+01:00</time>
      </trkpt>
      <trkpt lat="43.05350038574" lon="-5.40607505848">
        <ele>1868.43</ele>
        <time>2012-12-18T13:03:28+01:00</time>
      </trkpt>
      <trkpt lat="43.05352992079" lon="-5.40608600788">
        <ele>1866.3</ele>
        <time>2012-12-18T13:03:29+01:00</time>
      </trkpt>
      <trkpt lat="43.05354643698" lon="-5.40609236378">
        <ele>1866.49</ele>
        <time>2012-12-18T13:03:31+01:00</time>
      </trkpt>
      <trkpt lat="43.05354265144" lon="-5.40605889176">
        <ele>1865.98</ele>
        <time>2012-12-18T13:03:32+01:00</time>
      </trkpt>
      <trkpt lat="43.05356382139" lon="-5.40602638109">
        <ele>1864.9</ele>
        <time>2012-12-18T13:03:32+01:00</time>
      </trkpt>
      <trkpt lat="43.05358414863" lon="-5.40597964582">
        <ele>1862.49</ele>
        <time>2012-12-18T13:03:33+01:00</time>
      </trkpt>
      <trkpt lat="43.05362744139" lon="-5.40594857287">
        <ele>1861.36</ele>
        <time>2012-12-18T13:03:34+01:00</time>
      </trkpt>
      <trkpt lat="43.05368199924" lon="-5.405887373">
        <ele>1859.91</ele>
        <time>2012-12-18T13:03:35+01:00</time>
      </trkpt>
      <trkpt lat="43.05374782904" lon="-5.40583570455">
        <ele>1858.46</ele>
        <time>2012-12-18T13:03:36+01:00</time>
      </trkpt>
      <trkpt lat="43.05381960127" lon="-5.40579828055">
        <ele>1856.92</ele>
        <time>2012-12-18T13:03:37+01:00</time>
      </trkpt>
      <trkpt lat="43.05390087683" lon="-5.40577617771">
        <ele>1855.2</ele>
        <time>2012-12-18T13:03:38+01:00</time>
      </trkpt>
      <trkpt lat="43.05394194237" lon="-5.40568411596">
        <ele>1853.88</ele>
        <time>2012-12-18T13:03:39+01:00</time>
      </trkpt>
      <trkpt lat="43.05399481426" lon="-5.40560213526">
        <ele>1852.36</ele>
        <time>2012-12-18T13:03:40+01:00</time>
      </trkpt>
      <trkpt lat="43.0540601057" lon="-5.40554644476">
        <ele>1850.97</ele>
        <time>2012-12-18T13:03:41+01:00</time>
      </trkpt>
      <trkpt lat="43.05413657929" lon="-5.40548782231">
        <ele>1849.44</ele>
        <time>2012-12-18T13:03:42+01:00</time>
      </trkpt>
      <trkpt lat="43.0542010308" lon="-5.40542251561">
        <ele>1847.88</ele>
        <time>2012-12-18T13:03:43+01:00</time>
      </trkpt>
      <trkpt lat="43.05425783024" lon="-5.40533421109">
        <ele>1846.03</ele>
        <time>2012-12-18T13:03:44+01:00</time>
      </trkpt>
      <trkpt lat="43.05432295464" lon="-5.40524556816">
        <ele>1844.86</ele>
        <time>2012-12-18T13:03:45+01:00</time>
      </trkpt>
      <trkpt lat="43.05438910013" lon="-5.4051538739">
        <ele>1842.78</ele>
        <time>2012-12-18T13:03:46+01:00</time>
      </trkpt>
      <trkpt lat="43.05444297604" lon="-5.4050478432">
        <ele>1840.99</ele>
        <time>2012-12-18T13:03:47+01:00</time>
      </trkpt>
      <trkpt lat="43.05448725147" lon="-5.40492996853">
        <ele>1839.41</ele>
        <time>2012-12-18T13:03:48+01:00</time>
      </trkpt>
      <trkpt lat="43.05455289624" lon="-5.4046750472">
        <ele>1837.98</ele>
        <time>2012-12-18T13:03:50+01:00</time>
      </trkpt>
      <trkpt lat="43.05461019219" lon="-5.40453964317">
        <ele>1836.21</ele>
        <time>2012-12-18T13:03:51+01:00</time>
      </trkpt>
      <trkpt lat="43.05467087773" lon="-5.40442305565">
        <ele>1834.43</ele>
        <time>2012-12-18T13:03:52+01:00</time>
      </trkpt>
      <trkpt lat="43.05470391506" lon="-5.40428255028">
        <ele>1832.71</ele>
        <time>2012-12-18T13:03:53+01:00</time>
      </trkpt>
      <trkpt lat="43.05473901554" lon="-5.40416115271">
        <ele>1831.08</ele>
        <time>2012-12-18T13:03:54+01:00</time>
      </trkpt>
      <trkpt lat="43.05477153117" lon="-5.40404249573">
        <ele>1829.54</ele>
        <time>2012-12-18T13:03:55+01:00</time>
      </trkpt>
      <trkpt lat="43.05479334026" lon="-5.40394108616">
        <ele>1828.14</ele>
        <time>2012-12-18T13:03:56+01:00</time>
      </trkpt>
      <trkpt lat="43.05482324432" lon="-5.40384864329">
        <ele>1826.69</ele>
        <time>2012-12-18T13:03:57+01:00</time>
      </trkpt>
      <trkpt lat="43.05485844638" lon="-5.40375943565">
        <ele>1825.23</ele>
        <time>2012-12-18T13:03:58+01:00</time>
      </trkpt>
      <trkpt lat="43.05489266949" lon="-5.40366225345">
        <ele>1823.42</ele>
        <time>2012-12-18T13:03:59+01:00</time>
      </trkpt>
      <trkpt lat="43.05490763369" lon="-5.40355620201">
        <ele>1821.56</ele>
        <time>2012-12-18T13:04:00+01:00</time>
      </trkpt>
      <trkpt lat="43.05494036108" lon="-5.40345529863">
        <ele>1819.78</ele>
        <time>2012-12-18T13:04:01+01:00</time>
      </trkpt>
      <trkpt lat="43.05497629809" lon="-5.40333982262">
        <ele>1818.32</ele>
        <time>2012-12-18T13:04:02+01:00</time>
      </trkpt>
      <trkpt lat="43.05499905282" lon="-5.40320719843">
        <ele>1816.02</ele>
        <time>2012-12-18T13:04:03+01:00</time>
      </trkpt>
      <trkpt lat="43.0550307865" lon="-5.40309043627">
        <ele>1814.27</ele>
        <time>2012-12-18T13:04:04+01:00</time>
      </trkpt>
      <trkpt lat="43.05506473821" lon="-5.40300173874">
        <ele>1812.99</ele>
        <time>2012-12-18T13:04:05+01:00</time>
      </trkpt>
      <trkpt lat="43.05508918029" lon="-5.40290265941">
        <ele>1811.34</ele>
        <time>2012-12-18T13:04:07+01:00</time>
      </trkpt>
      <trkpt lat="43.05512152782" lon="-5.40277790212">
        <ele>1810.07</ele>
        <time>2012-12-18T13:04:07+01:00</time>
      </trkpt>
      <trkpt lat="43.05514181119" lon="-5.40270254449">
        <ele>1808.82</ele>
        <time>2012-12-18T13:04:08+01:00</time>
      </trkpt>
      <trkpt lat="43.05512544906" lon="-5.40255314199">
        <ele>1808.12</ele>
        <time>2012-12-18T13:04:09+01:00</time>
      </trkpt>
      <trkpt lat="43.05512801044" lon="-5.40243132877">
        <ele>1804.61</ele>
        <time>2012-12-18T13:04:10+01:00</time>
      </trkpt>
      <trkpt lat="43.0551350606" lon="-5.40232207421">
        <ele>1804.84</ele>
        <time>2012-12-18T13:04:11+01:00</time>
      </trkpt>
      <trkpt lat="43.05514971403" lon="-5.40218361427">
        <ele>1803.76</ele>
        <time>2012-12-18T13:04:12+01:00</time>
      </trkpt>
      <trkpt lat="43.05514915785" lon="-5.40203133367">
        <ele>1802.63</ele>
        <time>2012-12-18T13:04:13+01:00</time>
      </trkpt>
      <trkpt lat="43.05512866183" lon="-5.40185885458">
        <ele>1801.28</ele>
        <time>2012-12-18T13:04:14+01:00</time>
      </trkpt>
      <trkpt lat="43.05515517333" lon="-5.40175636476">
        <ele>1800.17</ele>
        <time>2012-12-18T13:04:15+01:00</time>
      </trkpt>
      <trkpt lat="43.055172506" lon="-5.40169619578">
        <ele>1798.82</ele>
        <time>2012-12-18T13:04:17+01:00</time>
      </trkpt>
      <trkpt lat="43.05520290242" lon="-5.40163224841">
        <ele>1797.43</ele>
        <time>2012-12-18T13:04:17+01:00</time>
      </trkpt>
      <trkpt lat="43.05524029172" lon="-5.40152479568">
        <ele>1796.16</ele>
        <time>2012-12-18T13:04:18+01:00</time>
      </trkpt>
      <trkpt lat="43.05528465356" lon="-5.40132926526">
        <ele>1794.56</ele>
        <time>2012-12-18T13:04:19+01:00</time>
      </trkpt>
      <trkpt lat="43.05531005504" lon="-5.40118005449">
        <ele>1792.85</ele>
        <time>2012-12-18T13:04:20+01:00</time>
      </trkpt>
      <trkpt lat="43.05533468194" lon="-5.40103903478">
        <ele>1791.24</ele>
        <time>2012-12-18T13:04:21+01:00</time>
      </trkpt>
      <trkpt lat="43.05535006074" lon="-5.40095225661">
        <ele>1789.65</ele>
        <time>2012-12-18T13:04:22+01:00</time>
      </trkpt>
      <trkpt lat="43.05537271184" lon="-5.40083946537">
        <ele>1788.17</ele>
        <time>2012-12-18T13:04:23+01:00</time>
      </trkpt>
      <trkpt lat="43.05542761251" lon="-5.40062021812">
        <ele>1783.72</ele>
        <time>2012-12-18T13:04:24+01:00</time>
      </trkpt>
      <trkpt lat="43.05545321068" lon="-5.40044661681">
        <ele>1781.66</ele>
        <time>2012-12-18T13:04:25+01:00</time>
      </trkpt>
      <trkpt lat="43.05540736835" lon="-5.40031245365">
        <ele>1779.11</ele>
        <time>2012-12-18T13:04:26+01:00</time>
      </trkpt>
      <trkpt lat="43.05537928838" lon="-5.40015575888">
        <ele>1776.52</ele>
        <time>2012-12-18T13:04:27+01:00</time>
      </trkpt>
      <trkpt lat="43.05536607006" lon="-5.40001856019">
        <ele>1773.87</ele>
        <time>2012-12-18T13:04:28+01:00</time>
      </trkpt>
      <trkpt lat="43.05535728433" lon="-5.39991376148">
        <ele>1771.68</ele>
        <time>2012-12-18T13:04:29+01:00</time>
      </trkpt>
      <trkpt lat="43.05538088072" lon="-5.39983405655">
        <ele>1769.1</ele>
        <time>2012-12-18T13:04:30+01:00</time>
      </trkpt>
      <trkpt lat="43.05539945935" lon="-5.39972960197">
        <ele>1766.67</ele>
        <time>2012-12-18T13:04:31+01:00</time>
      </trkpt>
      <trkpt lat="43.05542169673" lon="-5.39963522403">
        <ele>1764.39</ele>
        <time>2012-12-18T13:04:32+01:00</time>
      </trkpt>
      <trkpt lat="43.05545038468" lon="-5.39951187641">
        <ele>1762.41</ele>
        <time>2012-12-18T13:04:33+01:00</time>
      </trkpt>
      <trkpt lat="43.05543767843" lon="-5.39932502629">
        <ele>1759.61</ele>
        <time>2012-12-18T13:04:34+01:00</time>
      </trkpt>
      <trkpt lat="43.05543205629" lon="-5.39918181712">
        <ele>1757.06</ele>
        <time>2012-12-18T13:04:35+01:00</time>
      </trkpt>
      <trkpt lat="43.05547360188" lon="-5.39901908883">
        <ele>1754.46</ele>
        <time>2012-12-18T13:04:36+01:00</time>
      </trkpt>
      <trkpt lat="43.05545938749" lon="-5.39888422883">
        <ele>1751.92</ele>
        <time>2012-12-18T13:04:37+01:00</time>
      </trkpt>
      <trkpt lat="43.05543337355" lon="-5.39874370671">
        <ele>1749.29</ele>
        <time>2012-12-18T13:04:38+01:00</time>
      </trkpt>
      <trkpt lat="43.05544389822" lon="-5.3986091814">
        <ele>1746.72</ele>
        <time>2012-12-18T13:04:39+01:00</time>
      </trkpt>
      <trkpt lat="43.05543759556" lon="-5.39849132388">
        <ele>1746.63</ele>
        <time>2012-12-18T13:04:40+01:00</time>
      </trkpt>
      <trkpt lat="43.055415428" lon="-5.39837611383">
        <ele>1744.66</ele>
        <time>2012-12-18T13:04:41+01:00</time>
      </trkpt>
      <trkpt lat="43.05542075495" lon="-5.39825128626">
        <ele>1742.84</ele>
        <time>2012-12-18T13:04:42+01:00</time>
      </trkpt>
      <trkpt lat="43.05544029781" lon="-5.39813877387">
        <ele>1741.17</ele>
        <time>2012-12-18T13:04:43+01:00</time>
      </trkpt>
      <trkpt lat="43.05548774068" lon="-5.39802719125">
        <ele>1736.69</ele>
        <time>2012-12-18T13:04:44+01:00</time>
      </trkpt>
      <trkpt lat="43.05553299471" lon="-5.39791049644">
        <ele>1736.83</ele>
        <time>2012-12-18T13:04:45+01:00</time>
      </trkpt>
      <trkpt lat="43.05556298014" lon="-5.39777511007">
        <ele>1734.94</ele>
        <time>2012-12-18T13:04:46+01:00</time>
      </trkpt>
      <trkpt lat="43.05560260341" lon="-5.39764207902">
        <ele>1732.95</ele>
        <time>2012-12-18T13:04:47+01:00</time>
      </trkpt>
      <trkpt lat="43.05563670287" lon="-5.397511094">
        <ele>1730.92</ele>
        <time>2012-12-18T13:04:48+01:00</time>
      </trkpt>
      <trkpt lat="43.05564509166" lon="-5.39738861166">
        <ele>1729.48</ele>
        <time>2012-12-18T13:04:49+01:00</time>
      </trkpt>
      <trkpt lat="43.05567931147" lon="-5.39727384437">
        <ele>1727.77</ele>
        <time>2012-12-18T13:04:50+01:00</time>
      </trkpt>
      <trkpt lat="43.05571561263" lon="-5.3971805614">
        <ele>1726.06</ele>
        <time>2012-12-18T13:04:51+01:00</time>
      </trkpt>
      <trkpt lat="43.0557353116" lon="-5.39707486713">
        <ele>1724.31</ele>
        <time>2012-12-18T13:04:52+01:00</time>
      </trkpt>
      <trkpt lat="43.0557572222" lon="-5.39697788881">
        <ele>1722.69</ele>
        <time>2012-12-18T13:04:53+01:00</time>
      </trkpt>
      <trkpt lat="43.05579620481" lon="-5.39688768283">
        <ele>1721.05</ele>
        <time>2012-12-18T13:04:54+01:00</time>
      </trkpt>
      <trkpt lat="43.0558465814" lon="-5.3968018488">
        <ele>1719.27</ele>
        <time>2012-12-18T13:04:55+01:00</time>
      </trkpt>
      <trkpt lat="43.05589739277" lon="-5.39671380463">
        <ele>1717.51</ele>
        <time>2012-12-18T13:04:56+01:00</time>
      </trkpt>
      <trkpt lat="43.05593340483" lon="-5.39660158087">
        <ele>1715.77</ele>
        <time>2012-12-18T13:04:57+01:00</time>
      </trkpt>
      <trkpt lat="43.05596669173" lon="-5.39648760573">
        <ele>1714.12</ele>
        <time>2012-12-18T13:04:58+01:00</time>
      </trkpt>
      <trkpt lat="43.05601934899" lon="-5.39636637363">
        <ele>1712.44</ele>
        <time>2012-12-18T13:04:59+01:00</time>
      </trkpt>
      <trkpt lat="43.05607976953" lon="-5.39624717702">
        <ele>1710.78</ele>
        <time>2012-12-18T13:05:00+01:00</time>
      </trkpt>
      <trkpt lat="43.05613946285" lon="-5.39615373437">
        <ele>1709.13</ele>
        <time>2012-12-18T13:05:01+01:00</time>
      </trkpt>
      <trkpt lat="43.05621094655" lon="-5.39606517429">
        <ele>1707.53</ele>
        <time>2012-12-18T13:05:02+01:00</time>
      </trkpt>
      <trkpt lat="43.05628857696" lon="-5.39597517675">
        <ele>1705.92</ele>
        <time>2012-12-18T13:05:04+01:00</time>
      </trkpt>
      <trkpt lat="43.05636287694" lon="-5.39589173134">
        <ele>1704.4</ele>
        <time>2012-12-18T13:05:04+01:00</time>
      </trkpt>
      <trkpt lat="43.05642178531" lon="-5.39585607113">
        <ele>1702.96</ele>
        <time>2012-12-18T13:05:05+01:00</time>
      </trkpt>
      <trkpt lat="43.05649469966" lon="-5.39581368205">
        <ele>1701.54</ele>
        <time>2012-12-18T13:05:06+01:00</time>
      </trkpt>
      <trkpt lat="43.05658138539" lon="-5.39578033375">
        <ele>1700.14</ele>
        <time>2012-12-18T13:05:07+01:00</time>
      </trkpt>
      <trkpt lat="43.05670340585" lon="-5.39574366389">
        <ele>1698.43</ele>
        <time>2012-12-18T13:05:08+01:00</time>
      </trkpt>
      <trkpt lat="43.05680049781" lon="-5.39568496561">
        <ele>1696.92</ele>
        <time>2012-12-18T13:05:09+01:00</time>
      </trkpt>
      <trkpt lat="43.05685207116" lon="-5.39563089922">
        <ele>1695.56</ele>
        <time>2012-12-18T13:05:10+01:00</time>
      </trkpt>
      <trkpt lat="43.05694308481" lon="-5.39548706326">
        <ele>1694.11</ele>
        <time>2012-12-18T13:05:12+01:00</time>
      </trkpt>
      <trkpt lat="43.05701566933" lon="-5.39537622048">
        <ele>1692.42</ele>
        <time>2012-12-18T13:05:12+01:00</time>
      </trkpt>
      <trkpt lat="43.0570858756" lon="-5.39525467607">
        <ele>1690.78</ele>
        <time>2012-12-18T13:05:13+01:00</time>
      </trkpt>
      <trkpt lat="43.05713673017" lon="-5.39512468816">
        <ele>1689.07</ele>
        <time>2012-12-18T13:05:14+01:00</time>
      </trkpt>
      <trkpt lat="43.05717080627" lon="-5.39498912234">
        <ele>1687.38</ele>
        <time>2012-12-18T13:05:15+01:00</time>
      </trkpt>
      <trkpt lat="43.05721037797" lon="-5.39485197155">
        <ele>1685.75</ele>
        <time>2012-12-18T13:05:17+01:00</time>
      </trkpt>
      <trkpt lat="43.05723246543" lon="-5.39475767228">
        <ele>1684.22</ele>
        <time>2012-12-18T13:05:17+01:00</time>
      </trkpt>
      <trkpt lat="43.05723523202" lon="-5.39462276412">
        <ele>1682.38</ele>
        <time>2012-12-18T13:05:18+01:00</time>
      </trkpt>
      <trkpt lat="43.05724733595" lon="-5.39438320819">
        <ele>1680.71</ele>
        <time>2012-12-18T13:05:19+01:00</time>
      </trkpt>
      <trkpt lat="43.05726393891" lon="-5.39420313115">
        <ele>1678.98</ele>
        <time>2012-12-18T13:05:20+01:00</time>
      </trkpt>
      <trkpt lat="43.05726256564" lon="-5.39404306358">
        <ele>1677.47</ele>
        <time>2012-12-18T13:05:21+01:00</time>
      </trkpt>
      <trkpt lat="43.05725189743" lon="-5.39389484335">
        <ele>1675.97</ele>
        <time>2012-12-18T13:05:22+01:00</time>
      </trkpt>
      <trkpt lat="43.05727554652" lon="-5.39374309175">
        <ele>1674.5</ele>
        <time>2012-12-18T13:05:24+01:00</time>
      </trkpt>
      <trkpt lat="43.05730362741" lon="-5.39366859269">
        <ele>1673.05</ele>
        <time>2012-12-18T13:05:24+01:00</time>
      </trkpt>
      <trkpt lat="43.05736121184" lon="-5.39358406922">
        <ele>1671.71</ele>
        <time>2012-12-18T13:05:26+01:00</time>
      </trkpt>
      <trkpt lat="43.05744836306" lon="-5.39356795903">
        <ele>1670.26</ele>
        <time>2012-12-18T13:05:26+01:00</time>
      </trkpt>
      <trkpt lat="43.05753072592" lon="-5.39358827667">
        <ele>1668.74</ele>
        <time>2012-12-18T13:05:27+01:00</time>
      </trkpt>
      <trkpt lat="43.05764036975" lon="-5.39365750442">
        <ele>1666.93</ele>
        <time>2012-12-18T13:05:28+01:00</time>
      </trkpt>
      <trkpt lat="43.05769334509" lon="-5.3937032012">
        <ele>1665.35</ele>
        <time>2012-12-18T13:05:29+01:00</time>
      </trkpt>
      <trkpt lat="43.05777743268" lon="-5.39374063786">
        <ele>1664</ele>
        <time>2012-12-18T13:05:31+01:00</time>
      </trkpt>
      <trkpt lat="43.05785004015" lon="-5.39376026219">
        <ele>1662.69</ele>
        <time>2012-12-18T13:05:32+01:00</time>
      </trkpt>
      <trkpt lat="43.05791663002" lon="-5.39377826865">
        <ele>1661.33</ele>
        <time>2012-12-18T13:05:32+01:00</time>
      </trkpt>
      <trkpt lat="43.05798513445" lon="-5.3937889778">
        <ele>1657.79</ele>
        <time>2012-12-18T13:05:33+01:00</time>
      </trkpt>
      <trkpt lat="43.05803759325" lon="-5.39381324785">
        <ele>1657.99</ele>
        <time>2012-12-18T13:05:34+01:00</time>
      </trkpt>
      <trkpt lat="43.05808566947" lon="-5.3938557869">
        <ele>1654.29</ele>
        <time>2012-12-18T13:05:35+01:00</time>
      </trkpt>
      <trkpt lat="43.05813820005" lon="-5.39392041993">
        <ele>1652.5</ele>
        <time>2012-12-18T13:05:37+01:00</time>
      </trkpt>
      <trkpt lat="43.05819695241" lon="-5.39399865833">
        <ele>1652.6</ele>
        <time>2012-12-18T13:05:38+01:00</time>
      </trkpt>
      <trkpt lat="43.0582597319" lon="-5.39405554497">
        <ele>1651.36</ele>
        <time>2012-12-18T13:05:39+01:00</time>
      </trkpt>
      <trkpt lat="43.05831191744" lon="-5.39410809421">
        <ele>1647.82</ele>
        <time>2012-12-18T13:05:40+01:00</time>
      </trkpt>
      <trkpt lat="43.05836449876" lon="-5.39415327161">
        <ele>1646.35</ele>
        <time>2012-12-18T13:05:40+01:00</time>
      </trkpt>
      <trkpt lat="43.05841092309" lon="-5.39420609415">
        <ele>1644.84</ele>
        <time>2012-12-18T13:05:41+01:00</time>
      </trkpt>
      <trkpt lat="43.05848535211" lon="-5.39422765571">
        <ele>1642.77</ele>
        <time>2012-12-18T13:05:42+01:00</time>
      </trkpt>
      <trkpt lat="43.05856337041" lon="-5.39426723907">
        <ele>1640.74</ele>
        <time>2012-12-18T13:05:44+01:00</time>
      </trkpt>
      <trkpt lat="43.05865011967" lon="-5.39431082913">
        <ele>1639.12</ele>
        <time>2012-12-18T13:05:45+01:00</time>
      </trkpt>
      <trkpt lat="43.05879634966" lon="-5.39439236911">
        <ele>1636.45</ele>
        <time>2012-12-18T13:05:46+01:00</time>
      </trkpt>
      <trkpt lat="43.05888886226" lon="-5.39445159245">
        <ele>1633.93</ele>
        <time>2012-12-18T13:05:47+01:00</time>
      </trkpt>
      <trkpt lat="43.05899604532" lon="-5.39447175197">
        <ele>1632.04</ele>
        <time>2012-12-18T13:05:48+01:00</time>
      </trkpt>
      <trkpt lat="43.05909174559" lon="-5.39450937854">
        <ele>1632.24</ele>
        <time>2012-12-18T13:05:50+01:00</time>
      </trkpt>
      <trkpt lat="43.05918545106" lon="-5.39456618945">
        <ele>1630.59</ele>
        <time>2012-12-18T13:05:51+01:00</time>
      </trkpt>
      <trkpt lat="43.05927329256" lon="-5.39462770894">
        <ele>1626.77</ele>
        <time>2012-12-18T13:05:51+01:00</time>
      </trkpt>
      <trkpt lat="43.05932649659" lon="-5.39466582518">
        <ele>1625.04</ele>
        <time>2012-12-18T13:05:52+01:00</time>
      </trkpt>
      <trkpt lat="43.05942230166" lon="-5.39465870019">
        <ele>1624.18</ele>
        <time>2012-12-18T13:05:53+01:00</time>
      </trkpt>
      <trkpt lat="43.05947187012" lon="-5.39465420535">
        <ele>1622.74</ele>
        <time>2012-12-18T13:05:54+01:00</time>
      </trkpt>
      <trkpt lat="43.05952882515" lon="-5.39471511661">
        <ele>1622.14</ele>
        <time>2012-12-18T13:05:55+01:00</time>
      </trkpt>
      <trkpt lat="43.05957531956" lon="-5.39474748248">
        <ele>1621.08</ele>
        <time>2012-12-18T13:05:57+01:00</time>
      </trkpt>
      <trkpt lat="43.05959742599" lon="-5.39478124713">
        <ele>1619.96</ele>
        <time>2012-12-18T13:05:57+01:00</time>
      </trkpt>
      <trkpt lat="43.05962179621" lon="-5.39481381632">
        <ele>1618.8</ele>
        <time>2012-12-18T13:05:59+01:00</time>
      </trkpt>
      <trkpt lat="43.05964604921" lon="-5.39483327182">
        <ele>1617.82</ele>
        <time>2012-12-18T13:06:00+01:00</time>
      </trkpt>
      <trkpt lat="43.05968855132" lon="-5.39482992096">
        <ele>1616.65</ele>
        <time>2012-12-18T13:06:00+01:00</time>
      </trkpt>
      <trkpt lat="43.05973430092" lon="-5.39484661809">
        <ele>1615.33</ele>
        <time>2012-12-18T13:06:01+01:00</time>
      </trkpt>
      <trkpt lat="43.05976866361" lon="-5.3948414415">
        <ele>1613.97</ele>
        <time>2012-12-18T13:06:02+01:00</time>
      </trkpt>
      <trkpt lat="43.05979873725" lon="-5.39484556943">
        <ele>1612.85</ele>
        <time>2012-12-18T13:06:04+01:00</time>
      </trkpt>
      <trkpt lat="43.05983288165" lon="-5.39483700729">
        <ele>1611.48</ele>
        <time>2012-12-18T13:06:05+01:00</time>
      </trkpt>
      <trkpt lat="43.05986670026" lon="-5.39483281382">
        <ele>1610.19</ele>
        <time>2012-12-18T13:06:06+01:00</time>
      </trkpt>
      <trkpt lat="43.05991691576" lon="-5.39484230163">
        <ele>1606.64</ele>
        <time>2012-12-18T13:06:06+01:00</time>
      </trkpt>
      <trkpt lat="43.05995958123" lon="-5.39486203588">
        <ele>1605.07</ele>
        <time>2012-12-18T13:06:07+01:00</time>
      </trkpt>
      <trkpt lat="43.05996295107" lon="-5.39490641703">
        <ele>1603.48</ele>
        <time>2012-12-18T13:06:08+01:00</time>
      </trkpt>
      <trkpt lat="43.05995333206" lon="-5.39494037191">
        <ele>1601.69</ele>
        <time>2012-12-18T13:06:10+01:00</time>
      </trkpt>
      <trkpt lat="43.05993917068" lon="-5.39498364093">
        <ele>1599.97</ele>
        <time>2012-12-18T13:06:11+01:00</time>
      </trkpt>
      <trkpt lat="43.05995705847" lon="-5.39499712271">
        <ele>1598.86</ele>
        <time>2012-12-18T13:06:12+01:00</time>
      </trkpt>
      <trkpt lat="43.05996928615" lon="-5.39502188024">
        <ele>1597.68</ele>
        <time>2012-12-18T13:06:12+01:00</time>
      </trkpt>
      <trkpt lat="43.05998252758" lon="-5.39507759255">
        <ele>1596.14</ele>
        <time>2012-12-18T13:06:15+01:00</time>
      </trkpt>
      <trkpt lat="43.05995386108" lon="-5.39516336748">
        <ele>1595.11</ele>
        <time>2012-12-18T13:06:17+01:00</time>
      </trkpt>
      <trkpt lat="43.05991999811" lon="-5.39524798002">
        <ele>1594.02</ele>
        <time>2012-12-18T13:06:17+01:00</time>
      </trkpt>
      <trkpt lat="43.05988827678" lon="-5.39531235556">
        <ele>1592.98</ele>
        <time>2012-12-18T13:06:18+01:00</time>
      </trkpt>
      <trkpt lat="43.05985840032" lon="-5.39535851213">
        <ele>1592.02</ele>
        <time>2012-12-18T13:06:19+01:00</time>
      </trkpt>
      <trkpt lat="43.05983552711" lon="-5.39539765007">
        <ele>1592.06</ele>
        <time>2012-12-18T13:06:20+01:00</time>
      </trkpt>
      <trkpt lat="43.05982581576" lon="-5.39542592782">
        <ele>1591.43</ele>
        <time>2012-12-18T13:06:22+01:00</time>
      </trkpt>
      <trkpt lat="43.05986870689" lon="-5.39544204567">
        <ele>1590.32</ele>
        <time>2012-12-18T13:06:28+01:00</time>
      </trkpt>
      <trkpt lat="43.059890495" lon="-5.39546531875">
        <ele>1589.64</ele>
        <time>2012-12-18T13:06:30+01:00</time>
      </trkpt>
      <trkpt lat="43.05990890069" lon="-5.39549230276">
        <ele>1589.13</ele>
        <time>2012-12-18T13:06:31+01:00</time>
      </trkpt>
      <trkpt lat="43.05992676401" lon="-5.39552224177">
        <ele>1588.5</ele>
        <time>2012-12-18T13:06:32+01:00</time>
      </trkpt>
      <trkpt lat="43.05994787162" lon="-5.39555552105">
        <ele>1587.81</ele>
        <time>2012-12-18T13:06:32+01:00</time>
      </trkpt>
      <trkpt lat="43.05997288026" lon="-5.39558396986">
        <ele>1585.68</ele>
        <time>2012-12-18T13:06:33+01:00</time>
      </trkpt>
      <trkpt lat="43.05998937547" lon="-5.39560068554">
        <ele>1584.81</ele>
        <time>2012-12-18T13:06:34+01:00</time>
      </trkpt>
      <trkpt lat="43.06006241843" lon="-5.39561573448">
        <ele>1584.77</ele>
        <time>2012-12-18T13:06:35+01:00</time>
      </trkpt>
      <trkpt lat="43.06014039421" lon="-5.39568492777">
        <ele>1583.61</ele>
        <time>2012-12-18T13:06:37+01:00</time>
      </trkpt>
      <trkpt lat="43.06020279392" lon="-5.39575435521">
        <ele>1582.27</ele>
        <time>2012-12-18T13:06:37+01:00</time>
      </trkpt>
      <trkpt lat="43.0602745842" lon="-5.39581175954">
        <ele>1581.46</ele>
        <time>2012-12-18T13:06:39+01:00</time>
      </trkpt>
      <trkpt lat="43.06033229347" lon="-5.39588050557">
        <ele>1580.88</ele>
        <time>2012-12-18T13:06:39+01:00</time>
      </trkpt>
      <trkpt lat="43.06034996355" lon="-5.39591755538">
        <ele>1579.97</ele>
        <time>2012-12-18T13:06:41+01:00</time>
      </trkpt>
      <trkpt lat="43.06033788102" lon="-5.39589019829">
        <ele>1579.27</ele>
        <time>2012-12-18T13:06:42+01:00</time>
      </trkpt>
      <trkpt lat="43.06034810537" lon="-5.39586322551">
        <ele>1578.51</ele>
        <time>2012-12-18T13:06:44+01:00</time>
      </trkpt>
      <trkpt lat="43.06035275654" lon="-5.39583276576">
        <ele>1577.44</ele>
        <time>2012-12-18T13:06:45+01:00</time>
      </trkpt>
      <trkpt lat="43.06036583191" lon="-5.39577600356">
        <ele>1576.41</ele>
        <time>2012-12-18T13:06:46+01:00</time>
      </trkpt>
      <trkpt lat="43.06042048161" lon="-5.39567326158">
        <ele>1575.49</ele>
        <time>2012-12-18T13:06:46+01:00</time>
      </trkpt>
      <trkpt lat="43.06046691729" lon="-5.39560450048">
        <ele>1574.57</ele>
        <time>2012-12-18T13:06:47+01:00</time>
      </trkpt>
      <trkpt lat="43.06051657167" lon="-5.39560248292">
        <ele>1573.46</ele>
        <time>2012-12-18T13:06:48+01:00</time>
      </trkpt>
      <trkpt lat="43.06056013074" lon="-5.39560563334">
        <ele>1570.71</ele>
        <time>2012-12-18T13:06:50+01:00</time>
      </trkpt>
      <trkpt lat="43.06059155953" lon="-5.39560644623">
        <ele>1569.4</ele>
        <time>2012-12-18T13:06:50+01:00</time>
      </trkpt>
      <trkpt lat="43.06066820097" lon="-5.39556082844">
        <ele>1569.5</ele>
        <time>2012-12-18T13:06:52+01:00</time>
      </trkpt>
      <trkpt lat="43.06072872448" lon="-5.39549048347">
        <ele>1566.28</ele>
        <time>2012-12-18T13:06:52+01:00</time>
      </trkpt>
      <trkpt lat="43.06080312348" lon="-5.3954530122">
        <ele>1564.17</ele>
        <time>2012-12-18T13:06:53+01:00</time>
      </trkpt>
      <trkpt lat="43.06084681012" lon="-5.39542716398">
        <ele>1562.53</ele>
        <time>2012-12-18T13:06:54+01:00</time>
      </trkpt>
      <trkpt lat="43.06095290502" lon="-5.39537134847">
        <ele>1562.4</ele>
        <time>2012-12-18T13:06:55+01:00</time>
      </trkpt>
      <trkpt lat="43.06103202618" lon="-5.3953265907">
        <ele>1560.53</ele>
        <time>2012-12-18T13:06:57+01:00</time>
      </trkpt>
      <trkpt lat="43.06111510681" lon="-5.39531348173">
        <ele>1559.01</ele>
        <time>2012-12-18T13:06:58+01:00</time>
      </trkpt>
      <trkpt lat="43.06120467902" lon="-5.3953104576">
        <ele>1555.31</ele>
        <time>2012-12-18T13:06:59+01:00</time>
      </trkpt>
      <trkpt lat="43.06130932939" lon="-5.39517842453">
        <ele>1555.51</ele>
        <time>2012-12-18T13:07:00+01:00</time>
      </trkpt>
      <trkpt lat="43.06135952908" lon="-5.39507168576">
        <ele>1554.01</ele>
        <time>2012-12-18T13:07:01+01:00</time>
      </trkpt>
      <trkpt lat="43.06141731233" lon="-5.39497389505">
        <ele>1552.47</ele>
        <time>2012-12-18T13:07:02+01:00</time>
      </trkpt>
      <trkpt lat="43.06147108025" lon="-5.39491638365">
        <ele>1550.76</ele>
        <time>2012-12-18T13:07:04+01:00</time>
      </trkpt>
      <trkpt lat="43.06152411215" lon="-5.39485754038">
        <ele>1549.49</ele>
        <time>2012-12-18T13:07:05+01:00</time>
      </trkpt>
      <trkpt lat="43.06156274761" lon="-5.39480037534">
        <ele>1548.1</ele>
        <time>2012-12-18T13:07:05+01:00</time>
      </trkpt>
      <trkpt lat="43.06159665977" lon="-5.39470881133">
        <ele>1546.72</ele>
        <time>2012-12-18T13:07:06+01:00</time>
      </trkpt>
      <trkpt lat="43.06163814328" lon="-5.39459668827">
        <ele>1543.14</ele>
        <time>2012-12-18T13:07:07+01:00</time>
      </trkpt>
      <trkpt lat="43.0616873772" lon="-5.39449433383">
        <ele>1543.1</ele>
        <time>2012-12-18T13:07:08+01:00</time>
      </trkpt>
      <trkpt lat="43.06174184924" lon="-5.39439118385">
        <ele>1538.89</ele>
        <time>2012-12-18T13:07:10+01:00</time>
      </trkpt>
      <trkpt lat="43.06180333681" lon="-5.39429223335">
        <ele>1536.79</ele>
        <time>2012-12-18T13:07:10+01:00</time>
      </trkpt>
      <trkpt lat="43.06189087029" lon="-5.39420498569">
        <ele>1534.63</ele>
        <time>2012-12-18T13:07:12+01:00</time>
      </trkpt>
      <trkpt lat="43.06198032724" lon="-5.39412027977">
        <ele>1532.82</ele>
        <time>2012-12-18T13:07:12+01:00</time>
      </trkpt>
      <trkpt lat="43.06207777966" lon="-5.39403883146">
        <ele>1530.63</ele>
        <time>2012-12-18T13:07:13+01:00</time>
      </trkpt>
      <trkpt lat="43.0621365645" lon="-5.3939045246">
        <ele>1530.67</ele>
        <time>2012-12-18T13:07:14+01:00</time>
      </trkpt>
      <trkpt lat="43.06217940157" lon="-5.39379290543">
        <ele>1529.78</ele>
        <time>2012-12-18T13:07:15+01:00</time>
      </trkpt>
      <trkpt lat="43.06222518463" lon="-5.39368703078">
        <ele>1528.69</ele>
        <time>2012-12-18T13:07:17+01:00</time>
      </trkpt>
      <trkpt lat="43.06224111382" lon="-5.39361737492">
        <ele>1527.69</ele>
        <time>2012-12-18T13:07:18+01:00</time>
      </trkpt>
      <trkpt lat="43.06226884187" lon="-5.39354745264">
        <ele>1526.85</ele>
        <time>2012-12-18T13:07:19+01:00</time>
      </trkpt>
      <trkpt lat="43.06228940785" lon="-5.3934868648">
        <ele>1526.03</ele>
        <time>2012-12-18T13:07:19+01:00</time>
      </trkpt>
      <trkpt lat="43.06231494519" lon="-5.39344510882">
        <ele>1525.03</ele>
        <time>2012-12-18T13:07:20+01:00</time>
      </trkpt>
      <trkpt lat="43.06232659055" lon="-5.39340423584">
        <ele>1524.12</ele>
        <time>2012-12-18T13:07:22+01:00</time>
      </trkpt>
      <trkpt lat="43.0623299925" lon="-5.39342710782">
        <ele>1522.99</ele>
        <time>2012-12-18T13:07:25+01:00</time>
      </trkpt>
      <trkpt lat="43.06234448627" lon="-5.39336878441">
        <ele>1521.79</ele>
        <time>2012-12-18T13:07:26+01:00</time>
      </trkpt>
      <trkpt lat="43.06235669155" lon="-5.39333877903">
        <ele>1520.61</ele>
        <time>2012-12-18T13:07:30+01:00</time>
      </trkpt>
      <trkpt lat="43.06236832625" lon="-5.39334137833">
        <ele>1519</ele>
        <time>2012-12-18T13:07:41+01:00</time>
      </trkpt>
      <trkpt lat="43.06238970394" lon="-5.3933239447">
        <ele>1515.73</ele>
        <time>2012-12-18T13:07:46+01:00</time>
      </trkpt>
      <trkpt lat="43.06241238614" lon="-5.39332508479">
        <ele>1516.52</ele>
        <time>2012-12-18T13:07:52+01:00</time>
      </trkpt>
      <trkpt lat="43.06244139774" lon="-5.39331116415">
        <ele>1515.76</ele>
        <time>2012-12-18T13:07:54+01:00</time>
      </trkpt>
      <trkpt lat="43.06246154988" lon="-5.39329020806">
        <ele>1514.23</ele>
        <time>2012-12-18T13:08:01+01:00</time>
      </trkpt>
      <trkpt lat="43.06247364522" lon="-5.3932715372">
        <ele>1513.01</ele>
        <time>2012-12-18T13:08:03+01:00</time>
      </trkpt>
      <trkpt lat="43.06247710529" lon="-5.39326553784">
        <ele>1512.3</ele>
        <time>2012-12-18T13:08:04+01:00</time>
      </trkpt>
      <trkpt lat="43.06247999295" lon="-5.39326137129">
        <ele>1511.53</ele>
        <time>2012-12-18T13:08:06+01:00</time>
      </trkpt>
      <trkpt lat="43.06248255004" lon="-5.39325774639">
        <ele>1511.71</ele>
        <time>2012-12-18T13:08:10+01:00</time>
      </trkpt>
      <trkpt lat="43.06248070656" lon="-5.39325733382">
        <ele>1510.02</ele>
        <time>2012-12-18T13:08:13+01:00</time>
      </trkpt>
      <trkpt lat="43.06247853379" lon="-5.39325695119">
        <ele>1509.17</ele>
        <time>2012-12-18T13:08:18+01:00</time>
      </trkpt>
      <trkpt lat="43.06247215081" lon="-5.39325880582">
        <ele>1509.59</ele>
        <time>2012-12-18T13:08:22+01:00</time>
      </trkpt>
      <trkpt lat="43.06246551918" lon="-5.39326044088">
        <ele>1509.53</ele>
        <time>2012-12-18T13:08:37+01:00</time>
      </trkpt>
      <trkpt lat="43.06245042128" lon="-5.39326348043">
        <ele>1509.03</ele>
        <time>2012-12-18T13:08:40+01:00</time>
      </trkpt>
      <trkpt lat="43.06243433117" lon="-5.39326608191">
        <ele>1508.8</ele>
        <time>2012-12-18T13:08:42+01:00</time>
      </trkpt>
    </trkseg>
  </trk>
</gpx>